     2              OBSERVATION DATA    GPS                 RINEX VERSION / TYPE
teqc 2000Jul20 Karen Wendt 20030328 00:19:29UTC             PGM / RUN BY / DATE
                                                            COMMENT
L2: 1 -> 1; 150 -> 5; 250 -> 9                              COMMENT
L2: 1 -> 1; 150 -> 5; 250 -> 9                              COMMENT
L2: 1 -> 1; 150 -> 5; 250 -> 9                              COMMENT
L2: 1 -> 1; 150 -> 5; 250 -> 9                              COMMENT
L2: 1 -> 1; 150 -> 5; 250 -> 9                              COMMENT
L2: 1 -> 1; 150 -> 5; 250 -> 9                              COMMENT
L2: 1 -> 1; 150 -> 5; 250 -> 9                              COMMENT
L2: 1 -> 1; 150 -> 5; 250 -> 9                              COMMENT
L2: 1 -> 1; 150 -> 5; 250 -> 9                              COMMENT
L2: 1 -> 1; 150 -> 5; 250 -> 9                              COMMENT
L2: 1 -> 1; 150 -> 5; 250 -> 9                              COMMENT
L2: 1 -> 1; 150 -> 5; 250 -> 9                              COMMENT
L2: 1 -> 1; 150 -> 5; 250 -> 9                              COMMENT
L2: 1 -> 1; 150 -> 5; 250 -> 9                              COMMENT
Original Marker Name: almo Almond_1932_USC&GS               COMMENT
Campaign Name: USGS 2003                                    COMMENT
4-Character Station Name: ALMO                              COMMENT
6-Character Antenna Code: DMRCHT                            COMMENT
Vertical Measurement Point: BCR                             COMMENT
Vertical Offset to Rinex Ref. Point: 0.0348                 COMMENT
Radial Measurement Point: ECF                               COMMENT
Radial Offset to Rinex Ref. Point: 0.1897                   COMMENT
Antenna Height from Field Measurement: 1.3830 m             COMMENT
Additional Antenna Identification Info.:                    COMMENT
Turborogue and Ashtech Choke Ring                           COMMENT
Original XYZ: -2633215.6093 -4478755.3718 3688141.1672      COMMENT
New XYZ position is based on association with SCEC monument COMMENT
E1F1B4M0+0011. Position of that monument is believed to be  COMMENT
valid to within 1 m horizontally; vertical accuracy         COMMENT
should be no worse than 3-times this value.                 COMMENT
                                                            COMMENT
Revised Rinex header created by UCSD GPS archive for        COMMENT
GSAC on 11-Jul-2003 (2003:192) 16:15:05 GMT                 COMMENT
For assistance contact dagnew@ucsd.edu                      COMMENT
or anderson@python.ucsd.edu                                 COMMENT
                                                            COMMENT
ALMOND 1932                                                 MARKER NAME
CS US GEOLOGICAL SURVEY                                     OBSERVER / AGENCY
ZE120023208 RECEIVER UNKNOWN ZC00                           REC # / TYPE / VERS
CR14244 DORNE-MARGOL. TYPE T                                ANT # / TYPE
 -2633234.7643 -4478725.8851  3688126.6635                  APPROX POSITION XYZ
        1.3351        0.0000        0.0000                  ANTENNA: DELTA H/E/N
     1     1     0                                          WAVELENGTH FACT L1/2
     5    C1    L1    L2    P1    P2                        # / TYPES OF OBSERV
    30                                                      INTERVAL
  2003     3    26     0     0    0.000000                  TIME OF FIRST OBS
  2003     3    26    23    43   30.000000                  TIME OF LAST OBS
                                                            END OF HEADER
 03  3 26  0  0  0.0000000  0 10G 3G 2G14G23G 6G16G26G18G15G17
  22773094.731   -15917096.94643 -12359213.45342  22773096.950    22773093.440
  24806700.475    -8469242.65343  -6588372.46642  24806702.285    24806702.373
  23662873.292    -9294262.46843  -7223409.76542  23662876.578    23662875.485
  20935537.705   -24443661.87743 -19038486.86342  20935539.703    20935534.940
  23689413.210   -11567832.27643  -9009279.97142  23689415.016    23689414.459
  24057049.672    -8439870.98443  -6563063.22242  24057051.418    24057049.447
  23246266.314   -12434227.83143  -9647305.90842  23246268.894    23246265.142
  20383903.335   -29555795.13643 -22987472.03142  20383905.506    20383899.465
  20447471.555   -29733301.54044 -23144150.68242  20447473.120    20447468.568
  21028829.254   -24493012.87243 -19066613.46342  21028830.713    21028826.475
 03  3 26  0  0 30.0000000  0 10G 3G 2G14G23G 6G16G26G18G15G17
  22758933.283   -15991515.74343 -12417202.07942  22758935.477    22758931.908
  24810855.560    -8447408.39643  -6571358.80142  24810857.402    24810857.292
  23641739.304    -9405321.18843  -7309948.75642  23641742.549    23641741.389
  20941980.683   -24409803.75443 -19012103.91142  20941982.693    20941977.929
  23710025.234   -11459515.86043  -8924877.75642  23710027.054    23710026.619
  24068598.990    -8379179.03643  -6515770.90742  24068600.785    24068598.759
  23263360.987   -12344394.97443  -9577306.31942  23263363.457    23263359.825
  20385432.522   -29547759.19143 -22981210.24642  20385434.697    20385428.619
  20442911.726   -29757263.64444 -23162822.44142  20442913.265    20442908.733
  21033723.145   -24467295.37043 -19046573.85342  21033724.601    21033720.366
 03  3 26  0  1  0.0000000  0 10G 3G 2G14G23G 6G16G26G18G15G17
  22744839.124   -16065580.68943 -12474914.97842  22744841.377    22744837.718
  24815070.065    -8425260.84443  -6554101.02842  24815071.941    24815071.941
  23620621.231    -9516296.56043  -7396422.81642  23620624.370    23620623.126
  20948465.843   -24375723.96044 -18985548.23042  20948467.843    20948463.096
  23730659.012   -11351085.37043  -8840386.66442  23730660.780    23730660.384
  24080192.187    -8318257.11843  -6468299.39742  24080193.918    24080191.975
  23280526.349   -12254190.73343  -9507017.34442  23280528.799    23280525.132
  20387023.693   -29539397.45943 -22974694.60142  20387025.861    20387019.781
  20438395.489   -29780996.62944 -23181315.66542  20438397.029    20438392.474
  21038661.795   -24441342.64643 -19026350.95742  21038663.227    21038659.010
 03  3 26  0  1 30.0000000  0 10G 3G 2G14G23G 6G16G26G18G15G17
  22730816.142   -16139271.57643 -12532336.40342  22730818.456    22730814.728
  24819347.208    -8402783.72743  -6536586.50142  24819349.154    24819349.360
  23599522.963    -9627167.61943  -7482815.58942  23599526.134    23599524.759
  20954996.295   -24341406.15243 -18958807.08242  20954998.303    20954993.569
  23751317.417   -11242525.19843  -8755794.52042  23751319.270    23751318.864
  24091832.025    -8257090.13543  -6420636.94742  24091833.684    24091831.679
  23297765.186   -12163600.10343  -9436427.29542  23297767.623    23297763.995
  20388680.034   -29530693.21143 -22967912.06142  20388682.209    20388676.120
  20433926.420   -29804481.57644 -23199615.61442  20433927.974    20433923.412
  21043648.823   -24415135.59643 -19005929.88542  21043650.239    21043646.047
 03  3 26  0  2  0.0000000  0 10G 3G 2G14G23G 6G16G26G18G15G17
  22716868.795   -16212565.06243 -12589448.16742  22716871.099    22716867.368
  24823691.038    -8379957.73243  -6518800.08642  24823692.865    24823693.091
  23578448.966    -9737910.87343  -7569108.75142  23578452.192    23578450.764
  20961575.743   -24306830.84143 -18931865.28742  20961577.755    20961573.024
  23772004.111   -11133816.76343  -8671086.86042  23772005.862    23772005.575
  24103521.926    -8195660.05843  -6372769.46642  24103523.607    24103521.549
  23315080.985   -12072604.94443  -9365522.01542  23315083.508    23315079.793
  20390405.406   -29521626.28043 -22960846.91442  20390407.582    20390401.495
  20429508.853   -29827695.99644 -23217704.76442  20429510.398    20429505.840
  21048688.330   -24388652.84643 -18985293.98142  21048689.729    21048685.535
 03  3 26  0  2 30.0000000  0 10G 3G 2G14G23G 6G16G26G18G15G17
  22702996.486   -16285464.23643 -12646252.67542  22702998.780    22702995.117
  24828099.878    -8356789.94943  -6500747.31642  24828101.567    24828101.666
  23557398.853    -9848528.82843  -7655304.28842  23557402.024    23557400.600
  20968202.878   -24272005.07143 -18904728.32842  20968204.896    20968200.151
  23792717.583   -11024967.69743  -8586269.62442  23792719.371    23792719.051
  24115260.231    -8133975.12543  -6324703.42042  24115262.000    24115260.003
  23332472.222   -11981213.59243  -9294308.02042  23332474.716    23332471.069
  20392198.511   -29512203.51343 -22953504.49442  20392200.700    20392194.567
  20425141.917   -29850644.31744 -23235586.56042  20425143.456    20425138.913
  21053779.418   -24361899.19443 -18964446.99042  21053780.814    21053776.574
 03  3 26  0  3  0.0000000  0  9G 3G14G23G 6G16G26G18G15G17
  22689189.543   -16358020.08943 -12702789.65942  22689191.825    22689188.177
  23536363.006    -9959071.85943  -7741441.43442  23536366.231    23536364.737
  20974867.171   -24236983.87543 -18877439.08942  20974869.188    20974864.451
  23813447.208   -10916033.76443  -8501386.23642  23813448.933    23813448.592
  24127036.356    -8072091.54943  -6276482.55942  24127038.112    24127036.082
  23349928.122   -11889482.47743  -9222829.26742  23349930.613    23349926.984
  20394048.943   -29502479.46043 -22945927.30342  20394051.117    20394044.992
  20420815.645   -29873378.92644 -23253301.82842  20420817.189    20420812.631
  21058912.077   -24334927.00143 -18943429.70342  21058913.456    21058909.208
 03  3 26  0  3 30.0000000  0  9G 3G14G23G 6G16G26G18G15G17
  22675460.739   -16430165.10543 -12759006.51442  22675463.024    22675459.404
  23515354.324   -10069471.95943  -7827467.21242  23515357.579    23515356.003
  20981580.854   -24201703.43143 -18849947.83942  20981582.856    20981578.079
  23834204.890   -10806951.99743  -8416387.66642  23834206.717    23834206.300
  24138862.024    -8009947.15343  -6228058.47142  24138863.795    24138861.916
  23367460.554   -11797348.99443  -9151036.99242  23367463.097    23367459.451
  20395968.903   -29492390.04843 -22938065.42142  20395971.070    20395964.933
  20416542.684   -29895833.48144 -23270798.86942  20416544.203    20416539.672
  21064098.894   -24307670.15643 -18922190.61542  21064100.281    21064096.025
 03  3 26  0  4  0.0000000  0  9G 3G14G23G 6G16G26G18G15G17
  22661807.973   -16501910.87543 -12814912.27042  22661810.258    22661806.571
  23494370.643   -10179741.02043  -7913390.88242  23494373.846    23494372.253
  20988340.792   -24166179.81643 -18822267.10842  20988342.793    20988337.984
  23854987.515   -10697738.99943  -8331286.83842  23854989.341    23854988.968
  24150734.192    -7947559.12843  -6179444.55342  24150736.002    24150734.083
  23385066.256   -11704830.65143  -9078944.83742  23385068.754    23385065.119
  20397955.416   -29481950.71443 -22929930.87342  20397957.586    20397951.473
  20412320.517   -29918021.07444 -23288087.89142  20412322.042    20412317.491
  21069337.232   -24280142.44043 -18900740.46842  21069338.663    21069334.396
 03  3 26  0  4 30.0000000  0  9G 3G14G23G 6G16G26G18G15G17
  22648233.216   -16573246.60243 -12870498.50042  22648235.484    22648231.801
  23473414.076   -10289867.29543  -7999203.29642  23473417.331    23473415.660
  20995148.311   -24130406.02843 -18794391.43642  20995150.316    20995145.517
  23875796.363   -10588388.67043  -8246078.99742  23875798.133    23875797.845
  24162653.763    -7884921.63043  -6130636.24642  24162655.584    24162653.797
  23402746.260   -11611921.79243  -9006548.37242  23402748.753    23402745.123
  20400009.915   -29471154.12143 -22921517.94342  20400012.090    20400006.008
  20408151.015   -29939931.94744 -23305161.28342  20408152.537    20408148.005
  21074628.855   -24252334.77843 -18879072.17742  21074630.284    21074626.054
 03  3 26  0  5  0.0000000  0  9G 3G14G23G 6G16G26G18G15G17
  22634736.602   -16644171.55443 -12925764.66142  22634738.866    22634735.214
  23452484.975   -10399849.54043  -8084903.49442  23452488.176    23452486.455
  21002002.891   -24094385.10943 -18766323.18942  21002004.878    21002000.110
  23896630.542   -10478904.71943  -8160767.06442  23896632.315    23896632.176
  24174620.041    -7822038.89043  -6081636.81642  24174621.849    24174620.114
  23420499.851   -11518626.68643  -8933850.94142  23420502.317    23420498.592
  20402131.930   -29460003.02243 -22912828.77842  20402134.059    20402127.978
  20404034.055   -29961566.58144 -23322019.42842  20404035.590    20404031.061
  21079973.680   -24224247.64743 -18857186.12042  21079975.110    21079970.862
 03  3 26  0  5 30.0000000  0  9G 3G14G23G 6G16G26G18G15G17
  22621311.360   -16714721.05243 -12980738.25142  22621313.665    22621310.078
  23431576.588   -10509722.54143  -8170518.56742  23431579.784    23431578.060
  21008897.004   -24058156.23443 -18738092.89942  21008898.991    21008894.244
  23917482.663   -10369327.08443  -8075382.13242  23917484.329    23917484.352
  24186625.234    -7758951.55543  -6032477.98942  24186626.937    24186625.279
  23438319.166   -11424986.05543  -8860884.24542  23438321.679    23438317.865
  20404313.991   -29448536.12143 -22903893.53042  20404316.140    20404310.055
  20399962.747   -29982961.35944 -23338690.66842  20399964.278    20399959.744
  21085364.635   -24195918.11343 -18835111.17442  21085366.042    21085361.806
 03  3 26  0  6  0.0000000  0  9G 3G14G23G 6G16G26G18G15G17
  22607963.733   -16784863.13643 -13035394.38042  22607966.035    22607962.447
  23410695.160   -10619453.99843  -8256023.35742  23410698.400    23410696.617
  21015835.996   -24021691.45143 -18709678.78742  21015838.013    21015833.252
  23938357.833   -10259628.50843  -7989902.95542  23938359.431    23938359.522
  24198674.565    -7695633.07643  -5983139.03742  24198676.158    24198674.434
  23456209.307   -11330973.02643  -8787627.37742  23456211.791    23456207.908
  20406561.636   -29436724.64743 -22894689.78742  20406563.793    20406557.707
  20395942.946   -30004085.55144 -23355151.06642  20395944.475    20395939.904
  21090807.526   -24167315.50343 -18812823.44742  21090808.934    21090804.705
 03  3 26  0  6 30.0000000  0  9G 3G14G23G 6G16G26G18G15G17
  22594693.423   -16854598.99443 -13089733.97542  22594695.712    22594692.075
  23389840.680   -10729044.19443  -8341418.09642  23389843.877    23389842.100
  21022818.989   -23984995.63343 -18681084.64442  21022820.985    21022816.229
  23959254.904   -10149814.66743  -7904333.98542  23959256.531    23959256.647
  24210766.563    -7632089.62343  -5933624.77842  24210768.194    24210766.542
  23474169.056   -11236594.15743  -8714085.44742  23474171.531    23474167.665
  20408873.943   -29424573.36943 -22885221.26042  20408876.116    20408870.032
  20391974.222   -30024941.29744 -23371402.28542  20391975.757    20391971.173
  21096301.850   -24138442.79043 -18790325.24942  21096303.238    21096299.012
 03  3 26  0  7  0.0000000  0  9G 3G14G23G 6G16G26G18G15G17
  22581499.838   -16923931.56643 -13143759.32142  22581502.112    22581498.479
  23369012.534   -10838495.92843  -8426704.94942  23369015.663    23369013.813
  21029844.652   -23948075.58043 -18652315.77442  21029846.640    21029841.895
  23980172.469   -10039893.35843  -7818681.25342  23980174.031    23980174.200
  24222899.902    -7568329.35143  -5883941.58342  24222901.561    24222899.856
  23492196.804   -11141857.75443  -8640264.92342  23492199.321    23492195.435
  20411249.635   -29412089.14243 -22875493.29242  20411251.764    20411245.688
  20388055.711   -30045533.05744 -23387447.80242  20388057.257    20388052.680
  21101846.731   -24109304.35343 -18767619.99342  21101848.097    21101843.878
 03  3 26  0  7 30.0000000  0  9G 3G14G23G 6G16G26G18G15G17
  22568385.227   -16992849.25143 -13197461.37842  22568387.480    22568383.871
  23348213.035   -10947797.21143  -8511874.57342  23348216.114    23348214.228
  21036914.418   -23910923.72243 -18623366.27642  21036916.438    21036911.656
  24001111.745    -9929857.65243  -7732939.39042  24001113.367    24001113.524
  24235075.513    -7504346.15143  -5834084.67742  24235077.307    24235075.573
  23510293.806   -11046757.45343  -8566160.83842  23510296.328    23510292.451
  20413690.191   -29399263.88443 -22865499.58742  20413692.329    20413686.237
  20384189.451   -30065850.25044 -23403279.37242  20384191.016    20384186.447
  21107444.001   -24079890.47643 -18744700.10642  21107445.390    21107441.140
 03  3 26  0  8  0.0000000  0  9G 3G14G23G 6G16G26G18G15G17
  22555350.429   -17061347.50743 -13250836.60742  22555352.674    22555349.076
  23327443.143   -11056942.91343  -8596922.98142  23327446.214    23327444.242
  21044028.445   -23873539.31643 -18594235.57442  21044030.457    21044025.697
  24022072.792    -9819707.58743  -7647108.41742  24022074.416    24022074.609
  24247293.530    -7440140.41943  -5784054.36942  24247295.353    24247293.633
  23528459.993   -10951293.65443  -8491773.49942  23528462.512    23528458.652
  20416195.908   -29386096.20043 -22855239.05942  20416198.054    20416191.954
  20380376.155   -30085889.33644 -23418894.23842  20380377.705    20380373.117
  21113094.347   -24050197.80043 -18721562.97442  21113095.733    21113091.502
 03  3 26  0  8 30.0000000  0  9G 3G14G23G 6G16G26G18G15G17
  22542394.357   -17129432.02743 -13303889.44842  22542396.605    22542392.975
  23306701.969   -11165938.11943  -8681854.13842  23306704.958    23306702.958
  21051184.889   -23835931.92743 -18564931.11842  21051186.903    21051182.141
  24043053.705    -9709453.36143  -7561196.27542  24043055.230    24043055.521
  24259551.858    -7375723.27943  -5733859.32742  24259553.672    24259551.892
  23546693.216   -10855477.79643  -8417111.84142  23546695.679    23546691.880
  20418765.025   -29372595.40843 -22844718.96342  20418767.169    20418761.062
  20376614.446   -30105657.37744 -23434297.89742  20376615.982    20376611.352
  21118796.217   -24020234.34143 -18698214.84142  21118797.585    21118793.375
 03  3 26  0  9  0.0000000  0  9G 3G14G23G 6G16G26G18G15G17
  22529518.789   -17197093.60143 -13356612.71842  22529520.990    22529517.372
  23285991.285   -11274772.99743  -8766660.35642  23285994.247    23285992.220
  21058384.803   -23798096.21943 -18535448.75042  21058386.811    21058382.043
  24064055.194    -9599090.57643  -7475199.55742  24064056.692    24064057.083
  24271851.111    -7311090.72743  -5683496.43042  24271852.865    24271851.219
  23564994.187   -10759305.70743  -8342172.59542  23564996.661    23564992.886
  20421398.602   -29358755.86543 -22833934.90342  20421400.756    20421394.637
  20372905.835   -30125146.25344 -23449484.02842  20372907.359    20372902.754
  21124551.178   -23989991.92543 -18674649.33442  21124552.537    21124548.324
 03  3 26  0  9 30.0000000  0  9G 3G14G23G 6G16G26G18G15G17
  22516725.906   -17264320.53743 -13408997.31342  22516728.095    22516724.458
  23265313.356   -11383435.56043  -8851332.30442  23265316.292    23265314.227
  21065629.650   -23760024.27743 -18505782.30542  21065631.681    21065626.909
  24085078.767    -9488611.92043  -7389112.53842  24085080.244    24085080.743
  24284192.644    -7246235.91343  -5632960.34142  24284194.438    24284192.803
  23583364.167   -10662770.88943  -8266950.70942  23583366.653    23583362.936
  20424098.238   -29344569.15343 -22822880.32142  20424100.381    20424094.264
  20369252.374   -30144345.25044 -23464444.27742  20369253.923    20369249.318
  21130361.180   -23959460.14843 -18650858.35142  21130362.546    21130358.335
 03  3 26  0 10  0.0000000  0  9G 3G14G23G 6G16G26G18G15G17
  22504015.728   -17331112.62543 -13461043.06142  22504017.952    22504014.295
  23244668.422   -11491924.73443  -8935869.15142  23244671.357    23244669.237
  21072918.760   -23721719.71343 -18475934.59642  21072920.783    21072916.017
  24106123.546    -9378021.88643  -7302938.75242  24106124.993    24106125.521
  24296575.563    -7181164.07743  -5582255.15442  24296577.359    24296575.666
  23601802.250   -10565878.21343  -8191449.97142  23601804.710    23601801.071
  20426863.273   -29330038.82143 -22811557.98242  20426865.410    20426859.291
  20365653.889   -30163255.30844 -23479179.37942  20365655.431    20365650.849
  21136225.920   -23928640.77943 -18626843.27442  21136227.304    21136223.099
 03  3 26  0 10 30.0000000  0  9G 3G14G23G 6G16G26G18G15G17
  22491389.994   -17397461.49143 -13512743.45142  22491392.197    22491388.493
  23224058.164   -11600231.88943  -9020264.15242  23224061.058    23224058.837
  21080253.008   -23683177.93343 -18445902.04742  21080255.022    21080250.267
  24127190.252    -9267316.75443  -7216675.25942  24127191.725    24127192.345
  24309000.272    -7115872.08043  -5531378.39442  24309002.122    24309000.386
  23620308.945   -10468624.96343  -8115668.28042  23620311.410    23620307.769
  20429694.637   -29315159.88243 -22799963.99942  20429696.789    20429690.665
  20362111.725   -30181869.59044 -23493684.01042  20362113.244    20362108.670
  21142146.673   -23897527.05643 -18602598.83042  21142148.048    21142143.838
 03  3 26  0 11  0.0000000  0  9G 3G14G23G 6G16G26G18G15G17
  22478842.112   -17463401.08443 -13564124.91742  22478844.327    22478840.566
  23203476.199   -11708390.16943  -9104543.14142  23203479.128    23203476.802
  21087625.242   -23644436.61243 -18415714.01142  21087627.250    21087622.514
  24148271.492    -9156534.97043  -7130352.06742  24148273.067    24148273.692
  24321459.453    -7050398.87743  -5480360.45842  24321461.271    24321459.667
  23638876.836   -10371050.00743  -8039635.91942  23638879.295    23638875.713
  20432585.220   -29299969.58243 -22788127.39742  20432587.402    20432581.272
  20358619.247   -30200222.71744 -23507985.13942  20358620.751    20358616.199
  21148116.719   -23866154.37143 -18578152.59942  21148118.088    21148113.885
 03  3 26  0 11 30.0000000  0  9G 3G14G23G 6G16G26G18G15G17
  22466371.946   -17528932.08443 -13615188.00342  22466374.186    22466370.395
  23182922.577   -11816399.25843  -9188705.87042  23182925.534    23182923.129
  21095034.643   -23605499.95344 -18385373.76742  21095036.662    21095031.907
  24169366.382    -9045681.53843  -7043973.03842  24169367.978    24169368.710
  24333952.147    -6984749.81843  -5429205.48642  24333953.989    24333952.431
  23657504.925   -10273158.96943  -7963357.25242  23657507.399    23657503.845
  20435534.321   -29284472.03043 -22776051.37842  20435536.478    20435530.354
  20355176.124   -30218316.39744 -23522084.10542  20355177.627    20355173.092
  21154135.643   -23834524.73143 -18553506.14442  21154137.021    21154132.844
 03  3 26  0 12  0.0000000  0  9G 3G14G23G 6G16G26G18G15G17
  22453981.041   -17594046.49643 -13665926.47742  22453983.284    22453979.503
  23162398.925   -11924251.05543  -9272746.04142  23162401.892    23162399.426
  21102481.960   -23566364.05643 -18354878.26942  21102483.963    21102479.212
  24190475.572    -8934753.37843  -6957535.78642  24190477.087    24190477.903
  24346478.741    -6918922.62643  -5377911.69642  24346480.512    24346479.048
  23676193.718   -10174949.21043  -7886830.22742  23676196.100    23676192.690
  20438542.702   -29268662.77043 -22763732.46742  20438544.865    20438538.736
  20351783.679   -30236143.80744 -23535975.58342  20351785.180    20351780.618
  21160204.743   -23802631.53743 -18528654.32242  21160206.109    21160201.938
 03  3 26  0 12 30.0000000  0  9G 3G14G23G 6G16G26G18G15G17
  22441675.669   -17658711.61743 -13716314.84742  22441677.863    22441674.121
  23141911.498   -12031912.41743  -9356637.79342  23141914.444    23141911.953
  21109972.701   -23526999.97343 -18324204.96242  21109974.721    21109969.938
  24211604.242    -8823722.57343  -6871018.55142  24211605.800    24211606.611
  24359044.478    -6852889.82843  -5326457.70642  24359046.254    24359044.831
  23694948.333   -10076393.52343  -7810033.64442  23694950.679    23694947.281
  20441615.931   -29252512.83543 -22751148.09442  20441618.094    20441611.957
  20348447.899   -30253673.43044 -23549635.01942  20348449.410    20348444.804
  21166329.856   -23770443.89743 -18503573.05942  21166331.227    21166327.056
 03  3 26  0 13  0.0000000  0  9G 3G14G23G 6G16G26G18G15G17
  22429453.352   -17722940.18243 -13766363.04242  22429455.526    22429451.783
  23121458.019   -12139395.18643  -9440390.39442  23121461.065    23121458.468
  21117503.740   -23487424.01043 -18293366.55742  21117505.774    21117501.004
  24232749.197    -8712605.93443  -6784434.43842  24232750.761    24232751.674
  24371645.976    -6786669.23343  -5274857.36942  24371647.769    24371646.372
  23713765.346    -9977509.62043  -7732981.31842  23713767.724    23713764.283
  20444750.931   -29236038.17943 -22738310.69242  20444753.087    20444746.969
  20345166.246   -30270918.64744 -23563072.84442  20345167.754    20345163.133
  21172508.299   -23737975.99943 -18478273.41642  21172509.673    21172505.474
 03  3 26  0 13 30.0000000  0  9G 3G14G23G 6G16G26G18G15G17
  22417310.351   -17786752.05243 -13816086.54242  22417312.506    22417308.749
  23101034.937   -12246718.73343  -9524018.91342  23101037.912    23101035.261
  21125070.650   -23447659.68843 -18262381.38042  21125072.671    21125067.915
  24253905.915    -8601427.78943  -6697802.39142  24253907.459    24253908.429
  24384278.502    -6720285.69243  -5223130.08642  24384280.242    24384278.936
  23732640.076    -9878322.40143  -7655692.64342  23732642.435    23732638.960
  20447943.348   -29219261.81043 -22725238.19042  20447945.515    20447939.424
  20341934.690   -30287900.45444 -23576305.41342  20341936.213    20341931.576
  21178736.001   -23705249.23343 -18452772.05942  21178737.360    21178733.168
 03  3 26  0 14  0.0000000  0  9G 3G14G23G 6G16G26G18G15G17
  22405254.118   -17850107.77343 -13865454.59242  22405256.292    22405252.516
  23080649.672   -12353842.88743  -9607492.05042  23080652.702    23080650.039
  21132680.229   -23407671.17344 -18231221.51042  21132682.256    21132677.508
  24275080.968    -8490153.15843  -6611095.17842  24275082.512    24275083.588
  24396948.610    -6653704.70043  -5171248.92142  24396950.381    24396948.980
  23751578.964    -9778797.56443  -7578140.87142  23751581.474    23751577.956
  20451200.049   -29202147.63343 -22711902.45842  20451202.219    20451196.157
  20338760.581   -30304580.38144 -23589302.75042  20338762.120    20338757.486
  21185020.277   -23672225.32043 -18427039.16042  21185021.620    21185017.416
 03  3 26  0 14 30.0000000  0  9G 3G14G23G 6G16G26G18G15G17
  22393285.154   -17913004.99443 -13914465.38042  22393287.315    22393283.535
  23060303.035   -12460764.41643  -9690807.30942  23060306.090    23060303.273
  21140332.201   -23367459.96843 -18199888.11542  21140334.202    21140329.451
  24296273.892    -8378784.42943  -6524314.63442  24296275.539    24296276.630
  24409655.681    -6586929.04743  -5119216.10042  24409657.467    24409656.129
  23770581.594    -9678938.06043  -7500328.34942  23770584.216    23770580.578
  20454520.755   -29184697.26143 -22698304.76042  20454522.923    20454516.842
  20335644.170   -30320957.19944 -23602063.89842  20335645.716    20335641.077
  21191361.165   -23638903.69843 -18401074.28942  21191362.528    21191358.352
 03  3 26  0 15  0.0000000  0  9G 3G14G23G 6G16G26G18G15G17
  22381399.507   -17975464.34943 -13963134.97142  22381401.700    22381397.874
  23039991.112   -12567503.65643  -9773980.51142  23039994.141    23039991.270
  21148021.901   -23327050.30843 -18168400.08042  21148023.923    21148019.158
  24317480.045    -8267346.67743  -6437480.30842  24317481.712    24317482.789
  24422394.834    -6519984.55043  -5067051.69142  24422396.762    24422395.432
  23789643.014    -9578769.69943  -7422275.12242  23789645.698    23789642.087
  20457900.918   -29166934.33143 -22684463.50842  20457903.103    20457896.995
  20332581.371   -30337052.32044 -23614605.54042  20332582.902    20332578.264
  21197754.518   -23605306.45543 -18374894.63842  21197755.899    21197751.713
 03  3 26  0 15 30.0000000  0  9G 3G14G23G 6G16G26G18G15G17
  22369596.790   -18037487.84743 -14011464.92842  22369598.999    22369595.137
  23019713.597   -12674061.75743  -9857012.57442  23019716.674    23019713.694
  21155748.322   -23286447.69143 -18136761.68942  21155750.354    21155745.605
  24338698.092    -8155846.22643  -6350597.14942  24338699.792    24338700.961
  24435164.783    -6452878.21343  -5014761.17842  24435166.540    24435165.328
  23808761.956    -9478299.26943  -7343986.52942  23808764.661    23808761.036
  20461339.549   -29148864.28743 -22670382.94742  20461341.741    20461335.604
  20329571.592   -30352868.78944 -23626930.05342  20329573.117    20329568.486
  21204199.676   -23571437.04543 -18348502.91142  21204201.040    21204196.893
 03  3 26  0 16  0.0000000  0  9G 3G14G23G 6G16G26G18G15G17
  22357883.072   -18099043.94243 -14059430.67842  22357885.254    22357881.370
  22999476.685   -12780406.58743  -9939878.47942  22999479.773    22999476.706
  21163516.689   -23245624.50943 -18104951.42742  21163518.743    21163513.996
  24359933.161    -8044256.10643  -6263644.13042  24359934.945    24359936.234
  24447970.602    -6385583.69043  -4962324.05142  24447972.309    24447971.228
  23827943.309    -9377500.77043  -7265442.30242  23827945.982    23827942.375
  20464841.920   -29130458.99443 -22656041.15742  20464844.126    20464838.003
  20326620.631   -30368376.30144 -23639013.81942  20326622.144    20326617.500
  21210702.356   -23537265.37643 -18321875.65942  21210703.717    21210699.577
 03  3 26  0 16 30.0000000  0  9G 3G14G23G 6G16G26G18G15G17
  22346251.784   -18160166.55143 -14107058.65142  22346254.011    22346250.082
  22979274.016   -12886571.40443 -10022604.10242  22979277.071    22979273.998
  21171319.909   -23204618.30343 -18072998.55042  21171321.943    21171317.211
  24381178.033    -7932614.74243  -6176651.15542  24381179.795    24381181.041
  24460804.807    -6318140.21643  -4909770.85842  24460806.435    24460805.535
  23847179.725    -9276412.97143  -7186672.64842  23847182.383    23847178.834
  20468401.016   -29111755.81543 -22641467.24942  20468403.190    20468397.105
  20323721.815   -30383609.59144 -23650883.90942  20323723.322    20323718.699
  21217255.909   -23502826.33843 -18295040.06942  21217257.266    21217253.132
 03  3 26  0 17  0.0000000  0  9G 3G14G23G 6G16G26G18G15G17
  22334704.480   -18220847.69443 -14154342.62442  22334706.745    22334702.809
  22959107.281   -12992547.35143 -10105182.57142  22959110.358    22959107.250
  21179158.879   -23163424.36043 -18040899.38442  21179160.906    21179156.176
  24402433.436    -7820918.39843  -6089615.34042  24402435.112    24402436.484
  24473668.028    -6250544.15643  -4857098.71342  24473669.766    24473668.660
  23866471.704    -9175033.03243  -7107675.34242  23866474.392    23866470.885
  20472017.714   -29092749.83643 -22626657.39442  20472019.902    20472013.834
  20320876.570   -30398561.30744 -23662534.58842  20320878.090    20320873.483
  21223861.471   -23468114.08143 -18267991.58042  21223862.818    21223858.685
 03  3 26  0 17 30.0000000  0  9G 3G14G23G 6G16G26G18G15G17
  22323242.959   -18281078.43843 -14201275.63642  22323245.172    22323241.229
  22938978.337   -13098325.12543 -10187606.62442  22938981.366    22938978.196
  21187034.543   -23122037.62143 -18008649.98842  21187036.550    21187031.812
  24423700.118    -7709162.73243  -6002533.31742  24423701.870    24423703.216
  24486560.949    -6182792.17243  -4804305.10942  24486562.634    24486561.600
  23885819.970    -9073357.25443  -7028447.52642  23885822.700    23885819.168
  20475693.097   -29073435.72944 -22611607.44342  20475695.270    20475689.183
  20318086.407   -30413223.72544 -23673959.84442  20318087.921    20318083.312
  21230520.366   -23433121.42543 -18240724.60342  21230521.700    21230517.599
 03  3 26  0 18  0.0000000  0  9G 3G14G23G 6G16G26G18G15G17
  22311870.091   -18340843.23943 -14247845.58142  22311872.274    22311868.317
  22918890.147   -13203888.49843 -10269863.62442  22918893.123    22918889.951
  21194949.160   -23080446.10943 -17976241.02742  21194951.155    21194946.421
  24444980.146    -7597336.73843  -5915396.49642  24444981.966    24444983.330
  24499485.565    -6114873.55643  -4751381.71342  24499487.235    24499486.232
  23905226.472    -8971375.00443  -6948980.89242  23905229.243    23905225.764
  20479429.379   -29053801.45443 -22596308.00742  20479431.542    20479425.457
  20315354.061   -30427582.39444 -23685148.41442  20315355.546    20315350.956
  21237235.393   -23397833.84543 -18213227.80942  21237236.731    21237232.614
 03  3 26  0 18 30.0000000  0  9G 3G14G23G 6G16G26G18G15G17
  22300586.917   -18400136.62543 -14294048.18142  22300589.078    22300585.125
  22898844.006   -13309230.91443 -10351948.45242  22898846.946    22898843.777
  21202903.133   -23038647.66743 -17943670.82342  21202905.125    21202900.416
  24466273.802    -7485439.04243  -5828203.80842  24466275.586    24466276.983
  24512441.944    -6046787.98943  -4698328.11242  24512443.701    24512442.618
  23924691.443    -8869085.81643  -6869275.05942  23924694.187    23924690.795
  20483227.070   -29033844.50143 -22580757.13642  20483229.230    20483223.116
  20312680.436   -30441632.39744 -23696096.46542  20312681.901    20312677.342
  21244007.358   -23362246.87543 -18185497.72442  21244008.748    21244004.634
 03  3 26  0 19  0.0000000  0  9G 3G14G23G 6G16G26G18G15G17
  22289390.311   -18458975.04743 -14339896.26642  22289392.479    22289388.534
  22878836.920   -13414368.23043 -10433873.47942  22878839.801    22878836.634
  21210892.695   -22996662.32443 -17910954.98242  21210894.686    21210889.947
  24487577.133    -7373490.63643  -5740971.60742  24487578.816    24487580.344
  24525425.971    -5978556.86143  -4645161.17342  24525427.757    24525426.760
  23944210.731    -8766511.33343  -6789346.94342  23944213.458    23944210.110
  20487082.358   -29013584.96043 -22564970.48242  20487084.504    20487078.349
  20310062.230   -30455391.16144 -23706817.57742  20310063.709    20310059.136
  21250832.874   -23326378.74543 -18157548.56042  21250834.247    21250830.133
 03  3 26  0 19 30.0000000  0 10G31G 3G14G23G 6G16G26G18G15G17
  24366080.978    -1375382.51753  -1061589.08152  24366083.500    24366080.813
  22278280.258   -18517358.61643 -14385389.92442  22278282.455    22278278.484
  22858868.997   -13519299.77943 -10515638.18542  22858871.855    22858868.668
  21218917.140   -22954493.65743 -17878096.29042  21218919.117    21218914.385
  24508889.306    -7261495.92043  -5653703.32342  24508890.942    24508892.482
  24538436.824    -5910185.24443  -4591884.78142  24538438.511    24538437.665
  23963783.377    -8663656.66943  -6709200.48542  23963786.113    23963782.780
  20490994.607   -28993026.01843 -22548950.53442  20490996.741    20490990.574
  20307499.237   -30468859.72644 -23717312.56342  20307500.722    20307496.137
  21257711.693   -23290230.49743 -18129381.12342  21257713.049    21257708.939
 03  3 26  0 20  0.0000000  0 10G31G 3G14G23G 6G16G26G18G15G17
  24348185.403    -1469422.39543  -1134866.84642  24348188.100    24348185.080
  22267258.364   -18575278.93643 -14430522.61142  22267260.556    22267256.558
  22838942.009   -13624016.20343 -10597235.26942  22838944.850    22838941.623
  21226977.409   -22912136.65543 -17845090.84342  21226979.392    21226974.656
  24530211.155    -7149450.62443  -5566395.65742  24530212.684    24530214.437
  24551475.096    -5841669.19443  -4538495.77342  24551476.873    24551475.886
  23983410.114    -8560518.00543  -6628832.74242  23983412.739    23983409.421
  20494964.832   -28972162.19643 -22532693.01342  20494966.976    20494960.839
  20304992.980   -30482030.25344 -23727575.30642  20304994.467    20304989.863
  21264645.147   -23253795.00543 -18100989.85342  21264646.489    21264642.399
 03  3 26  0 20 30.0000000  0  9G31G 3G14G23G16G26G18G15G17
  24330345.303    -1563171.27343  -1207917.79542  24330347.858    24330345.344
  22256328.344   -18632716.13443 -14475278.83342  22256330.573    22256326.559
  22819059.827   -13728497.33043 -10678649.00342  22819062.651    22819059.357
  21235076.564   -22869575.30643 -17811926.16742  21235078.573    21235073.823
  24564543.558    -5772994.50643  -4484983.17942  24564545.304    24564544.190
  24003093.571    -8457081.04043  -6548232.54442  24003096.255    24003093.003
  20498996.151   -28950977.49743 -22516185.45942  20498998.288    20498992.179
  20302546.988   -30494884.08444 -23737591.27842  20302548.475    20302543.850
  21271636.593   -23217054.82843 -18072361.16742  21271637.915    21271633.840
 03  3 26  0 21  0.0000000  0  9G31G 3G14G23G16G26G18G15G17
  24312552.341    -1656673.42043  -1280776.55942  24312554.878    24312552.307
  22245481.723   -18689715.32443 -14519693.75842  22245483.948    22245479.938
  22799214.048   -13832787.33443 -10759913.83142  22799216.832    22799213.499
  21243205.426   -22826858.05443 -17778640.00842  21243207.419    21243202.654
  24577632.749    -5704211.04643  -4431385.87342  24577634.583    24577633.593
  24022824.280    -8353395.55943  -6467438.69542  24022826.868    24022823.675
  20503079.353   -28929520.17644 -22499465.47442  20503081.484    20503075.387
  20300152.524   -30507467.05544 -23747396.19042  20300154.042    20300149.376
  21278677.323   -23180055.84943 -18043530.81842  21278678.619    21278674.506
 03  3 26  0 21 30.0000000  0  9G31G 3G14G23G16G26G18G15G17
  24294816.328    -1749877.13943  -1353402.75242  24294818.656    24294816.101
  22234728.106   -18746225.75143 -14563727.82042  22234730.331    22234726.319
  22779414.476   -13936834.54343 -10840989.46242  22779417.262    22779413.865
  21251372.964   -22783937.34043 -17745195.30642  21251374.962    21251370.220
  24590751.384    -5635272.88643  -4377667.99342  24590753.210    24590752.414
  24042611.055    -8249415.87943  -6386415.61042  24042613.565    24042610.357
  20507223.484   -28907742.59443 -22482495.93542  20507225.631    20507219.507
  20297819.097   -30519729.10244 -23756951.02942  20297820.634    20297815.979
  21285776.704   -23142748.48343 -18014460.16542  21285778.006    21285773.850
 03  3 26  0 22  0.0000000  0  9G31G 3G14G23G16G26G18G15G17
  24277133.534    -1842799.93243  -1425810.03842  24277135.983    24277133.427
  22224064.057   -18802265.59043 -14607395.18742  22224066.287    22224062.273
  22759657.779   -14040656.26643 -10921889.39242  22759660.524    22759657.109
  21259575.089   -22740834.82843 -17711608.94542  21259577.085    21259572.376
  24603895.030    -5566203.02143  -4323847.47042  24603896.789    24603896.088
  24062449.416    -8145165.03043  -6305181.20742  24062451.904    24062448.586
  20511424.534   -28885666.00444 -22465293.40342  20511426.656    20511420.550
  20295543.195   -30531689.15344 -23766270.54742  20295544.690    20295540.057
  21292931.000   -23105152.43143 -17985164.56342  21292932.309    21292928.155
 03  3 26  0 22 30.0000000  0  9G31G 3G14G23G16G26G18G15G17
  24259501.959    -1935453.96743  -1498007.88242  24259504.444    24259501.776
  22213487.077   -18857847.69343 -14650705.88242  22213489.378    22213485.303
  22739941.730   -14144264.63143 -11002623.08042  22739944.434    22739940.909
  21267808.737   -22697566.73943 -17677893.56142  21267810.752    21267806.014
  24617060.529    -5497019.30043  -4269938.23842  24617062.309    24617061.532
  24082335.945    -8040660.91343  -6223749.47742  24082338.504    24082335.120
  20515679.369   -28863306.65743 -22447870.54242  20515681.498    20515675.387
  20293322.173   -30543360.83244 -23775365.35742  20293323.661    20293318.987
  21300137.529   -23067281.79743 -17955655.00142  21300138.850    21300134.751
 03  3 26  0 23  0.0000000  0  9G31G 3G14G23G16G26G18G15G17
  24241925.596    -2027817.63143  -1569979.47442  24241928.000    24241925.502
  22203001.220   -18912950.98343 -14693643.47342  22203003.506    22202999.481
  22720270.357   -14247637.91743 -11083173.59242  22720273.110    22720269.498
  21276077.217   -22654115.67843 -17644035.60742  21276079.240    21276074.474
  24630250.569    -5427705.45643  -4215927.66342  24630252.308    24630251.725
  24102273.766    -7935887.45843  -6142107.87342  24102276.273    24102272.963
  20519991.369   -28840646.88844 -22430213.58742  20519993.502    20519987.405
  20291159.773   -30554724.20544 -23784219.92842  20291161.263    20291156.594
  21307400.046   -23029117.04843 -17925916.26642  21307401.371    21307397.278
 03  3 26  0 23 30.0000000  0  9G31G 3G14G23G16G26G18G15G17
  24224401.558    -2119907.35543  -1641737.66642  24224403.902    24224401.307
  22192603.221   -18967592.68543 -14736221.38042  22192605.499    22192601.476
  22700640.608   -14350792.45543 -11163553.63942  22700643.373    22700639.738
  21284376.585   -22610502.32243 -17610051.18642  21284378.613    21284373.820
  24643461.069    -5358284.04243  -4161833.19942  24643462.811    24643462.246
  24122258.577    -7830866.93643  -6060273.74242  24122261.086    24122257.794
  20524356.674   -28817707.02843 -22412338.37642  20524358.799    20524352.740
  20289052.663   -30565797.14444 -23792848.19042  20289054.139    20289049.471
  21314714.987   -22990676.95943 -17895962.98142  21314716.316    21314712.220
 03  3 26  0 24  0.0000000  0  9G31G 3G14G23G16G26G18G15G17
  24206934.134    -2211699.43543  -1713263.86442  24206936.454    24206933.860
  22182297.425   -19021749.90843 -14778421.78042  22182299.695    22182295.685
  22681056.983   -14453704.55443 -11243744.77642  22681059.762    22681056.106
  21292710.565   -22566707.03843 -17575925.00142  21292712.572    21292707.807
  24656695.589    -5288736.90143  -4107640.78242  24656697.307    24656696.740
  24142293.865    -7725581.13843  -5978232.89742  24142296.320    24142293.064
  20528779.042   -28794467.40343 -22394229.58342  20528781.154    20528775.113
  20287005.013   -30576557.52844 -23801232.90342  20287006.510    20287001.821
  21322086.465   -22951939.77243 -17865778.18642  21322087.794    21322083.694
 03  3 26  0 24 30.0000000  0  9G31G 3G14G23G16G26G18G15G17
  24189522.198    -2303198.98743  -1784562.13242  24189524.540    24189521.952
  22172082.655   -19075428.72043 -14820249.39642  22172084.940    22172080.922
  22661518.526   -14556379.21943 -11323750.88542  22661521.342    22661517.651
  21301077.436   -22522738.78543 -17541664.03942  21301079.449    21301074.689
  24669952.040    -5219074.61843  -4053358.70442  24669953.624    24669953.314
  24162377.551    -7620040.83043  -5895993.73142  24162379.977    24162376.792
  20533256.766   -28770936.83944 -22375894.08242  20533258.899    20533252.832
  20285015.610   -30587011.85244 -23809379.12842  20285017.116    20285012.420
  21329513.040   -22912912.83543 -17835367.61142  21329514.387    21329510.281
 03  3 26  0 25  0.0000000  0  9G31G 3G14G23G16G26G18G15G17
  24172165.374    -2394409.17143  -1855634.92042  24172167.767    24172165.148
  22161958.198   -19128632.97743 -14861707.22142  22161960.475    22161956.468
  22642024.709   -14658819.31543 -11403574.22442  22642027.524    22642023.812
  21309475.867   -22478604.88143 -17507273.99842  21309477.871    21309473.101
  24683228.738    -5149305.78743  -3998993.53442  24683230.340    24683229.976
  24182507.979    -7514254.77343  -5813563.08342  24182510.456    24182507.233
  20537788.475   -28747122.65444 -22357337.57742  20537790.603    20537784.519
  20283083.612   -30597164.67844 -23817290.41842  20283085.099    20283080.409
  21336993.789   -22873601.30443 -17804735.27742  21336995.131    21336991.046
 03  3 26  0 25 30.0000000  0  8G31G 3G14G23G26G18G15G17
  24154869.978    -2485296.45743  -1926456.11142  24154872.383    24154869.745
  22151930.274   -19181330.09643 -14902769.88542  22151932.510    22151928.513
  22622581.873   -14760991.70043 -11483188.94742  22622584.704    22622580.927
  21317911.389   -22434275.97043 -17472731.99842  21317913.404    21317908.625
  24202690.443    -7408195.22643  -5730919.32242  24202693.030    24202689.778
  20542379.748   -28722995.31644 -22338537.05842  20542381.896    20542375.790
  20281215.046   -30606984.09144 -23824941.90642  20281216.535    20281211.838
  21344534.674   -22833973.72743 -17773856.67342  21344536.011    21344531.972
 03  3 26  0 26  0.0000000  0  8G31G 3G14G23G26G18G15G17
  24137632.272    -2575880.80943  -1997041.25142  24137634.632    24137631.999
  22141994.881   -19233540.72643 -14943453.46042  22141997.117    22141993.112
  22603186.221   -14862916.12243 -11562610.44742  22603189.052    22603185.262
  21326379.436   -22389776.12943 -17438056.81042  21326381.448    21326376.656
  24222920.075    -7301887.82943  -5648082.44142  24222922.641    24222919.274
  20547026.088   -28698578.78844 -22319511.19642  20547028.220    20547022.122
  20279405.789   -30616491.76044 -23832350.47442  20279407.270    20279402.595
  21352131.607   -22794051.67143 -17742748.60942  21352132.932    21352128.923
 03  3 26  0 26 30.0000000  0  8G31G 3G14G23G26G18G15G17
  24120452.137    -2666163.11043  -2067391.04242  24120454.450    24120451.706
  22132151.753   -19285266.67743 -14983759.37042  22132153.962    22132149.955
  22583837.697   -14964593.17643 -11641839.20142  22583840.429    22583836.644
  21334879.069   -22345110.26143 -17403252.25242  21334881.079    21334876.300
  24243195.672    -7195338.98543  -5565057.40842  24243198.124    24243194.958
  20551726.539   -28673877.73144 -22300263.62342  20551728.673    20551722.582
  20277655.413   -30625690.01944 -23839517.94542  20277656.889    20277652.214
  21359783.905   -22753838.90943 -17711414.02542  21359785.202    21359781.182
 03  3 26  0 27  0.0000000  0  8G31G 3G14G23G26G18G15G17
  24103326.085    -2756160.92843  -2137519.12942  24103328.385    24103325.603
  22122397.322   -19336526.41343 -15023701.99842  22122399.555    22122395.526
  22564532.760   -15066040.55843 -11720888.97542  22564535.532    22564531.693
  21343406.168   -22300300.04643 -17368335.21342  21343408.157    21343403.409
  24263512.761    -7088571.97743  -5481862.37842  24263515.260    24263512.091
  20556477.040   -28648913.76444 -22280811.18442  20556479.154    20556473.067
  20275960.237   -30634597.99444 -23846459.22242  20275961.740    20275957.098
  21367487.819   -22713354.66743 -17679867.89042  21367489.138    21367485.111
 03  3 26  0 27 30.0000000  0  8G31G 3G14G23G26G18G15G17
  24086262.528    -2845829.89143  -2207390.99142  24086264.843    24086262.075
  22112739.913   -19387276.36143 -15063247.39642  22112742.106    22112738.107
  22545280.020   -15167213.78243 -11799725.13342  22545282.803    22545278.940
  21351968.460   -22255305.05943 -17333274.20242  21351970.431    21351965.714
  24283878.774    -6981547.90843  -5398467.03742  24283881.312    24283878.120
  20561285.251   -28623646.42244 -22261122.35242  20561287.373    20561281.283
  20274328.566   -30643172.55044 -23853140.69042  20274330.038    20274325.421
  21375251.419   -22672556.73843 -17648077.32942  21375252.719    21375248.731
 03  3 26  0 28  0.0000000  0  8G31G 3G14G23G26G18G15G17
  24069261.393    -2935170.93643  -2277007.32842  24069263.765    24069260.976
  22103179.210   -19437518.25243 -15102396.90842  22103181.399    22103177.364
  22526079.267   -15268113.92243 -11878348.49842  22526082.030    22526078.205
  21360564.930   -22210130.42343 -17298073.20142  21360566.896    21360562.168
  24304292.341    -6874273.62243  -5314876.72042  24304294.888    24304291.744
  20566150.292   -28598080.53744 -22241200.88742  20566152.394    20566146.322
  20272759.835   -30651416.39144 -23859564.46142  20272761.304    20272756.685
  21383074.040   -22631448.63843 -17616045.07242  21383075.362    21383071.336
 03  3 26  0 28 30.0000000  0  8G31G 3G14G23G26G18G15G17
  24052318.694    -3024205.76143  -2346385.04442  24052321.014    24052318.220
  22093710.925   -19487274.42543 -15141167.94442  22093713.130    22093709.056
  22506926.482   -15368762.23643 -11956775.64442  22506929.210    22506925.354
  21369190.723   -22164801.65743 -17262752.10042  21369192.681    21369187.968
  24324748.436    -6766776.13643  -5231112.47542  24324750.958    24324747.823
  20571067.265   -28572241.56744 -22221066.63142  20571069.396    20571063.311
  20271249.672   -30659352.41644 -23865748.37542  20271251.153    20271246.497
  21390951.242   -22590053.82543 -17583789.40342  21390952.525    21390948.527
 03  3 26  0 29  0.0000000  0  8G31G 3G14G23G26G18G15G17
  24035433.969    -3112935.44443  -2415524.98642  24035436.150    24035433.418
  22084334.619   -19536547.35843 -15179562.42842  22084336.815    22084332.702
  22487821.289   -15469160.25143 -12035007.75442  22487824.002    22487820.129
  21377844.815   -22119324.12843 -17227315.07842  21377846.818    21377842.059
  24345245.706    -6659062.31743  -5147179.65742  24345248.213    24345245.134
  20576035.180   -28546135.01444 -22200723.86642  20576037.319    20576031.215
  20269797.546   -30666983.36844 -23871694.57442  20269799.041    20269794.341
  21398882.465   -22548375.08343 -17551312.49042  21398883.746    21398879.760
 03  3 26  0 29 30.0000000  0  8G31G 3G14G23G26G18G15G17
  24018609.031    -3201350.61343  -2484419.84742  24018611.267    24018608.475
  22075051.891   -19585328.47643 -15217573.68042  22075054.059    22075049.974
  22468765.539   -15569298.22043 -12113037.22842  22468768.281    22468764.372
  21386528.286   -22073692.38243 -17191757.88842  21386530.261    21386525.522
  24365784.869    -6551128.56243  -5063075.46442  24365787.340    24365784.237
  20581055.096   -28519755.19044 -22180168.16642  20581057.241    20581051.136
  20268404.972   -30674301.33444 -23877396.88142  20268406.472    20268401.758
  21406868.949   -22506405.85843 -17518609.22642  21406870.270    21406866.279
 03  3 26  0 30  0.0000000  0  8G31G 3G14G23G26G18G15G17
  24001848.316    -3289428.40943  -2553051.81342  24001850.635    24001847.757
  22065866.833   -19633595.90543 -15255184.65542  22065869.040    22065864.986
  22449763.667   -15669153.20443 -12190846.19642  22449766.414    22449762.483
  21395244.679   -22027887.49443 -17156065.78142  21395246.653    21395241.923
  24386369.211    -6442957.35543  -4978786.23842  24386371.762    24386368.589
  20586130.646   -28493083.10244 -22159384.73042  20586132.775    20586126.700
  20267075.979   -30681285.26344 -23882838.90242  20267077.480    20267072.780
  21414914.698   -22464125.31143 -17485663.37842  21414916.014    21414912.023
 03  3 26  0 30 30.0000000  0  8G31G 3G14G23G26G18G15G17
  23985150.580    -3377175.02443  -2621425.72742  23985153.027    23985150.093
  22056778.369   -19681356.41343 -15292400.63742  22056780.487    22056776.448
  22430814.485   -15768731.52443 -12268439.59042  22430817.225    22430813.264
  21403992.039   -21981919.73043 -17120246.76442  21403994.018    21403989.325
  24406996.499    -6334560.46143  -4894321.15342  24406999.015    24406995.861
  20591259.867   -28466128.82644 -22138381.40542  20591262.020    20591255.915
  20265809.146   -30687942.57944 -23888026.42142  20265810.640    20265805.923
  21423018.176   -22421541.37543 -17452481.12042  21423019.496    21423015.504
 03  3 26  0 31  0.0000000  0  7G31G 3G14G23G18G15G17
  23968515.976    -3464589.71843  -2689540.99142  23968518.487    23968515.541
  22047786.155   -19728610.73443 -15329222.17942  22047788.265    22047784.217
  22411918.073   -15868032.35743 -12345816.75142  22411920.825    22411916.822
  21412769.779   -21935792.42043 -17084303.42042  21412771.749    21412767.079
  20596442.156   -28438895.78644 -22117160.86042  20596444.312    20596438.192
  20264604.261   -30694274.27644 -23892960.21042  20264605.766    20264601.045
  21431179.139   -22378655.41343 -17419063.51942  21431180.442    21431176.446
 03  3 26  0 31 30.0000000  0  7G31G 3G14G23G18G15G17
  23951942.626    -3551682.94243  -2757405.76042  23951945.118    23951942.162
  22038888.190   -19775369.92143 -15365657.91142  22038890.294    22038886.213
  22393072.494   -15967066.01043 -12422985.71742  22393075.272    22393071.252
  21421575.150   -21889519.94843 -17048246.96542  21421577.123    21421572.468
  20601674.833   -28411398.12244 -22095734.11542  20601676.957    20601670.827
  20263459.130   -30700292.06944 -23897649.39842  20263460.620    20263455.881
  21439395.082   -22335480.52643 -17385420.78142  21439396.351    21439392.388
 03  3 26  0 32  0.0000000  0  7G31G 3G14G23G18G15G17
  23935432.130    -3638445.79243  -2825013.08742  23935434.646    23935431.596
  22030085.939   -19821625.99943 -15401701.60842  22030088.050    22030083.970
  22374279.410   -16065823.78043 -12499939.71742  22374282.210    22374278.173
  21430409.081   -21843097.42443 -17012073.58442  21430411.062    21430406.373
  20606958.770   -28383630.89544 -22074097.32742  20606960.899    20606954.755
  20262375.120   -30705988.59644 -23902088.25442  20262376.617    20262371.870
  21447667.314   -22292009.69643 -17351547.44142  21447668.596    21447664.675
 03  3 26  0 32 30.0000000  0  7G31G 3G14G23G18G15G17
  23918989.017    -3724854.66243  -2892344.58742  23918991.522    23918988.592
  22021383.765   -19867356.14943 -15437335.49242  22021385.891    22021381.798
  22355543.392   -16164281.84643 -12576660.17042  22355546.149    22355542.117
  21439275.302   -21796505.12743 -16975767.91042  21439277.294    21439272.591
  20612297.802   -28355574.16344 -22052234.94842  20612299.893    20612293.780
  20261356.430   -30711341.83444 -23906259.60742  20261357.925    20261353.164
  21456000.079   -22248221.11143 -17317426.49642  21456001.338    21455997.437
 03  3 26  0 33  0.0000000  0  7G31G 3G14G23G18G15G17
  23902607.291    -3810940.76743  -2959424.59142  23902609.784    23902606.989
  22012775.435   -19912593.07143 -15472585.03542  22012777.563    22012773.512
  22336858.430   -16262471.35943 -12653171.36742  22336861.180    22336857.159
  21448167.137   -21749778.13343 -16939357.28442  21448169.146    21448164.461
  20617685.184   -28327263.26444 -22030174.52142  20617687.291    20617681.177
  20260396.912   -30716384.24544 -23910188.76242  20260398.377    20260393.625
  21464386.826   -22204148.44343 -17283084.18942  21464388.101    21464384.241
 03  3 26  0 33 30.0000000  0  7G31G 3G14G23G18G15G17
  23886289.436    -3896691.09143  -3026242.94042  23886291.863    23886289.151
  22004263.333   -19957324.55843 -15507440.73642  22004265.414    22004261.386
  22318227.093   -16360379.24443 -12729463.11642  22318229.861    22318225.786
  21457086.348   -21702907.39043 -16902834.64142  21457088.339    21457083.668
  20623122.683   -28298689.03744 -22007908.90142  20623124.799    20623118.677
  20259498.699   -30721104.41044 -23913866.81642  20259500.172    20259495.375
  21472829.712   -22159780.81243 -17248512.03942  21472830.965    21472827.147
 03  3 26  0 34  0.0000000  0  7G31G 3G14G23G18G15G17
  23870036.370    -3982101.34443  -3092796.29542  23870038.770    23870036.091
  21995847.986   -20001547.47643 -15541900.14142  21995850.069    21995846.070
  22299650.199   -16458001.18043 -12805532.05142  22299652.972    22299648.854
  21466032.993   -21655892.45843 -16866199.64342  21466034.986    21466030.346
  20628610.293   -28269851.33644 -21985437.98042  20628612.433    20628606.319
  20258662.319   -30725499.54744 -23917291.60642  20258663.797    20258658.996
  21481329.234   -22115115.84343 -17213708.20642  21481330.470    21481326.642
 03  3 26  0 34 30.0000000  0  7G31G 3G14G23G18G15G17
  23853847.275    -4067175.73243  -3159087.96942  23853849.637    23853846.862
  21987528.466   -20045266.87043 -15575967.18542  21987530.535    21987526.545
  22281126.915   -16555341.34443 -12881381.42542  22281129.686    22281125.541
  21475005.534   -21608741.55843 -16829458.69342  21475007.533    21475002.888
  20634146.614   -28240757.85744 -21962767.74742  20634148.748    20634142.674
  20257886.742   -30729575.17744 -23920467.42842  20257888.244    20257883.441
  21489884.065   -22070159.98743 -17178677.70342  21489885.310    21489881.481
 03  3 26  0 35  0.0000000  0  7G31G 3G14G23G18G15G17
  23837727.619    -4151884.66943  -3225094.85142  23837729.928    23837727.165
  21979310.137   -20088454.38043 -15609619.77942  21979312.233    21979308.222
  22262662.878   -16652370.23843 -12956988.25442  22262665.636    22262661.443
  21484008.777   -21561429.13943 -16792591.88942  21484010.782    21484006.145
  20639736.487   -28211382.99344 -21939878.25342  20639738.602    20639732.546
  20257177.328   -30733303.46944 -23923372.59842  20257178.772    20257173.988
  21498499.406   -22024886.25843 -17143399.51842  21498500.655    21498496.782
 03  3 26  0 35 30.0000000  0  7G31G 3G14G23G18G15G17
  23821673.016    -4236252.21343  -3290835.72542  23821675.260    23821672.462
  21971188.320   -20131135.00543 -15642877.39442  21971190.386    21971186.350
  22244253.445   -16749111.78443 -13032371.18442  22244256.225    22244252.038
  21493037.478   -21513983.02443 -16755620.90642  21493039.496    21493034.831
  20645374.591   -28181754.51544 -21916791.13942  20645376.733    20645370.686
  20256529.081   -30736709.96744 -23926027.01642  20256530.549    20256525.780
  21507170.372   -21979320.29443 -17107893.60642  21507171.633    21507167.720
 03  3 26  0 36  0.0000000  0  7G31G 3G14G23G18G15G17
  23805690.156    -4320242.44243  -3356282.57242  23805692.402    23805689.621
  21963169.495   -20173274.17543 -15675713.09242  21963171.592    21963167.521
  22225905.576   -16845530.05443 -13107502.20642  22225908.353    22225904.142
  21502097.723   -21466371.18343 -16718520.78542  21502099.728    21502095.038
  20651067.060   -28151840.53344 -21893481.55242  20651069.194    20651063.150
  20255948.629   -30739760.19944 -23928403.82842  20255950.081    20255945.352
  21515903.347   -21933428.34343 -17072133.67742  21515904.636    21515900.696
 03  3 26  0 36 30.0000000  0  7G31G 3G14G23G18G15G17
  23789770.933    -4403898.11443  -3421468.73142  23789773.128    23789770.402
  21955245.355   -20214915.58243 -15708160.92242  21955247.507    21955243.404
  22207611.132   -16941667.72743 -13182414.59342  22207613.857    22207609.656
  21511180.614   -21418640.26443 -16681327.87942  21511182.638    21511177.922
  20656804.956   -28121687.74644 -21869985.88542  20656807.082    20656801.039
  20255427.558   -30742498.32644 -23930537.44242  20255429.021    20255424.322
  21524689.795   -21887255.31743 -17036154.73042  21524691.094    21524687.132
 03  3 26  0 37  0.0000000  0  7G31G 3G14G23G18G15G17
  23773918.381    -4487203.72743  -3486382.12742  23773920.557    23773917.771
  21947418.706   -20256044.68943 -15740209.54742  21947420.875    21947416.772
  22189373.046   -17037509.25443 -13257096.21442  22189375.752    22189371.511
  21520288.404   -21370778.69943 -16644033.16742  21520290.411    21520285.680
  20662590.526   -28091284.49644 -21846295.04842  20662592.630    20662586.611
  20254968.583   -30744910.28644 -23932416.89742  20254970.032    20254965.330
  21533532.170   -21840788.33743 -16999946.72442  21533533.469    21533529.538
 03  3 26  0 37 30.0000000  0  7G31G 3G14G23G18G15G17
  23758133.663    -4570152.41543  -3551017.40242  23758135.891    23758133.115
  21939690.601   -20296656.01043 -15771854.71242  21939692.782    21939688.678
  22171192.603   -17133047.90243 -13331541.83342  22171195.290    22171191.017
  21529421.635   -21322783.42443 -16606634.26642  21529423.640    21529418.885
  20668424.383   -28060627.44844 -21822406.44542  20668426.484    20668420.445
  20254572.711   -30746990.62044 -23934037.94042  20254574.172    20254569.471
  21542431.515   -21794022.29243 -16963505.68542  21542432.778    21542428.852
 03  3 26  0 38  0.0000000  0  7G31G 3G14G23G18G15G17
  23742420.242    -4652726.80343  -3615361.01342  23742422.538    23742419.699
  21932064.177   -20336732.98943 -15803083.49542  21932066.370    21932062.244
  22153073.132   -17228266.01543 -13405737.68542  22153075.835    22153071.526
  21538582.878   -21274640.73143 -16569120.49642  21538584.913    21538580.151
  20674309.067   -28029703.23444 -21798309.65842  20674311.207    20674305.124
  20254242.989   -30748723.37244 -23935388.14242  20254244.455    20254239.746
  21551390.628   -21746941.94143 -16926819.74242  21551391.897    21551387.978
 03  3 26  0 38 30.0000000  0  7G31G 3G14G23G18G15G17
  23726777.846    -4734927.73443  -3679413.61842  23726780.131    23726777.254
  21924539.042   -20376277.90643 -15833897.69642  21924541.212    21924537.056
  22135014.508   -17323164.55743 -13479684.52542  22135017.218    22135012.875
  21547771.285   -21226355.44743 -16531495.62142  21547773.285    21547768.547
  20680243.717   -27998516.52944 -21774008.33342  20680245.844    20680239.734
  20253978.915   -30750111.04744 -23936469.45142  20253980.391    20253975.678
  21560408.904   -21699550.52143 -16889891.40042  21560410.190    21560406.298
 03  3 26  0 39  0.0000000  0  7G31G 3G14G23G18G15G17
  23711203.440    -4816771.68443  -3743188.04542  23711205.687    23711202.774
  21917111.770   -20415308.25643 -15864310.92042  21917113.959    21917109.788
  22117013.476   -17417760.12843 -13553395.28342  22117016.185    22117011.842
  21556982.972   -21177947.86543 -16493775.44642  21556984.964    21556980.231
  20686224.449   -27967087.54044 -21749518.21742  20686226.570    20686220.489
  20253777.168   -30751171.49044 -23937295.77242  20253778.587    20253773.875
  21569482.876   -21651866.60243 -16852735.14442  21569484.132    21569480.295
 03  3 26  0 39 30.0000000  0  7G31G 3G14G23G18G15G17
  23695703.027    -4898226.45643  -3806659.21642  23695705.324    23695702.309
  21909788.360   -20453792.91143 -15894298.93442  21909790.542    21909786.369
  22099076.306   -17512020.25543 -13626844.65042  22099079.008    22099074.637
  21566223.353   -21129389.50043 -16455937.77542  21566225.351    21566220.603
  20692256.682   -27935387.87744 -21724817.18842  20692258.818    20692252.737
  20253643.501   -30751873.88144 -23937843.08942  20253644.944    20253640.214
  21578618.309   -21603859.64943 -16815327.16642  21578619.568    21578615.770
 03  3 26  0 40  0.0000000  0  7G31G 3G14G23G18G15G17
  23680271.736    -4979318.20443  -3869847.52042  23680274.028    23680271.002
  21902563.582   -20491759.27243 -15923883.07942  21902565.764    21902561.583
  22081197.989   -17605971.20943 -13700053.10842  22081200.644    22081196.281
  21575486.725   -21080710.24143 -16418005.90342  21575488.708    21575483.991
  20698334.717   -27903447.57844 -21699928.65042  20698336.862    20698330.760
  20253572.735   -30752245.60044 -23938132.74142  20253574.203    20253569.458
  21587809.802   -21555558.38043 -16777689.85142  21587811.050    21587807.234
 03  3 26  0 40 30.0000000  0  7G31G 3G14G23G18G15G17
  23664918.514    -5059999.68543  -3932716.14542  23664920.792    23664917.694
  21895446.170   -20529161.46943 -15953027.61742  21895448.350    21895444.154
  22063387.503   -17699565.65343 -13772983.76442  22063390.174    22063385.775
  21584781.384   -21031866.60143 -16379945.93442  21584783.373    21584778.642
  20704466.814   -27871223.17144 -21674818.73042  20704468.955    20704462.857
  20253573.560   -30752241.26144 -23938129.36142  20253575.000    20253570.280
  21597065.759   -21506917.93443 -16739788.23842  21597067.055    21597063.263
 03  3 26  0 41  0.0000000  0  7G31G 3G14G23G18G15G17
  23649634.791    -5140316.51343  -3995300.62242  23649636.936    23649633.798
  21888427.256   -20566046.12643 -15981768.88042  21888429.435    21888425.196
  22045636.168   -17792849.19843 -13845672.16042  22045638.841    22045634.420
  21594097.924   -20982907.90043 -16341796.31242  21594099.923    21594095.174
  20710643.609   -27838763.88844 -21649525.78942  20710645.776    20710639.650
  20253637.011   -30751907.75744 -23937869.49042  20253638.490    20253633.766
  21606377.290   -21457985.81043 -16701659.35242  21606378.538    21606374.773
 03  3 26  0 41 30.0000000  0  7G31G 3G14G23G18G15G17
  23634422.989    -5220254.64343  -4057589.99142  23634425.203    23634422.076
  21881509.200   -20602400.56643 -16010096.98342  21881511.398    21881507.156
  22027946.628   -17885807.92543 -13918107.44942  22027949.350    22027944.887
  21603438.294   -20933823.87743 -16303549.04042  21603440.288    21603435.593
  20716867.064   -27806059.44144 -21624041.81042  20716869.233    20716863.109
  20253765.472   -30751232.63544 -23937343.42042  20253766.965    20253762.231
  21615746.517   -21408750.36943 -16663294.10642  21615747.770    21615744.005
 03  3 26  0 42  0.0000000  0  7G31G 3G14G23G18G15G17
  23619280.903    -5299826.46143  -4119593.91842  23619283.150    23619279.949
  21874689.521   -20638238.28143 -16038022.45042  21874691.695    21874687.419
  22010316.587   -17978454.06643 -13990299.16642  22010319.297    22010314.791
  21612799.459   -20884630.67043 -16265216.68742  21612801.459    21612796.783
  20723134.051   -27773126.10144 -21598379.47942  20723136.239    20723130.104
  20253956.392   -30750229.45544 -23936561.72142  20253957.863    20253953.151
  21625170.819   -21359225.44943 -16624703.29542  21625172.087    21625168.330
 03  3 26  0 42 30.0000000  0  7G31G 3G14G23G18G15G17
  23604211.198    -5379017.72043  -4181301.33242  23604213.572    23604210.372
  21867970.558   -20673546.53543 -16065535.34642  21867972.740    21867968.461
  21992748.753   -18070773.30443 -14062236.15242  21992751.459    21992746.947
  21622183.402   -20835317.75243 -16226791.05342  21622185.402    21622180.744
  20729446.613   -27739953.47044 -21572530.68642  20729448.774    20729442.656
  20254212.118   -30748885.64544 -23935514.59742  20254213.601    20254208.872
  21634652.439   -21309399.23443 -16585877.71142  21634653.717    21634649.978
 03  3 26  0 43  0.0000000  0  7G31G 3G14G23G18G15G17
  23589218.356    -5457805.84143  -4242694.61442  23589220.682    23589217.282
  21861356.390   -20708303.90243 -16092618.98542  21861358.599    21861354.344
  21975247.462   -18162742.98943 -14133900.75842  21975250.151    21975245.619
  21631593.765   -20785866.02143 -16188257.25042  21631595.752    21631591.112
  20735808.364   -27706522.42744 -21546480.53642  20735810.494    20735804.385
  20254536.701   -30747179.95144 -23934185.48842  20254538.188    20254533.460
  21644195.175   -21259251.92943 -16546801.93542  21644196.456    21644192.724
 03  3 26  0 43 30.0000000  0  7G31G 3G14G23G18G15G17
  23574296.810    -5536219.05043  -4303795.73942  23574299.111    23574295.756
  21854841.513   -20742539.62643 -16119296.14742  21854843.734    21854839.484
  21957807.287   -18254391.43243 -14205315.04042  21957809.978    21957805.429
  21641024.457   -20736307.42743 -16149640.18042  21641026.437    21641021.805
  20742213.171   -27672864.96144 -21520253.95042  20742215.299    20742209.218
  20254924.520   -30745141.87344 -23932597.37642  20254926.015    20254921.314
  21653793.336   -21208813.34343 -16507499.17942  21653794.634    21653790.905
 03  3 26  0 44  0.0000000  0  7G31G 3G14G23G18G15G17
  23559446.880    -5614255.30143  -4364603.12842  23559449.286    23559445.920
  21848426.051   -20776253.15843 -16145566.41142  21848428.238    21848423.994
  21940428.644   -18345716.56243 -14276477.39642  21940431.327    21940426.759
  21650475.156   -20686643.70143 -16110941.18842  21650477.143    21650472.512
  20748660.678   -27638982.97944 -21493852.41742  20748662.839    20748656.747
  20255375.681   -30742770.99644 -23930749.94142  20255377.168    20255372.486
  21663446.914   -21158083.59643 -16467969.53742  21663448.207    21663444.462
 03  3 26  0 44 30.0000000  0  7G31G 3G14G23G18G15G17
  23544674.745    -5691883.09043  -4425092.24942  23544677.116    23544673.781
  21842115.720   -20809414.08143 -16171406.07242  21842117.899    21842113.663
  21923117.529   -18436686.73343 -14347363.16542  21923120.221    21923115.617
  21659951.156   -20636847.00643 -16072138.58642  21659953.157    21659948.531
  20755156.213   -27604848.57944 -21467254.19342  20755158.397    20755152.309
  20255895.931   -30740037.05344 -23928619.60242  20255897.413    20255892.751
  21673161.408   -21107033.74843 -16428190.47342  21673162.701    21673158.923
 03  3 26  0 45  0.0000000  0  7G31G 3G14G23G18G15G17
  23529983.273    -5769087.07243  -4485251.13442  23529985.589    23529982.243
  21835913.199   -20842008.44143 -16196804.26142  21835915.380    21835911.148
  21905876.869   -18527286.73143 -14417960.49142  21905879.550    21905874.914
  21669454.670   -20586905.64243 -16033223.25742  21669456.704    21669452.074
  20761702.092   -27570449.81744 -21440449.97842  20761704.265    20761698.185
  20256487.955   -30736926.00644 -23926195.41442  20256489.440    20256484.767
  21682939.404   -21055650.12343 -16388151.32242  21682940.679    21682936.919
 03  3 26  0 45 30.0000000  0  8G31G 3G14G23G 9G18G15G17
  23515365.318    -5845904.13643  -4545108.53342  23515367.744    23515364.386
  21829811.180   -20874074.53343 -16221790.81042  21829813.385    21829809.151
  21888699.653   -18617553.30743 -14488298.00642  21888702.367    21888697.679
  21678978.054   -20536859.99643 -15994226.66942  21678980.069    21678975.471
  23862460.190
  20768290.526   -27535827.39444 -21413471.47442  20768292.710    20768286.613
  20257144.454   -30733476.10444 -23923507.18642  20257145.940    20257141.273
  21692773.490   -21003971.74243 -16347882.48842  21692774.754    21692771.021
 03  3 26  0 46  0.0000000  0  8G31G 3G14G23G 9G18G15G17
  23500822.990    -5922324.71243  -4604656.96142  23500825.443    23500822.051
  21823811.297   -20905604.08143 -16246359.28242  21823813.461    21823809.256
  21871587.676   -18707477.08443 -14558368.41342  21871590.360    21871585.669
  21688522.392   -20486704.10743 -15955144.18142  21688524.414    21688519.850
  23853886.251    -1309000.40853  -1003088.94852  23853886.150    23853884.206
  20774922.639   -27500975.41644 -21386314.09942  20774924.827    20774918.753
  20257866.914   -30729679.45144 -23920548.76642  20257868.397    20257863.743
  21702665.050   -20951991.42943 -16307378.38042  21702666.317    21702662.595
 03  3 26  0 46 30.0000000  0  8G31G 3G14G23G 9G18G15G17
  23486355.603    -5998351.47943  -4663898.54042  23486357.942    23486354.590
  21817912.765   -20936601.15043 -16270512.82842  21817914.898    21817910.667
  21854540.447   -18797060.50643 -14628173.60442  21854543.144    21854538.428
  21698086.528   -20436444.29343 -15915980.70742  21698088.561    21698083.997
  23845393.271    -1353626.78543  -1037862.70142  23845394.869    23845392.181
  20781597.229   -27465900.21544 -21358982.78242  20781599.406    20781593.357
  20258654.600   -30725540.23344 -23917323.41142  20258656.069    20258651.396
  21712613.192   -20899713.83443 -16266642.62442  21712614.446    21712610.735
 03  3 26  0 47  0.0000000  0  8G31G 3G14G23G 9G18G15G17
  23471966.315    -6073967.76943  -4722820.27542  23471968.580    23471965.218
  21812118.462   -20967050.37243 -16294239.48142  21812120.587    21812116.342
  21837561.164   -18886287.00143 -14697700.67442  21837563.848    21837559.114
  21707672.966   -20386067.34243 -15876725.95742  21707675.001    21707670.440
  23836981.603    -1397826.83743  -1072304.23742  23836984.085    23836980.978
  20788316.810   -27430588.59044 -21331467.24042  20788318.971    20788312.940
  20259510.376   -30721043.13644 -23913819.18942  20259511.852    20259507.163
  21722620.654   -20847124.39143 -16225663.87942  21722621.917    21722618.228
 03  3 26  0 47 30.0000000  0  8G31G 3G14G23G 9G18G15G17
  23457660.840    -6149143.37443  -4781398.61842  23457663.055    23457659.677
  21806433.901   -20996922.88643 -16317516.75942  21806436.012    21806431.774
  21820655.514   -18975126.55143 -14766926.22442  21820658.194    21820653.434
  21717286.736   -20335546.69543 -15837359.23742  21717288.748    21717284.209
  23828657.510    -1441570.02643  -1106389.77242  23828660.024    23828656.986
  20795086.376   -27395014.25544 -21303746.99042  20795088.548    20795082.512
  20260439.724   -30716159.42944 -23910013.71942  20260441.203    20260436.508
  21732692.753   -20794195.18243 -16184420.38742  21732694.035    21732690.372
 03  3 26  0 48  0.0000000  0  8G31G 3G14G23G 9G18G15G17
  23443429.579    -6223928.41543  -4839672.62542  23443431.794    23443428.495
  21800849.322   -21026270.12343 -16340384.72742  21800851.384    21800847.163
  21803814.017   -19063629.01543 -14835889.11542  21803816.669    21803811.900
  21726917.692   -20284935.80143 -15797922.19542  21726919.709    21726915.129
  23820410.919    -1484905.85043  -1140157.87742  23820413.436    23820410.597
  20801895.790   -27359230.73644 -21275863.73842  20801897.919    20801891.878
  20261432.880   -30710940.41344 -23905946.96442  20261434.350    20261429.659
  21742819.625   -20740978.36243 -16142952.77842  21742820.906    21742817.234
 03  3 26  0 48 30.0000000  0  8G31G 3G14G23G 9G18G15G17
  23429273.480    -6298318.53043  -4897638.87642  23429275.699    23429272.517
  21795365.179   -21055089.25643 -16362841.18642  21795367.273    21795363.062
  21787037.488   -19151789.91343 -14904585.85442  21787040.167    21787035.360
  21736565.946   -20234233.87843 -15758414.21542  21736567.977    21736563.390
  23812242.573    -1527829.94343  -1173605.14542  23812245.155    23812242.320
  20808745.154   -27323237.24444 -21247816.87242  20808747.284    20808741.216
  20262490.414   -30705383.05844 -23901616.57042  20262491.899    20262487.196
  21753001.686   -20687471.51543 -16101259.17542  21753002.963    21752999.274
 03  3 26  0 49  0.0000000  0  8G31G 3G14G23G 9G18G15G17
  23415202.300    -6372262.40943  -4955257.41442  23415204.580    23415201.361
  21789991.053   -21083330.50143 -16384847.34642  21789993.139    21789988.928
  21770335.696   -19239558.11443 -14972976.59042  21770338.377    21770333.564
  21746240.668   -20183393.08343 -15718798.02542  21746242.668    21746238.082
  23804162.568    -1570290.58743  -1206691.30642  23804165.107    23804162.390
  20815643.523   -27286986.25644 -21219569.36042  20815645.645    20815639.560
  20263621.844   -30699437.38744 -23896983.58842  20263623.321    20263618.626
  21763248.213   -20633625.88943 -16059301.59142  21763249.482    21763245.801
 03  3 26  0 49 30.0000000  0  8G31G 3G14G23G 9G18G15G17
  23401211.745    -6445783.17943  -5012546.26842  23401214.035    23401210.655
  21784722.286   -21111018.06343 -16406422.06242  21784724.381    21784720.151
  21753704.257   -19326956.53943 -15041079.19242  21753706.944    21753702.133
  21755936.717   -20132440.12543 -15679094.43342  21755938.720    21755934.088
  23796166.392    -1612310.68343  -1239434.18742  23796168.909    23796166.132
  20822585.823   -27250504.32444 -21191141.89442  20822587.949    20822581.874
  20264822.473   -30693128.00244 -23892067.19342  20264823.960    20264819.258
  21773554.419   -20579466.66643 -16017099.64242  21773555.671    21773551.982
 03  3 26  0 50  0.0000000  0  8G31G 3G14G23G 9G18G15G17
  23387300.216    -6518888.58143  -5069511.45242  23387302.514    23387299.132
  21779557.110   -21138161.24843 -16427572.59342  21779559.215    21779554.961
  21737141.719   -19413993.11543 -15108899.82642  21737144.397    21737139.571
  21765651.922   -20081386.23043 -15639312.18342  21765653.956    21765649.322
  23788252.546    -1653897.93943  -1271839.76842  23788255.051    23788252.272
  20829569.904   -27213802.76044 -21162543.28442  20829572.030    20829565.973
  20266090.615   -30686463.97344 -23886874.45242  20266092.107    20266087.385
  21783918.399   -20525003.57143 -15974660.91242  21783919.680    21783916.003
 03  3 26  0 50 30.0000000  0  8G31G 3G14G23G 9G18G15G17
  23373468.346    -6591575.77143  -5126150.75742  23373470.607    23373467.206
  21774495.770   -21164758.70543 -16448297.87942  21774497.871    21774493.636
  21720648.560   -19500664.89243 -15176436.20642  21720651.249    21720646.430
  21775386.308   -20030231.76643 -15599451.57442  21775388.317    21775383.710
  23780421.573    -1695049.21943  -1303905.61042  23780424.120    23780421.441
  20836595.640   -27176882.31544 -21133774.11942  20836597.775    20836591.701
  20267426.534   -30679443.82244 -23881404.21442  20267428.017    20267423.288
  21794340.341   -20470236.09543 -15931985.00542  21794341.607    21794337.955
 03  3 26  0 51  0.0000000  0  8G31G 3G14G23G 9G18G15G17
  23359717.226    -6663838.06243  -5182458.95742  23359719.487    23359716.109
  21769539.219   -21190805.31543 -16468593.92842  21769541.357    21769537.132
  21704226.069   -19586965.33043 -15243683.22642  21704228.788    21704223.936
  21785140.431   -19978973.51743 -15559510.09642  21785142.452    21785137.860
  23772674.980    -1735757.52443  -1335626.30442  23772677.568    23772674.737
  20843663.613   -27139739.79744 -21104831.90842  20843665.769    20843659.678
  20268831.213   -30672062.38344 -23875652.45442  20268832.676    20268827.931
  21804821.074   -20415159.70543 -15889068.38142  21804822.339    21804818.696
 03  3 26  0 51 30.0000000  0  8G31G 3G14G23G 9G18G15G17
  23346052.300    -6735647.51543  -5238414.31042  23346054.554    23346051.115
  21764692.597   -21216274.28843 -16488439.87342  21764694.738    21764690.519
  21687879.655   -19672866.18543 -15310618.89342  21687882.334    21687877.477
  21794919.002   -19927586.88543 -15519468.58342  21794921.038    21794916.441
  23765018.115    -1775994.52443  -1366979.72342  23765020.619    23765017.890
  20850778.563   -27102350.63544 -21075697.50542  20850780.714    20850774.603
  20270309.704   -30664292.83644 -23869598.27442  20270311.175    20270306.444
  21815365.538   -20359748.43043 -15845890.80342  21815366.802    21815363.141
 03  3 26  0 52  0.0000000  0  8G31G 3G14G23G 9G18G15G17
  23332464.014    -6807054.24143  -5294055.84642  23332466.302    23332462.747
  21759946.149   -21241217.14443 -16507875.85842  21759948.260    21759944.038
  21671599.654   -19758417.85143 -15377282.45542  21671602.318    21671597.462
  21804711.802   -19876125.45343 -15479368.77742  21804713.816    21804709.246
  23757441.372    -1815810.28443  -1398004.92742  23757443.884    23757441.022
  20857930.219   -27064768.51244 -21046412.74442  20857932.360    20857926.235
  20271852.254   -30656186.75444 -23863281.85542  20271853.717    20271848.977
  21825963.751   -20304054.53943 -15802493.00942  21825965.016    21825961.392
 03  3 26  0 52 30.0000000  0  8G31G 3G14G23G 9G18G15G17
  23318961.092    -6878012.02143  -5349347.55742  23318963.438    23318959.830
  21755308.268   -21265589.30543 -16526867.14242  21755310.386    21755306.176
  21655394.946   -19843573.87843 -15443637.74142  21655397.606    21655392.742
  21814527.034   -19824546.26343 -15439177.21442  21814529.048    21814524.468
  23749953.632    -1855158.19643  -1428665.55342  23749956.138    23749953.399
  20865126.732   -27026950.64144 -21016944.28642  20865128.879    20865122.745
  20273467.393   -30647699.27744 -23856668.24742  20273468.855    20273464.097
  21836624.143   -20248033.87143 -15758840.58542  21836625.384    21836621.833
 03  3 26  0 53  0.0000000  0  8G31G 3G14G23G 9G18G15G17
  23305539.173    -6948544.41743  -5404307.79642  23305541.471    23305537.925
  21750774.162   -21289416.01143 -16545433.39642  21750776.291    21750772.108
  21639261.040   -19928357.81943 -15509703.08942  21639263.708    21639258.823
  21824359.530   -19772876.32743 -15398914.93842  21824361.526    21824356.938
  23742550.470    -1894061.72743  -1458979.93542  23742552.923    23742550.111
  20872362.956   -26988924.15544 -20987313.26642  20872365.080    20872358.955
  20275150.364   -30638855.34744 -23849776.88242  20275151.819    20275147.059
  21847341.767   -20191712.43743 -15714953.79242  21847343.018    21847339.511
 03  3 26  0 53 30.0000000  0  8G31G 3G14G23G 9G18G15G17
  23292197.375    -7018655.76843  -5458939.94642  23292199.713    23292196.120
  21746342.762   -21312702.97343 -16563579.06942  21746344.918    21746340.727
  21623197.139   -20012773.97843 -15575481.85942  21623199.794    21623194.885
  21834207.802   -19721123.26143 -15358587.89442  21834209.818    21834205.227
  23735231.191    -1932525.03343  -1488951.27942  23735233.636    23735230.839
  20879637.388   -26950696.76844 -20957525.69942  20879639.516    20879633.416
  20276900.097   -30629660.41744 -23842612.01342  20276901.558    20276896.791
  21858115.477   -20135096.35343 -15670837.40742  21858116.698    21858113.240
 03  3 26  0 54  0.0000000  0  8G31G 3G14G23G 9G18G15G17
  23278940.437    -7088321.21243  -5513224.63842  23278942.768    23278939.221
  21742018.559   -21335426.78043 -16581285.92442  21742020.703    21742016.515
  21607207.931   -20096797.66243 -15640954.80842  21607210.559    21607205.643
  21844076.026   -19669265.49543 -15318179.26742  21844078.015    21844073.447
  23728000.200    -1970522.89243  -1518559.93142  23728002.740    23727999.968
  20886954.155   -26912246.97744 -20927564.82942  20886956.289    20886950.191
  20278721.092   -30620091.04944 -23835155.37442  20278722.536    20278717.796
  21868949.718   -20078162.43043 -15626473.35442  21868950.913    21868947.461
 03  3 26  0 54 30.0000000  0  8G31G 3G14G23G 9G18G15G17
  23265772.996    -7157516.31543  -5567142.83042  23265775.323    23265771.676
  21737805.906   -21357564.63643 -16598536.19742  21737808.027    21737803.791
  21591298.105   -20180404.26543 -15706102.76242  21591300.707    21591295.751
  21853968.151   -19617281.91643 -15277672.60442  21853970.156    21853965.622
  23720862.836    -2008030.65843  -1547786.69742  23720865.304    23720862.376
  20894317.157   -26873554.03744 -20897414.49142  20894319.305    20894313.223
  20280617.725   -30610124.24944 -23827389.05042  20280619.157    20280614.415
  21879848.491   -20020889.19243 -15581844.90342  21879849.720    21879846.247
 03  3 26  0 55  0.0000000  0  8G31G 3G14G23G 9G18G15G17
  23252686.665    -7226285.12243  -5620728.83442  23252688.947    23252685.411
  21733696.064   -21379161.89543 -16615365.22542  21733698.204    21733693.960
  21575459.250   -20263637.81443 -15770960.03242  21575461.855    21575456.864
  21863875.259   -19565219.76543 -15237104.71642  21863877.254    21863872.720
  23713810.143    -2045092.36643  -1576665.89742  23713812.630    23713809.668
  20901717.511   -26834665.01144 -20867111.36342  20901719.652    20901713.583
  20282581.313   -30599805.55444 -23819348.52042  20282582.767    20282578.022
  21890803.172   -19963322.24443 -15536987.58242  21890804.384    21890800.911
 03  3 26  0 55 30.0000000  0  8G31G 3G14G23G 9G18G15G17
  23239682.860    -7294620.37543  -5673977.00642  23239685.179    23239681.592
  21729690.165   -21400213.06843 -16631768.73642  21729692.304    21729688.024
  21559692.750   -20346491.09043 -15835520.98542  21559695.353    21559690.354
  21873798.124   -19513074.96543 -15196472.42442  21873800.108    21873795.559
  23706843.734    -2081700.54543  -1605191.68842  23706846.195    23706843.346
  20909155.864   -26795576.19644 -20836652.55542  20909157.998    20909151.934
  20284613.076   -30589128.71844 -23811028.91642  20284614.532    20284609.733
  21901814.706   -19905456.51543 -15491897.46042  21901815.885    21901812.416
 03  3 26  0 56  0.0000000  0  8G31G 3G14G23G 9G18G15G17
  23226766.853    -7362494.22743  -5726865.66342  23226769.118    23226765.565
  21725793.160   -21420691.97143 -16647726.31742  21725795.310    21725791.032
  21544003.887   -20428936.39743 -15899764.03842  21544006.470    21544001.477
  21883741.365   -19460823.00943 -15155756.63242  21883743.357    21883738.791
  23699969.144    -2117826.93343  -1633342.07142  23699971.536    23699968.696
  20916636.912   -26756262.99444 -20806018.89942  20916639.051    20916632.987
  20286718.027   -30578067.25744 -23802409.60342  20286719.471    20286714.674
  21912888.002   -19847266.15543 -15446554.36342  21912889.174    21912885.689
 03  3 26  0 56 30.0000000  0  8G31G 3G14G23G 9G18G15G17
  23213938.909    -7429905.58843  -5779393.93342  23213941.168    23213937.512
  21722005.016   -21440598.71543 -16663238.06542  21722007.183    21722002.912
  21528392.908   -20510972.36443 -15963688.12942  21528395.496    21528390.511
  21893704.574   -19408466.03043 -15114959.00342  21893706.599    21893702.011
  23693186.303    -2153470.28843  -1661116.04342  23693188.742    23693185.973
  20924160.198   -26716727.78544 -20775212.25342  20924162.328    20924156.297
  20288896.097   -30566621.30444 -23793490.68942  20288897.570    20288892.788
  21924022.789   -19788752.55243 -15400959.38842  21924023.975    21924020.477
 03  3 26  0 57  0.0000000  0  8G31G 3G14G23G 9G18G15G17
  23201193.358    -7496883.46343  -5831584.42142  23201195.647    23201191.975
  21718319.898   -21459964.14543 -16678328.01142  21718322.055    21718317.796
  21512854.299   -20592628.16043 -16027315.98542  21512856.890    21512851.854
  21903681.673   -19356036.08843 -15074104.51442  21903683.692    21903679.113
  23686489.859    -2188659.86043  -1688536.44242  23686492.290    23686489.515
  20931719.560   -26677003.07344 -20744257.94142  20931721.684    20931715.667
  20291141.575   -30554821.13844 -23784295.76242  20291143.042    20291138.308
  21935213.196   -19729946.85943 -15355136.81242  21935214.346    21935210.824
 03  3 26  0 57 30.0000000  0  8G31G 3G14G23G 9G18G15G17
  23188535.797    -7563399.10443  -5883414.71142  23188538.150    23188534.478
  21714742.950   -21478761.03743 -16692974.94442  21714745.142    21714740.888
  21497393.530   -20673874.89343 -16090625.09142  21497396.124    21497391.065
  21913677.521   -19303507.57143 -15033173.21942  21913679.526    21913674.956
  23679885.592    -2223366.51843  -1715580.55842  23679887.961    23679885.076
  20939319.874   -26637063.15044 -20713135.93342  20939322.000    20939315.979
  20293459.690   -30542639.45544 -23774803.54642  20293461.141    20293456.438
  21946464.241   -19670822.23243 -15309065.71642  21946465.435    21946461.924
 03  3 26  0 58  0.0000000  0  8G31G 3G14G23G 9G18G15G17
  23175965.931    -7629454.00943  -5934885.99342  23175968.271    23175964.589
  21711273.748   -21496992.21443 -16707181.05542  21711275.884    21711271.610
  21482010.323   -20754714.05443 -16153616.60742  21482012.915    21482007.836
  21923691.246   -19250885.09943 -14992168.70642  21923693.280    21923688.690
  23673372.637    -2257591.43643  -1742249.25342  23673375.018    23673372.172
  20946960.232   -26596912.82244 -20681849.97542  20946962.360    20946956.356
  20295849.897   -30530078.83744 -23765016.05242  20295851.369    20295846.684
  21957775.323   -19611382.27443 -15262748.91342  21957776.511    21957773.014
 03  3 26  0 58 30.0000000  0  8G31G 3G14G23G 9G18G15G17
  23163482.819    -7695052.66543  -5986001.77542  23163485.108    23163481.420
  21707910.922   -21514663.95443 -16720951.24242  21707913.070    21707908.785
  21466703.783   -20835150.27243 -16216294.13942  21466706.386    21466701.316
  21933721.408   -19198176.36143 -14951096.97342  21933723.426    21933718.857
  23666950.597    -2291338.91243  -1768545.93642  23666953.052    23666950.271
  20954639.087   -26556560.14444 -20650406.34342  20954641.204    20954635.248
  20298311.113   -30517145.13944 -23754937.84342  20298312.562    20298307.895
  21969145.232   -19551633.12943 -15216191.17642  21969146.394    21969142.956
 03  3 26  0 59  0.0000000  0  8G31G 3G14G23G 9G18G15G17
  23151083.611    -7760210.68343  -6036774.20242  23151085.852    23151082.177
  21704651.272   -21531793.57643 -16734299.00142  21704653.421    21704649.121
  21451470.991   -20915199.00243 -16278669.73142  21451473.594    21451468.508
  21943764.441   -19145400.01443 -14909972.55642  21943766.458    21943761.862
  23660616.624    -2324624.46443  -1794482.70542  23660619.014    23660616.066
  20962352.897   -26516023.73944 -20618819.54942  20962355.033    20962349.088
  20300840.072   -30503855.35544 -23744582.16642  20300841.528    20300836.841
  21980570.479   -19491593.17643 -15169406.83842  21980571.639    21980568.229
 03  3 26  0 59 30.0000000  0  8G31G 3G14G23G 9G18G15G17
  23138775.345    -7824890.80743  -6087174.22742  23138777.552    23138773.955
  21701501.524   -21548345.58543 -16747196.67242  21701503.686    21701499.374
  21436319.031   -20994822.94843 -16340714.32142  21436321.648    21436316.553
  21953826.823   -19092521.84043 -14868768.79342  21953828.843    21953824.260
  23654377.426    -2357410.75343  -1820030.39942  23654379.971    23654377.051
  20970108.221   -26475269.48544 -20587063.00442  20970110.320    20970104.372
  20303443.609   -30490173.58444 -23733921.04642  20303445.079    20303440.379
  21992057.788   -19431227.09343 -15122368.37142  21992058.951    21992055.538
 03  3 26  1  0  0.0000000  0  8G31G 3G14G23G 9G18G15G17
  23126552.940    -7889119.64843  -6137222.62442  23126555.187    23126551.536
  21698456.370   -21564347.95243 -16759666.05742  21698458.516    21698454.229
  21421242.835   -21074048.62343 -16402448.56642  21421245.455    21421240.372
  21963902.968   -19039571.46443 -14827508.77242  21963904.995    21963900.410
  23648228.416    -2389724.19243  -1845209.64442  23648231.040    23648227.859
  20977899.283   -26434327.25544 -20555159.98242  20977901.394    20977895.445
  20306116.551   -30476127.22644 -23722975.83442  20306118.022    20306113.323
  22003601.827   -19370563.09343 -15075097.76842  22003602.961    22003599.571
 03  3 26  1  0 30.0000000  0  8G31G 3G14G23G 9G18G15G17
  23114420.191    -7952877.74043  -6186904.20442  23114422.427    23114418.724
  21695519.189   -21579783.05343 -16771693.41242  21695521.335    21695517.025
  21406246.136   -21152856.52243 -16463857.27542  21406248.768    21406243.686
  21973995.925   -18986532.59943 -14786179.79742  21973997.945    21973993.392
  23642173.015    -2421544.95743  -1870004.96242  23642175.641    23642172.519
  20985729.201   -26393180.77244 -20523097.80242  20985731.316    20985725.340
  20308862.244   -30461698.42244 -23711732.60842  20308863.719    20308859.027
  22015205.756   -19309584.07743 -15027581.68942  22015206.903    22015203.552
 03  3 26  1  1  0.0000000  0  8G31G 3G14G23G 9G18G15G17
  23102377.022    -8016164.63543  -6236218.61742  23102379.332    23102375.531
  21692689.735   -21594651.89643 -16783279.53042  21692691.870    21692687.610
  21391328.987   -21231246.31443 -16524940.17942  21391331.645    21391326.593
  21984105.258   -18933407.77343 -14744783.84142  21984107.277    21984102.723
  23636211.405    -2452872.63543  -1894416.05842  23636214.040    23636210.951
  20993597.446   -26351832.89644 -20490878.69242  20993599.571    20993593.563
  20311680.595   -30446887.89144 -23700191.93642  20311682.059    20311677.383
  22026869.327   -19248291.73343 -14979821.46642  22026870.478    22026867.126
 03  3 26  1  1 30.0000000  0  8G31G 3G14G23G 9G18G15G17
  23090428.079    -8078956.57243  -6285147.35542  23090430.407    23090426.547
  21689972.269   -21608932.32943 -16794407.15042  21689974.390    21689970.144
  21376495.976   -21309194.17543 -16585678.72342  21376498.616    21376493.574
  21994234.946   -18880176.10843 -14703304.63542  21994236.940    21994232.386
  23630348.361    -2483683.27343  -1918424.27442  23630350.913    23630347.875
  21001507.923   -26310263.02144 -20458486.58942  21001510.063    21001504.043
  20314575.872   -30431673.09344 -23688336.24842  20314577.336    20314572.671
  22038596.666   -19186664.19243 -14931800.05842  22038597.849    22038594.468
 03  3 26  1  2  0.0000000  0  8G31G 3G14G23G 9G18G15G17
  23078569.690    -8141272.76243  -6333705.38842  23078572.042    23078568.096
  21687362.772   -21622645.35443 -16805092.63542  21687364.902    21687360.616
  21361743.379   -21386719.41643 -16646087.94842  21361746.019    21361740.959
  22004380.690   -18826859.79743 -14661759.46942  22004382.709    22004378.150
  23624579.921    -2513996.19043  -1942044.64242  23624582.471    23624579.418
  21009456.455   -26268493.29144 -20425938.75542  21009458.592    21009452.574
  20317544.164   -30416074.57744 -23676181.56342  20317545.632    20317540.967
  22050383.752   -19124722.96143 -14883534.20242  22050384.919    22050381.521
 03  3 26  1  2 30.0000000  0  8G31G 3G14G23G 9G18G15G17
  23066803.595    -8203104.14443  -6381885.65242  23066805.878    23066801.936
  21684862.622   -21635783.69943 -16815330.31642  21684864.759    21684860.468
  21347072.978   -21463812.71743 -16706160.59342  21347075.612    21347070.541
  22014543.729   -18773452.71943 -14620143.57942  22014545.750    22014541.172
  23618908.014    -2543801.98343  -1965269.85342  23618910.503    23618907.559
  21017444.101   -26226517.96344 -20393230.71642  21017446.225    21017440.224
  20320586.977   -30400084.41444 -23663721.69942  20320588.461    20320583.788
  22062231.934   -19062460.65643 -14835018.16142  22062233.088    22062229.657
 03  3 26  1  3  0.0000000  0  8G31G 3G14G23G 9G18G15G17
  23055123.596    -8264482.80643  -6429713.15442  23055125.850    23055121.893
  21682465.426   -21648381.16143 -16825146.53242  21682467.543    21682463.268
  21332478.643   -21540506.25543 -16765921.73842  21332481.287    21332476.202
  22024717.356   -18719989.94943 -14578484.29842  22024719.383    22024714.821
  23613326.560    -2573132.76343  -1988124.93242  23613329.052    23613326.002
  21025464.174   -26184372.22344 -20360389.88742  21025466.296    21025460.300
  20323697.995   -30383735.85144 -23650982.56442  20323699.465    20323694.824
  22074134.537   -18999911.99643 -14786278.98542  22074135.752    22074132.299
 03  3 26  1  3 30.0000000  0  8G31G 3G14G23G 9G18G15G17
  23043537.986    -8325365.28543  -6477154.00842  23043540.243    23043536.290
  21680179.183   -21660395.69043 -16834508.51342  21680181.248    21680177.000
  21317968.685   -21616756.54643 -16825337.49142  21317971.296    21317966.188
  22034909.323   -18666430.75143 -14536749.87342  22034911.336    22034906.804
  23607843.642    -2601944.80043  -2010575.79642  23607846.209    23607843.201
  21033524.390   -26142015.53144 -20327384.67942  21033526.511    21033520.524
  20326885.260   -30366986.73444 -23637931.31142  20326886.713    20326882.062
  22086099.700   -18937034.86543 -14737283.86142  22086100.893    22086097.448
 03  3 26  1  4  0.0000000  0  8G31G 3G14G23G 9G18G15G17
  23032038.658    -8385794.43243  -6524241.64142  23032040.891    23032036.972
  21677995.281   -21671872.12643 -16843451.20042  21677997.371    21677993.090
  21303534.888   -21692606.43543 -16884441.24742  21303537.510    21303532.370
  22045110.950   -18612820.93743 -14494976.01442  22045112.959    22045108.414
  23602451.520    -2630280.92543  -2032655.84542  23602453.926    23602450.843
  21041615.993   -26099493.97344 -20294251.00342  21041618.122    21041612.112
  20330140.365   -30349881.13244 -23624602.28642  20330141.824    20330137.142
  22098118.776   -18873874.25343 -14688067.84442  22098119.976    22098116.610
 03  3 26  1  4 30.0000000  0  8G31G 3G14G23G 9G18G15G17
  23020631.591    -8445739.17243  -6570951.81642  23020633.817    23020629.819
  21675919.409   -21682781.00243 -16851951.63542  21675921.466    21675917.217
  21289183.184   -21768024.93143 -16943208.85942  21289185.824    21289180.636
  22055327.567   -18559132.20343 -14453140.65642  22055329.584    22055325.066
  23597155.659    -2658110.14643  -2054340.87742  23597158.077    23597155.049
  21049744.267   -26056779.56744 -20260967.05342  21049746.413    21049740.392
  20333469.015   -30332389.05244 -23610972.10342  20333470.461    20333465.765
  22110197.330   -18810401.32743 -14638608.46242  22110198.536    22110195.173
 03  3 26  1  5  0.0000000  0  8G31G 3G14G23G 9G18G15G17
  23009317.138    -8505196.90043  -6617282.48642  23009319.356    23009315.338
  21673951.706   -21693121.39343 -16860009.08942  21673953.780    21673949.515
  21274914.083   -21843009.34943 -17001638.22642  21274916.723    21274911.516
  22065559.175   -18505364.75243 -14411243.95742  22065561.163    22065556.677
  23591956.790    -2685429.63643  -2075628.73642  23591959.241    23591956.288
  21057909.140   -26013872.86344 -20227533.26042  21057911.286    21057905.264
  20336871.430   -30314509.24244 -23597039.78942  20336872.869    20336868.194
  22122335.386   -18746615.66243 -14588905.39742  22122336.584    22122333.232
 03  3 26  1  5 30.0000000  0  8G31G 3G14G23G 9G18G15G17
  22998096.544    -8564161.16243  -6663228.63742  22998098.777    22998094.826
  21672093.103   -21702888.62743 -16867619.93142  21672095.142    21672090.867
  21260728.864   -21917553.11543 -17059724.23042  21260731.500    21260726.267
  22075806.454   -18451514.93243 -14369283.07542  22075808.454    22075803.966
  23586856.242    -2712232.89043  -2096514.33842  23586858.655    23586855.739
  21066111.326   -25970770.11144 -20193946.69842  21066113.473    21066107.455
  20340348.629   -30296236.41544 -23582801.22842  20340350.069    20340345.406
  22134533.853   -18682512.40243 -14538954.85342  22134535.093    22134531.759
 03  3 26  1  6  0.0000000  0  8G31G 3G14G23G 9G18G15G17
  22986971.379    -8622624.38143  -6708784.38642  22986973.534    22986969.644
  21670344.608   -21712076.88943 -16874779.62442  21670346.665    21670342.423
  21246628.935   -21991648.56343 -17117460.89342  21246631.558    21246626.323
  22086070.343   -18397577.91343 -14327254.24842  22086072.333    22086067.856
  23581855.347    -2738512.08243  -2116991.56842  23581857.760    23581854.762
  21074351.718   -25927466.59544 -20160203.70342  21074353.853    21074347.826
  20343901.885   -30277563.98644 -23568251.29142  20343903.309    20343898.658
  22146793.808   -18618086.00243 -14488752.52142  22146795.106    22146791.731
 03  3 26  1  6 30.0000000  0  8G31G 3G14G23G 9G18G15G17
  22975937.317    -8680608.89743  -6753967.11442  22975939.458    22975935.473
  21668701.735   -21720710.25843 -16881506.93142  21668703.789    21668699.542
  21232610.015   -22065318.27443 -17174865.81442  21232612.632    21232607.397
  22096345.988   -18343578.92843 -14285177.12942  22096347.991    22096343.511
  23576950.009    -2764289.60443  -2137077.88342  23576952.462    23576949.471
  21082625.459   -25883987.88844 -20126324.19142  21082627.583    21082621.550
  20347526.689   -30258515.53644 -23553408.35042  20347528.127    20347523.456
  22159110.578   -18553361.08743 -14438317.56842  22159111.898    22159108.523
 03  3 26  1  7  0.0000000  0  8G31G 3G14G23G 9G18G15G17
  22964992.870    -8738122.23243  -6798782.67842  22964995.048    22964991.034
  21667162.675   -21728798.00543 -16887809.07742  21667164.723    21667160.514
  21218670.709   -22138569.57143 -17231944.70142  21218673.342    21218668.075
  22106631.534   -18289528.13743 -14243059.65042  22106633.537    22106629.067
  23572138.767    -2789572.72843  -2156778.94742  23572141.271    23572138.145
  21090930.572   -25840344.19344 -20092316.12442  21090932.705    21090926.684
  20351221.414   -30239099.75044 -23538279.17842  20351222.844    20351218.191
  22171482.312   -18488347.16843 -14387657.42242  22171483.660    22171480.321
 03  3 26  1  7 30.0000000  0  8G31G 3G14G23G 9G18G15G17
  22954147.408    -8795115.69743  -6843193.14442  22954149.556    22954145.596
  21665736.432   -21736292.94943 -16893649.29942  21665738.510    21665734.280
  21204820.352   -22211353.51743 -17288659.42142  21204822.981    21204817.697
  22116935.753   -18235379.35843 -14200865.80642  22116937.721    22116933.262
  23567430.797    -2814313.04943  -2176057.06142  23567433.331    23567430.120
  21099275.770   -25796489.94444 -20058143.98742  21099277.893    21099271.888
  20354995.061   -30219269.15344 -23522826.77842  20354996.499    20354991.825
  22183918.024   -18422997.36143 -14336735.54942  22183919.345    22183916.020
 03  3 26  1  8  0.0000000  0  8G31G 3G14G23G 9G18G15G17
  22943398.295    -8851602.56243  -6887208.85642  22943400.443    22943396.475
  21664420.112   -21743210.41343 -16899039.53542  21664422.152    21664417.910
  21191056.310   -22283683.65743 -17345020.52642  21191058.962    21191053.700
  22127255.524   -18181148.61443 -14158608.09642  22127257.496    22127253.036
  23562823.588    -2838523.66843  -2194922.40042  23562826.198    23562822.903
  21107657.976   -25752441.23244 -20023820.32142  21107660.086    21107654.083
  20358844.870   -30199038.26244 -23507062.45642  20358846.330    20358841.631
  22196414.743   -18357326.89143 -14285563.81542  22196416.073    22196412.766
 03  3 26  1  8 30.0000000  0  8G31G 3G14G23G 9G18G15G17
  22932738.784    -8907618.70743  -6930857.78642  22932740.934    22932736.868
  21663206.470   -21749588.13343 -16904009.19242  21663208.503    21663204.291
  21177371.879   -22355595.80743 -17401055.92642  21177374.503    21177369.251
  22137583.562   -18126874.57443 -14116316.64642  22137585.543    22137581.092
  23558310.485    -2862240.31643  -2213402.84342  23558313.092    23558309.654
  21116069.816   -25708236.67844 -19989375.21742  21116071.953    21116065.933
  20362763.830   -30178443.98544 -23491014.97342  20362765.271    20362760.610
  22208965.284   -18291373.41743 -14234171.56142  22208966.633    22208963.377
 03  3 26  1  9  0.0000000  0  8G31G 3G14G23G 9G18G15G17
  22922177.599    -8963117.68643  -6974103.71142  22922179.784    22922175.772
  21662104.039   -21755381.48143 -16908523.49442  21662106.057    21662101.874
  21163775.828   -22427043.29243 -17456729.24642  21163778.439    21163773.195
  22147928.168   -18072513.39343 -14073957.28942  22147930.157    22147925.712
  23553900.162    -2885416.52543  -2231462.14942  23553902.723    23553899.320
  21124519.565   -25663832.89044 -19954774.87042  21124521.713    21124515.703
  20366760.565   -30157440.92244 -23474648.95542  20366762.016    20366757.362
  22221578.054   -18225093.00243 -14182524.54742  22221579.356    22221576.181
 03  3 26  1  9 30.0000000  0  8G31G 3G14G23G 9G18G15G17
  22911715.076    -9018098.77043  -7016946.09542  22911717.233    22911713.189
  21661112.639   -21760591.32643 -16912583.11942  21661114.694    21661110.473
  21150268.326   -22498025.49843 -17512040.01442  21150270.945    21150265.678
  22158289.007   -18018066.72343 -14031531.31742  22158291.014    22158286.598
  23549592.836    -2908051.31843  -2249099.57942  23549595.370    23549592.036
  21133006.872   -25619231.80944 -19920020.78842  21133009.019    21133002.992
  20370835.029   -30136029.44844 -23457964.69542  20370836.498    20370831.826
  22234252.891   -18158486.63643 -14130623.54542  22234254.173    22234251.006
 03  3 26  1 10  0.0000000  0  8G31G 3G14G23G 9G18G15G17
  22901342.681    -9072605.87743  -7059419.15642  22901344.858    22901340.773
  21660223.564   -21765263.60543 -16916223.85942  21660225.594    21660221.387
  21136841.021   -22568586.26443 -17567022.38942  21136843.648    21136838.355
  22168657.261   -17963581.23243 -13989075.09542  22168659.264    22168654.859
  23545380.214    -2930188.97943  -2266349.63642  23545382.660    23545379.316
  21141522.829   -25574480.27044 -19885149.46942  21141524.958    21141518.938
  20374978.642   -30114254.68044 -23440997.35242  20374980.130    20374975.433
  22246980.997   -18091600.21543 -14078504.31142  22246982.238    22246979.149
 03  3 26  1 10 30.0000000  0  8G31G 3G14G23G 9G18G15G17
  22891066.789    -9126606.06743  -7101497.19842  22891068.968    22891064.835
  21659442.687   -21769366.91343 -16919421.24642  21659444.789    21659440.572
  21123500.220   -22638692.55443 -17621650.62442  21123502.856    21123497.525
  22179038.673   -17909026.40943 -13946564.84842  22179040.703    22179036.307
  23541268.495    -2951796.18843  -2283186.36142  23541270.971    23541267.538
  21150073.182   -25529547.93244 -19850137.26642  21150075.332    21150069.279
  20379197.462   -30092084.74344 -23423722.08142  20379198.939    20379194.246
  22259768.290   -18024402.94543 -14026142.85642  22259769.464    22259766.439
 03  3 26  1 11  0.0000000  0  8G31G 3G14G23G 9G18G15G17
  22880889.096    -9180089.92243  -7143172.90042  22880891.299    22880887.227
  21658771.547   -21772893.78643 -16922169.46442  21658773.645    21658769.427
  21110247.694   -22708334.85543 -17675917.31342  21110250.329    21110244.994
  22189434.616   -17854395.30043 -13903995.15842  22189436.639    22189432.252
  23537259.472    -2972863.51443  -2299602.39742  23537261.940    23537258.469
  21158659.184   -25484428.33144 -19814979.14442  21158661.327    21158655.280
  20383493.026   -30069511.27644 -23406132.37142  20383494.525    20383489.838
  22272616.240   -17956886.97643 -13973533.06742  22272617.390    22272614.343
 03  3 26  1 11 30.0000000  0  8G31G 3G14G23G 9G18G15G17
  22870807.568    -9233068.87243  -7184455.19242  22870809.742    22870805.688
  21658207.643   -21775857.36643 -16924478.74742  21658209.700    21658205.458
  21097081.304   -22777524.54043 -17729831.31142  21097083.936    21097078.597
  22199842.400   -17799702.01543 -13861377.01942  22199844.416    22199840.021
  23533350.949    -2993402.57343  -2315606.80042  23533353.445    23533349.936
  21167278.135   -25439135.54144 -19779686.07042  21167280.276    21167274.238
  20387863.015   -30046546.84844 -23388238.01542  20387864.504    20387859.843
  22285522.208   -17889065.91943 -13920685.55142  22285523.383    22285520.322
 03  3 26  1 12  0.0000000  0  8G31G 3G14G23G 9G18G15G17
  22860819.817    -9285554.95143  -7225353.42242  22860821.987    22860817.869
  21657748.182   -21778271.65743 -16926360.01642  21657750.283    21657746.026
  21083998.742   -22846273.81443 -17783402.13042  21084001.348    21083996.000
  22210259.263   -17744961.00643 -13818721.69842  22210261.277    22210256.861
  23529540.737    -3013425.35443  -2331208.92242  23529543.183    23529539.710
  21175927.219   -25393684.35544 -19744269.57242  21175929.355    21175923.319
  20392304.939   -30023204.44444 -23370049.12842  20392306.435    20392301.759
  22298483.628   -17820953.49743 -13867611.00342  22298484.757    22298481.737
 03  3 26  1 12 30.0000000  0  8G31G 3G14G23G 9G18G15G17
  22850931.753    -9337516.95243  -7265843.26542  22850933.928    22850929.841
  21657398.890   -21780107.17843 -16927790.29342  21657400.979    21657396.726
  21071005.910   -22914551.34843 -17836605.35942  21071008.528    21071003.188
  22220690.683   -17690143.39143 -13776006.67842  22220692.724    22220688.286
  23525834.696    -3032900.34443  -2346384.20142  23525837.122    23525833.614
  21184611.930   -25348045.92944 -19708707.17542  21184614.058    21184608.025
  20396824.513   -29999453.89444 -23351542.20242  20396826.015    20396821.344
  22311506.131   -17752519.98443 -13814286.24342  22311507.246    22311504.258
 03  3 26  1 13  0.0000000  0  8G31G 3G14G23G 9G18G15G17
  22841140.138    -9388972.16343  -7305938.21842  22841142.297    22841138.231
  21657156.072   -21781383.11943 -16928784.53142  21657158.164    21657153.929
  21058099.608   -22982374.32644 -17889454.39142  21058102.210    21058096.857
  22231132.933   -17635268.92043 -13733247.35542  22231134.996    22231130.532
  23522229.471    -3051845.07043  -2361146.27942  23522231.976    23522228.550
  21193328.424   -25302240.46043 -19673014.61142  21193330.551    21193324.523
  20401418.234   -29975313.78744 -23332731.72342  20401419.731    20401415.039
  22324585.959   -17683785.09043 -13760726.61942  22324587.111    22324584.097
 03  3 26  1 13 30.0000000  0  8G31G 3G14G23G 9G18G15G17
  22831450.961    -9439888.71143  -7345613.43642  22831453.184    22831449.095
  21657025.470   -21782069.39043 -16929319.29642  21657027.548    21657023.330
  21045285.849   -23049710.92343 -17941924.42642  21045288.466    21045283.090
  22241591.683   -17580308.08543 -13690420.73642  22241593.709    22241589.251
  23518731.444    -3070227.50543  -2375470.21742  23518733.871    23518730.451
  21202082.167   -25256238.99343 -19637169.32142  21202084.298    21202078.309
  20406091.938   -29950753.41144 -23313593.76342  20406093.439    20406088.718
  22337728.755   -17614719.23243 -13706909.12042  22337729.933    22337726.962
 03  3 26  1 14  0.0000000  0  8G31G 3G14G23G 9G18G15G17
  22821857.299    -9490303.50443  -7384897.67342  22821859.543    22821855.409
  21656999.673   -21782204.99043 -16929424.96242  21657001.746    21656997.512
  21032557.648   -23116598.01443 -17994044.19542  21032560.238    21032554.857
  22252059.330   -17525300.18143 -13647557.43742  22252061.398    22252056.904
  23515333.319    -3088084.62943  -2389384.82142  23515335.754    23515332.324
  21210865.819   -25210080.62243 -19601201.77342  21210867.947    21210861.953
  20410838.355   -29925810.80944 -23294157.96442  20410839.853    20410835.130
  22350927.200   -17545360.91943 -13652863.73642  22350928.405    22350925.407
 03  3 26  1 14 30.0000000  0  8G31G 3G14G23G 9G18G15G17
  22812367.448    -9540172.98443  -7423756.98742  22812369.679    22812365.603
  21657086.599   -21781748.00943 -16929068.87942  21657088.698    21657084.472
  21019923.274   -23182991.79543 -18045779.56842  21019925.875    21019920.506
  22262543.793   -17470203.96943 -13604625.33042  22262545.879    22262541.374
  23512043.322    -3105372.81643  -2402856.08942  23512045.884    23512042.463
  21219687.078   -25163724.51743 -19565080.14142  21219689.207    21219683.232
  20415665.657   -29900443.14744 -23274390.94942  20415667.143    20415662.441
  22364189.363   -17475668.19443 -13598557.78942  22364190.542    22364187.529
 03  3 26  1 15  0.0000000  0  8G31G 3G14G23G 9G18G15G17
  22802972.977    -9589540.72143  -7462225.32842  22802975.244    22802971.229
  21657277.659   -21780744.03543 -16928286.56642  21657279.764    21657275.539
  21007374.447   -23248936.03843 -18097164.64942  21007377.061    21007371.696
  22273036.367   -17415065.32243 -13561660.15742  22273038.403    22273033.924
  23508853.470    -3122135.87543  -2415918.16342  23508855.980    23508852.612
  21228537.209   -25117216.83243 -19528840.39942  21228539.315    21228533.372
  20420565.357   -29874695.09644 -23254327.52442  20420566.859    20420562.114
  22377506.410   -17405686.80943 -13544026.89142  22377507.611    22377504.631
 03  3 26  1 15 30.0000000  0  8G31G 3G14G23G 9G18G15G17
  22793678.663    -9638382.58343  -7500283.90842  22793680.961    22793676.843
  21657577.078   -21779170.58243 -16927060.50542  21657579.173    21657574.950
  20994915.816   -23314406.43643 -18148180.50642  20994918.406    20994913.041
  22283541.150   -17359862.32043 -13518644.83842  22283543.177    22283538.721
  23505768.006    -3138349.75443  -2428552.29942  23505770.585    23505767.161
  21237420.288   -25070535.81943 -19492465.59142  21237422.422    21237416.468
  20425541.833   -29848543.56344 -23233949.69542  20425543.344    20425538.563
  22390882.704   -17335394.19743 -13489253.47842  22390883.911    22390880.923
 03  3 26  1 16  0.0000000  0  8G31G 3G14G23G 9G18G15G17
  22784484.583    -9686697.72743  -7537932.04442  22784486.881    22784482.823
  21657984.635   -21777028.89443 -16925391.66742  21657986.746    21657982.501
  20982547.581   -23379401.80943 -18198826.20742  20982550.156    20982544.786
  22294057.917   -17304596.37943 -13475580.47442  22294059.935    22294055.485
  23502787.248    -3154013.24243  -2440757.54842  23502789.896    23502786.499
  21246336.005   -25023683.42043 -19455957.24142  21246338.125    21246332.204
  20430595.046   -29821988.57744 -23213257.49142  20430596.571    20430591.807
  22404317.937   -17264791.78143 -13434238.66642  22404319.153    22404316.184
 03  3 26  1 16 30.0000000  0  8G31G 3G14G23G 9G18G15G17
  22775391.091    -9734484.26943  -7575168.28042  22775393.427    22775389.388
  21658500.331   -21774319.07343 -16923280.12442  21658502.407    21658498.203
  20970270.076   -23443920.41943 -18249100.40742  20970272.650    20970267.255
  22304586.624   -17249267.88143 -13432467.37342  22304588.623    22304584.160
  23499911.688    -3169124.70643  -2452532.66242  23499914.284    23499910.804
  21255284.296   -24976659.83443 -19419315.49142  21255286.432    21255280.499
  20435725.197   -29795029.50044 -23192250.41042  20435726.697    20435721.926
  22417812.169   -17193879.37743 -13378982.29842  22417813.375    22417810.410
 03  3 26  1 17  0.0000000  0  8G31G 3G14G23G 9G18G15G17
  22766391.631    -9781776.51543  -7612019.35342  22766393.956    22766389.918
  21659117.260   -21771077.16243 -16920753.96742  21659119.353    21659115.127
  20958076.755   -23507996.55743 -18299029.82342  20958079.331    20958073.923
  22315120.276   -17193913.24643 -13389333.89742  22315122.285    22315117.817
  23497134.661    -3183718.39643  -2463904.31542  23497137.168    23497133.622
  21264258.138   -24929502.10343 -19382569.21442  21264260.258    21264254.332
  20440925.547   -29767701.50744 -23170955.86742  20440927.035    20440922.286
  22431358.649   -17122692.44543 -13323512.01542  22431359.852    22431356.876
 03  3 26  1 17 30.0000000  0  8G31G 3G14G23G 9G18G15G17
  22757492.492    -9828541.83443  -7648459.82942  22757494.778    22757490.709
  21659841.304   -21767272.32343 -16917789.16942  21659843.393    21659839.176
  20945973.865   -23571597.52943 -18348588.98242  20945976.450    20945971.009
  22325664.683   -17138502.07143 -13346156.36642  22325666.691    22325662.244
  23494462.131    -3197761.80043  -2474847.15342  23494464.704    23494461.223
  21273263.243   -24882179.95543 -19345694.81542  21273265.374    21273259.437
  20446202.083   -29739973.18544 -23149349.37842  20446203.580    20446198.796
  22444962.986   -17051201.34943 -13267804.72842  22444964.173    22444961.232
 03  3 26  1 18  0.0000000  0  8G31G 3G14G23G 9G18G15G17
  22748698.919    -9874752.14143  -7684467.81942  22748701.213    22748697.188
  21660677.440   -21762878.44143 -16914365.37742  21660679.538    21660675.283
  20933966.751   -23634695.11543 -18397755.89242  20933969.360    20933963.897
  22336224.753   -17083008.41543 -13302914.56742  22336226.793    22336222.353
  23491899.757    -3211226.79643  -2485339.31042  23491902.332    23491898.851
  21282304.517   -24834667.77343 -19308672.33542  21282306.633    21282300.698
  20451560.003   -29711817.02244 -23127409.50542  20451561.531    20451556.761
  22458630.410   -16979378.88643 -13211839.22942  22458631.583    22458628.598
 03  3 26  1 18 30.0000000  0  8G31G 3G14G23G 9G18G15G17
  22740008.330    -9920421.40243  -7720054.22642  22740010.602    22740006.561
  21661622.711   -21757911.07443 -16910494.71842  21661624.812    21661620.533
  20922052.757   -23697303.27544 -18446541.42942  20922055.392    20922049.899
  22346797.474   -17027448.35543 -13259621.02042  22346799.510    22346795.083
  23489444.842    -3224127.56443  -2495391.80242  23489447.404    23489443.916
  21291378.901   -24786981.64143 -19271514.31042  21291381.008    21291375.066
  20456996.483   -29683247.95144 -23105147.89142  20456998.028    20456993.265
  22472357.801   -16907241.11043 -13155628.03142  22472358.971    22472355.987
 03  3 26  1 19  0.0000000  0  8G31G 3G14G23G 9G18G15G17
  22731414.017    -9965584.93743  -7755246.55542  22731416.258    22731412.168
  21662669.972   -21752407.72043 -16906206.40442  21662672.086    21662667.794
  20910225.237   -23759457.31443 -18494973.10542  20910227.853    20910222.319
  22357375.732   -16971859.29643 -13216304.88142  22357377.752    22357373.320
  23487090.358    -3236499.41843  -2505032.15042  23487093.008    23487089.511
  21300479.112   -24739159.60343 -19234250.38142  21300481.258    21300475.295
  20462504.673   -29654302.30944 -23082592.84542  20462506.191    20462501.434
  22486138.130   -16834825.29143 -13099200.17142  22486139.323    22486136.288
 03  3 26  1 19 30.0000000  0  8G31G 3G14G23G 9G18G15G17
  22722919.714   -10010222.67243  -7790029.16542  22722921.950    22722917.862
  21663822.650   -21746350.38643 -16901486.42242  21663824.760    21663820.487
  20898487.975   -23821136.96144 -18543035.12442  20898490.595    20898485.041
  22367962.983   -16916223.09843 -13172952.01342  22367964.969    22367960.541
  23484840.644    -3248322.16843  -2514244.63642  23484843.242    23484839.689
  21309608.603   -24691183.75143 -19196866.59642  21309610.762    21309604.795
  20468088.141   -29624961.10744 -23059729.57042  20468089.666    20468084.887
  22499974.910   -16762112.80843 -13042541.14542  22499976.092    22499973.042
 03  3 26  1 20  0.0000000  0  8G31G 3G14G23G 9G18G15G17
  22714528.347   -10054319.34043  -7824390.16442  22714530.589    22714526.539
  21665083.348   -21739725.39543 -16896324.11642  21665085.459    21665081.184
  20886843.886   -23882326.87244 -18590715.53042  20886846.503    20886840.975
  22378561.690   -16860526.57543 -13129552.13842  22378563.665    22378559.214
  23482698.068    -3259580.84743  -2523017.57642  23482700.582    23482697.163
  21318769.849   -24643041.01943 -19159352.77742  21318772.021    21318766.050
  20473749.574   -29595209.98944 -23036546.88142  20473751.095    20473746.322
  22513870.633   -16689090.41143 -12985640.62242  22513871.897    22513868.829
 03  3 26  1 20 30.0000000  0  8G31G 3G14G23G 9G18G15G17
  22706236.703   -10097891.86643  -7858342.74342  22706238.955    22706234.901
  21666448.479   -21732551.67443 -16890734.22842  21666450.573    21666446.312
  20875289.742   -23943044.03944 -18638027.55942  20875292.371    20875286.845
  22389168.307   -16804788.55343 -13086119.92642  22389170.262    22389165.803
  23480659.794    -3270292.48143  -2531364.26442  23480662.346    23480658.664
  21327959.195   -24594750.62443 -19121723.89342  21327961.365    21327955.419
  20479485.647   -29565066.92344 -23013058.78742  20479487.128    20479482.355
  22527821.759   -16615776.80243 -12928513.19142  22527823.035    22527820.010
 03  3 26  1 21  0.0000000  0  8G31G 3G14G23G 9G18G15G17
  22698050.089   -10140912.36143  -7891865.15942  22698052.370    22698048.362
  21667922.981   -21724803.38443 -16884696.62342  21667925.051    21667920.788
  20863830.930   -24003260.30444 -18684949.28142  20863833.562    20863828.037
  22399787.720   -16748983.16643 -13042635.22242  22399789.686    22399785.216
  23478730.891    -3280429.00543  -2539262.81342  23478733.440    23478729.770
  21337181.518   -24546286.99943 -19083960.03542  21337183.692    21337177.773
  20485301.399   -29534504.93444 -22989244.26142  20485302.877    20485298.103
  22541833.321   -16542145.84143 -12871138.47242  22541834.585    22541831.559
 03  3 26  1 21 30.0000000  0  8G31G 3G14G23G 9G18G15G17
  22689968.051   -10183383.72743  -7924959.70442  22689970.363    22689966.272
  21669505.909   -21716485.25943 -16878214.99442  21669507.982    21669503.696
  20852466.926   -24062978.43544 -18731482.84342  20852469.546    20852463.995
  22410419.082   -16693115.21543 -12999101.76342  22410421.002    22410416.553
  23476910.705    -3289993.53643  -2546715.64042  23476913.284    23476909.614
  21346435.834   -24497655.38243 -19046065.26942  21346437.979    21346432.063
  20491196.190   -29503527.68444 -22965106.15042  20491197.641    20491192.865
  22555904.353   -16468202.28743 -12813520.18042  22555905.626    22555902.624
 03  3 26  1 22  0.0000000  0  8G31G 3G14G23G 9G18G15G17
  22681988.447   -10225317.06943  -7957634.99142  22681990.694    22681986.569
  21671194.708   -21707610.52843 -16871299.64842  21671196.796    21671192.539
  20841195.577   -24122209.67144 -18777637.00442  20841198.195    20841192.607
  22421059.822   -16637197.77843 -12955529.74342  22421061.727    22421057.314
  23475197.386    -3298997.33943  -2553731.56942  23475199.817    23475196.274
  21355719.612   -24448868.82143 -19008049.76842  21355721.771    21355715.816
  20497167.718   -29472147.12544 -22940653.77242  20497169.160    20497164.376
  22570032.425   -16393959.05343 -12755668.36642  22570033.667    22570030.740
 03  3 26  1 22 30.0000000  0  8G31G 3G14G23G 9G18G15G17
  22674114.670   -10266694.20943  -7989876.88442  22674116.870    22674112.714
  21672992.534   -21698162.83043 -16863937.83442  21672994.638    21672990.392
  20830020.359   -24180935.71544 -18823397.50742  20830022.960    20830017.357
  22431713.068   -16581214.58143 -12911906.47842  22431714.990    22431710.603
  23473594.067    -3307422.16043  -2560296.31342  23473596.544    23473593.003
  21365035.937   -24399911.38543 -18969901.11842  21365038.073    21365032.096
  20503219.255   -29440346.06844 -22915873.73742  20503220.703    20503215.923
  22584220.681   -16319399.57243 -12697570.11442  22584221.891    22584219.008
 03  3 26  1 23  0.0000000  0  8G31G 3G14G23G 9G18G15G17
  22666340.285   -10307548.76443  -8021711.56542  22666342.468    22666338.280
  21674892.688   -21688177.60543 -16856157.16542  21674894.769    21674890.516
  20818934.868   -24239190.07244 -18868790.46742  20818937.498    20818931.889
  22442372.042   -16525201.18243 -12868259.68242  22442374.018    22442369.630
  23472094.611    -3315301.78443  -2566436.25342  23472097.049    23472093.495
  21374377.975   -24350818.82443 -18931647.17642  21374380.084    21374374.083
  20509344.236   -29408159.08244 -22890792.98042  20509345.670    20509340.926
  22598462.319   -16244559.36643 -12639253.12142  22598463.549    22598460.690
 03  3 26  1 23 30.0000000  0  8G31G 3G14G23G 9G18G15G17
  22658669.175   -10347860.39343  -8053123.18742  22658671.389    22658667.229
  21676898.666   -21677636.32543 -16847943.21342  21676900.724    21676896.465
  20807943.056   -24296952.12344 -18913799.80742  20807945.677    20807940.094
  22453040.306   -16469139.01343 -12824574.87742  22453042.309    22453037.899
  23470702.795    -3322615.78143  -2572135.42442  23470705.207    23470701.668
  21383749.138   -24301572.94143 -18893273.75842  21383751.258    21383745.248
  20515546.360   -29375566.64444 -22865396.28842  20515547.810    20515543.075
  22612761.044   -16169419.28543 -12580702.47042  22612762.254    22612759.456
 03  3 26  1 24  0.0000000  0  8G31G 3G14G23G 9G18G15G17
  22651105.114   -10387609.66143  -8084096.60042  22651107.328    22651103.160
  21679013.725   -21666521.64743 -16839282.45542  21679015.774    21679011.535
  20797048.602   -24354202.62344 -18958410.53942  20797051.226    20797045.645
  22463721.229   -16413010.33643 -12780838.25042  22463723.241    22463718.832
  23469422.194    -3329345.06543  -2577378.99842  23469424.580    23469421.053
  21393152.792   -24252156.57243 -18854767.50242  21393154.890    21393148.878
  20521829.155   -29342550.36944 -22839669.32842  20521830.586    20521825.862
  22627120.071   -16093961.96943 -12521904.62142  22627121.294    22627118.566
 03  3 26  1 24 30.0000000  0  8G31G 3G14G23G 9G18G15G17
  22643644.175   -10426816.74943  -8114647.55042  22643646.384    22643642.262
  21681233.690   -21654855.69743 -16830192.13242  21681235.736    21681231.541
  20786247.675   -24410961.53044 -19002638.21342  20786250.303    20786244.733
  22474410.641   -16356837.06343 -12737066.86642  22474412.664    22474408.241
  23468249.124    -3335509.68043  -2582182.54942  23468251.574    23468247.921
  21402584.684   -24202591.47043 -18816145.35042  21402586.809    21402580.795
  20528188.637   -29309131.12944 -22813628.37242  20528190.066    20528185.328
  22641535.402   -16018209.11143 -12462876.47442  22641536.618    22641533.924
 03  3 26  1 25  0.0000000  0  8G31G 3G14G23G 9G18G15G17
  22636284.175   -10465493.75443  -8144785.44142  22636286.396    22636282.238
  21683555.922   -21642652.50443 -16820683.17542  21683557.932    21683553.745
  20775538.067   -24467240.82143 -19046492.15842  20775540.671    20775535.093
  22485105.877   -16300633.05043 -12693271.53042  22485107.961    22485103.501
  23467181.035    -3341121.87843  -2586555.64342  23467183.548    23467179.971
  21412042.135   -24152892.23543 -18777418.67842  21412044.251    21412038.227
  20534622.379   -29275321.70244 -22787283.37642  20534623.796    20534619.068
  22656004.406   -15942174.27043 -12403628.60842  22656005.628    22656002.936
 03  3 26  1 25 30.0000000  0  8G31G 3G14G23G 9G18G15G17
  22629027.080   -10503630.10743  -8174502.04542  22629029.268    22629025.095
  21685981.984   -21629903.55943 -16810748.95742  21685984.001    21685979.818
  20764921.746   -24523029.96544 -19089964.17142  20764924.309    20764918.738
  22495808.698   -16244389.48943 -12649445.37442  22495810.758    22495806.319
  23466220.196    -3346171.51643  -2590490.40642  23466222.677    23466218.983
  21421526.742   -24103050.13143 -18738580.68142  21421528.880    21421522.869
  20541132.154   -29241112.39344 -22760626.78042  20541133.610    20541128.882
  22670528.749   -15865848.64943 -12344154.17142  22670529.937    22670527.299
 03  3 26  1 26  0.0000000  0  8G31G 3G14G23G 9G18G15G17
  22621871.079   -10541235.14643  -8203804.65142  22621873.263    22621869.020
  21688509.765   -21616620.11443 -16800398.24342  21688511.801    21688507.599
  20754396.900   -24578338.02944 -19133061.32242  20754399.506    20754393.911
  22506516.965   -16188117.37143 -12605596.96942  22506518.992    22506514.521
  23465364.559    -3350667.96643  -2593994.09742  23465367.030    23465363.263
  21431036.428   -24053076.47943 -18699640.17742  21431038.545    21431032.538
  20547716.167   -29206513.26444 -22733666.42142  20547717.587    20547712.911
  22685106.309   -15789243.31743 -12284461.77842  22685107.478    22685104.856
 03  3 26  1 26 30.0000000  0  8G31G 3G14G23G 9G18G15G17
  22614821.585   -10578280.11643  -8232670.83442  22614823.811    22614819.591
  21691144.473   -21602774.97643 -16789609.84242  21691146.507    21691142.249
  20743969.175   -24633135.98144 -19175760.98042  20743971.782    20743966.153
  22517235.790   -16131789.45943 -12561705.08642  22517237.840    22517233.382
  23464619.515    -3354582.38643  -2597044.26242  23464622.028    23464618.328
  21440576.271   -24002944.24543 -18660576.10442  21440578.414    21440572.396
  20554379.654   -29171496.57944 -22706380.69842  20554381.043    20554376.361
  22699742.204   -15712331.48543 -12224530.54342  22699743.315    22699740.750
 03  3 26  1 27  0.0000000  0  8G31G 3G14G23G 9G18G15G17
  22607866.625   -10614828.57143  -8261150.12842  22607868.823    22607864.614
  21693873.454   -21588434.02143 -16778435.09442  21693875.510    21693871.244
  20733626.423   -24687487.48244 -19218112.75742  20733629.004    20733623.353
  22527952.861   -16075471.00843 -12517820.57742  22527954.918    22527950.403
  23463973.264    -3357978.31843  -2599690.41142  23463975.726    23463972.096
  21450133.813   -23952719.09943 -18621439.63242  21450135.947    21450129.951
  20561110.330   -29136126.57944 -22678819.66442  20561111.744    20561107.052
  22714424.118   -15635177.83743 -12164410.89542  22714425.137    22714422.656
 03  3 26  1 27 30.0000000  0  8G31G 3G14G23G 9G18G15G17
  22601024.869   -10650782.28243  -8289165.98242  22601027.074    22601022.805
  21696715.138   -21573500.98843 -16766798.98442  21696717.201    21696712.910
  20723387.284   -24741294.28444 -19260040.09142  20723389.870    20723384.224
  22538686.468   -16019065.46143 -12473868.19942  22538688.541    22538684.026
  23463444.401    -3360757.97043  -2601856.33642  23463446.819    23463443.142
  21459727.394   -23902304.64543 -18582155.65142  21459729.529    21459723.513
  20567926.717   -29100306.05144 -22650907.56142  20567928.151    20567923.466
  22729170.382   -15557686.10143 -12104027.78642  22729171.364    22729168.899
 03  3 26  1 28  0.0000000  0  8G31G 3G14G23G 9G18G15G17
  22594296.106   -10686142.10243  -8316719.06642  22594298.292    22594294.041
  21699668.951   -21557978.46843 -16754703.53142  21699671.045    21699666.782
  20713251.698   -24794557.05243 -19301543.50342  20713254.285    20713248.613
  22549436.224   -15962575.07743 -12429849.72142  22549438.315    22549433.803
  23463032.470    -3362922.21243  -2603542.73642  23463034.956    23463031.175
  21469356.433   -23851703.64643 -18542726.30442  21469358.601    21469352.551
  20574828.575   -29064036.49044 -22622645.56642  20574830.040    20574825.323
  22743980.529   -15479858.38443 -12043382.89142  22743981.588    22743979.096
 03  3 26  1 28 30.0000000  0  8G31G 3G14G23G 9G18G15G17
  22587675.981   -10720930.90343  -8343827.20542  22587678.205    22587673.936
  21702730.249   -21541891.33643 -16742168.12042  21702732.347    21702728.066
  20703215.289   -24847298.47944 -19342640.67442  20703217.889    20703212.253
  22560197.501   -15906024.09443 -12385784.02242  22560199.613    22560195.110
  23462733.265    -3364494.02743  -2604767.47142  23462735.708    23462731.974
  21479016.279   -23800940.77143 -18503170.81842  21479018.443    21479012.408
  20581811.387   -29027341.59944 -22594052.14742  20581812.828    20581808.136
  22758849.921   -15401719.43043 -11982495.46342  22758850.977    22758848.492
 03  3 26  1 29  0.0000000  0  8G31G 3G14G23G 9G18G15G17
  22581164.066   -10755151.05443  -8370492.23542  22581166.264    22581162.054
  21705898.134   -21525243.94143 -16729196.13442  21705900.255    21705895.959
  20693277.672   -24899520.88544 -19383333.41242  20693280.280    20693274.610
  22570969.552   -15849416.50243 -12341674.20942  22570971.679    22570967.187
  23462546.431    -3365475.87443  -2605532.51442  23462548.850    23462545.125
  21488706.214   -23750019.92143 -18463492.23542  21488708.352    21488702.311
  20588874.557   -28990224.44744 -22565129.69042  20588875.991    20588871.313
  22773777.772   -15323273.42043 -11921368.77942  22773778.821    22773776.330
 03  3 26  1 29 30.0000000  0  8G31G 3G14G23G 9G18G15G17
  22574760.261   -10788803.16743  -8396714.64542  22574762.440    22574758.285
  21709172.135   -21508038.99143 -16715789.69342  21709174.249    21709169.961
  20683438.702   -24951224.85844 -19423622.18042  20683441.330    20683435.637
  22581752.002   -15792754.39843 -12297521.93442  22581754.097    22581749.608
  23462471.678    -3365868.63943  -2605838.51842  23462474.177    23462470.435
  21498425.685   -23698943.85143 -18423692.70442  21498427.822    21498421.772
  20596017.779   -28952686.48344 -22535879.33442  20596019.233    20596014.556
  22788763.732   -15244522.12543 -11860004.20842  22788764.793    22788762.241
 03  3 26  1 30  0.0000000  0  8G31G 3G14G23G 9G18G15G17
  22568456.485   -10821929.54943  -8422527.40342  22568458.668    22568454.485
  21712543.801   -21490320.69443 -16701983.23842  21712545.929    21712541.657
  20673690.423   -25002452.21644 -19463539.55842  20673693.075    20673687.342
  22592536.489   -15736081.44643 -12253361.20142  22592538.610    22592534.133
  23462501.007    -3365714.77643  -2605718.56942  23462503.484    23462499.726
  21508166.379   -23647756.22843 -18383806.24342  21508168.539    21508162.463
  20603232.913   -28914770.77244 -22506334.62942  20603234.360    20603229.681
  22803799.443   -15165509.39743 -11798435.91042  22803800.535    22803797.913
 03  3 26  1 30 30.0000000  0  8G31G 3G14G23G 9G18G15G17
  22562255.342   -10854516.76543  -8447920.02842  22562257.508    22562253.305
  21716015.335   -21472077.48943 -16687767.76442  21716017.462    21716013.229
  20664035.366   -25053189.64344 -19503075.17242  20664038.012    20664032.273
  22603325.333   -15679385.64243 -12209182.66642  22603327.452    22603322.983
  23462636.786    -3365000.96743  -2605162.30542  23462639.276    23462635.546
  21517930.446   -23596445.70243 -18343824.01642  21517932.603    21517926.538
  20610522.371   -28876464.48144 -22476485.57342  20610523.814    20610519.131
  22818887.016   -15086223.69143 -11736654.91842  22818888.185    22818885.555
 03  3 26  1 31  0.0000000  0  8G31G 3G14G23G 9G18G15G17
  22556162.706   -10886533.43543  -8472868.07542  22556164.853    22556160.712
  21719592.375   -21453280.02043 -16673120.39342  21719594.511    21719590.276
  20654479.573   -25103405.61144 -19542204.45642  20654482.198    20654476.433
  22614124.246   -15622637.04543 -12164962.99242  22614126.381    22614121.904
  23462885.111    -3363695.73143  -2604145.19542  23462887.606    23462883.894
  21527723.589   -23544982.34743 -18303722.69742  21527725.740    21527719.702
  20617891.975   -28837736.97844 -22446308.29742  20617893.406    20617888.736
  22834032.288   -15006634.76743 -11674637.66042  22834033.471    22834030.884
 03  3 26  1 31 30.0000000  0  8G31G 3G14G23G 9G18G15G17
  22550175.377   -10917997.12143  -8497385.23742  22550177.487    22550173.367
  21723271.177   -21433947.84643 -16658056.37542  21723273.295    21723269.080
  20645019.665   -25153117.63644 -19580941.05742  20645022.279    20645016.499
  22624929.617   -15565854.50443 -12120716.87042  22624931.736    22624927.282
  23463242.545    -3361817.05743  -2602681.24242  23463244.959    23463241.331
  21537542.129   -23493385.43343 -18263517.30742  21537544.310    21537538.270
  20625338.296   -28798606.43444 -22415816.96842  20625339.723    20625335.029
  22849231.661   -14926761.64043 -11612398.94342  22849232.865    22849230.267
 03  3 26  1 32  0.0000000  0  8G31G 3G14G23G 9G18G15G17
  22544292.998   -10948909.25943  -8521472.61642  22544295.142    22544290.979
  21727051.080   -21414084.33243 -16642578.31842  21727053.208    21727049.019
  20635655.441   -25202326.85744 -19619285.86142  20635658.054    20635652.247
  22635740.927   -15509040.63843 -12076446.33442  22635743.027    22635738.594
  23463708.745    -3359366.60743  -2600771.75242  23463711.135    23463707.610
  21547385.560   -23441657.91043 -18223210.13642  21547387.731    21547381.702
  20632860.808   -28759075.26144 -22385013.45242  20632862.260    20632857.566
  22864484.529   -14846607.71043 -11549941.39742  22864485.740    22864483.100
 03  3 26  1 32 30.0000000  0  8G31G 3G14G23G 9G18G15G17
  22538519.407   -10979250.09543  -8545114.83242  22538521.508    22538517.282
  21730935.520   -21393671.62643 -16626672.32242  21730937.640    21730933.463
  20626390.661   -25251013.53044 -19657223.48542  20626393.263    20626387.430
  22646561.686   -15452177.18743 -12032137.16442  22646563.783    22646559.371
  23464287.605    -3356324.75043  -2598401.42842  23464289.975    23464286.339
  21557257.232   -23389781.93643 -18182787.29542  21557259.387    21557253.373
  20640463.217   -28719124.24744 -22353882.79042  20640464.667    20640459.984
  22879794.247   -14766154.88243 -11487250.96342  22879795.500    22879792.902
 03  3 26  1 33  0.0000000  0  8G31G 3G14G23G 9G18G15G17
  22532851.403   -11009035.23043  -8568324.02642  22532853.568    22532849.348
  21734921.129   -21372727.06643 -16610351.89742  21734923.237    21734919.111
  20617222.396   -25299192.96044 -19694765.85942  20617225.005    20617219.127
  22657388.663   -15395280.79143 -11987802.33042  22657390.755    22657386.420
  23464976.038    -3352707.05343  -2595582.40442  23464978.474    23464974.711
  21567153.881   -23337774.61943 -18142262.10642  21567156.059    21567150.054
  20648142.474   -28678769.30944 -22322437.38342  20648143.951    20648139.272
  22895157.776   -14685419.48643 -11424340.33642  22895159.002    22895156.427
 03  3 26  1 33 30.0000000  0  8G31G 3G14G23G 9G18G15G17
  22527289.556   -11038262.91843  -8591098.85242  22527291.718    22527287.468
  21739007.859   -21351251.07043 -16593617.36642  21739009.994    21739005.867
  20608150.984   -25346863.32844 -19731911.55542  20608153.606    20608147.710
  22668222.062   -15338350.98843 -11943441.45542  22668224.099    22668219.801
  23465774.286    -3348512.09243  -2592313.56342  23465776.802    23465772.965
  21577075.625   -23285635.50143 -18101634.21542  21577077.797    21577071.773
  20655898.782   -28638009.66544 -22290676.62242  20655900.241    20655895.581
  22910574.976   -14604401.64943 -11361209.60242  22910576.219    22910573.698
 03  3 26  1 34  0.0000000  0  8G31G 3G14G23G 9G18G15G17
  22521836.579   -11066918.83343  -8613428.13942  22521838.717    22521834.394
  21743198.120   -21329231.27043 -16576459.09542  21743200.226    21743196.083
  20599179.217   -25394010.19244 -19768649.32842  20599181.822    20599175.905
  22679064.279   -15281374.70143 -11899044.35242  22679066.347    22679062.032
  23466685.092    -3343725.80143  -2588583.95942  23466687.662    23466683.840
  21587024.867   -23233351.67143 -18060893.56242  21587027.072    21587021.043
  20663734.671   -28596831.80044 -22258589.97742  20663736.130    20663731.458
  22926048.339   -14523088.43243 -11297848.71642  22926049.684    22926047.156
 03  3 26  1 34 30.0000000  0  8G31G 3G14G23G 9G18G15G17
  22516488.828   -11095021.26543  -8635326.14342  22516490.964    22516486.654
  21747487.991   -21306687.93243 -16558892.87042  21747490.096    21747485.952
  20590303.635   -25440651.61444 -19804993.25142  20590306.228    20590300.300
  22689911.686   -15224371.25843 -11854626.08542  22689913.741    22689909.400
  23467704.835    -3338366.70543  -2584407.99542  23467707.462    23467703.634
  21596997.870   -23180943.10943 -18020055.71542  21597000.060    21596994.030
  20671646.584   -28555254.41644 -22226192.01442  20671648.047    20671643.348
  22941574.191   -14441499.55143 -11234273.00942  22941575.556    22941573.110
 03  3 26  1 35  0.0000000  0  8G31G 3G14G23G 9G18G15G17
  22511253.178   -11122534.74643  -8656765.21542  22511255.310    22511251.036
  21751883.855   -21283587.78943 -16540892.77542  21751885.921    21751881.789
  20581530.976   -25486752.07244 -19840915.64542  20581533.560    20581527.621
  22700770.828   -15167306.29343 -11810159.88442  22700772.888    22700768.492
  23468840.347    -3332399.58943  -2579758.26342  23468842.898    23468839.064
  21607001.111   -23128375.74543 -17979094.12742  21607003.279    21606997.271
  20679641.092   -28513242.90144 -22193455.77242  20679642.563    20679637.880
  22957159.115   -14359600.76343 -11170455.82242  22957160.414    22957157.942
 03  3 26  1 35 30.0000000  0  8G31G 3G14G23G 9G18G15G17
  22506122.910   -11149494.46143  -8677772.78342  22506125.059    22506120.773
  21756378.618   -21259967.53443 -16522487.39642  21756380.736    21756376.581
  20572854.597   -25532346.66144 -19876443.85242  20572857.176    20572851.217
  22711634.746   -15110216.10543 -11765674.02542  22711636.850    22711632.399
  23470084.741    -3325859.70243  -2574662.21242  23470087.319    23470083.526
  21617027.599   -23075686.02843 -17938037.20142  21617029.798    21617023.781
  20687711.455   -28470832.85644 -22160408.98142  20687712.926    20687708.245
  22972795.886   -14277429.01643 -11106425.92742  22972797.163    22972794.761
 03  3 26  1 36  0.0000000  0  8G31G 3G14G23G 9G18G15G17
  22501102.948   -11175874.66343  -8698328.77942  22501105.088    22501100.851
  21760976.916   -21235803.50843 -16503658.29842  21760979.020    21760974.867
  20564279.431   -25577409.24644 -19911557.51242  20564282.026    20564276.039
  22722508.174   -15053075.97843 -11721149.24442  22722510.284    22722505.804
  23471443.091    -3318721.41743  -2569099.87742  23471445.530    23471441.826
  21627081.983   -23022849.83343 -17896866.14042  21627084.182    21627078.166
  20695862.450   -28427999.07444 -22127032.00942  20695863.931    20695859.262
  22988489.353   -14194959.68543 -11042164.16142  22988490.634    22988488.150
 03  3 26  1 36 30.0000000  0  8G31G 3G14G23G 9G18G15G17
  22496188.964   -11201697.78743  -8718450.68942  22496191.130    22496186.884
  21765673.959   -21211120.29943 -16484424.64542  21765676.097    21765671.940
  20555801.253   -25621962.15844 -19946274.02942  20555803.850    20555797.857
  22733386.631   -14995909.31543 -11676603.78642  22733388.756    22733384.263
  23472910.959    -3311007.35043  -2563088.86942  23472913.380    23472909.723
  21637159.780   -22969890.74343 -17855599.32042  21637161.935    21637155.931
  20704089.669   -28384764.68144 -22093342.87442  20704091.150    20704086.500
  23004234.876   -14112216.65343 -10977689.12442  23004236.133    23004233.659
 03  3 26  1 37  0.0000000  0  8G31G 3G14G23G 9G18G15G17
  22491382.758   -11226954.80443  -8738131.47542  22491384.895    22491380.636
  21770471.203   -21185910.68943 -16464780.80442  21770473.331    21770469.178
  20547421.783   -25665996.24944 -19980586.26642  20547424.392    20547418.412
  22744271.639   -14938708.21343 -11632031.49942  22744273.761    22744269.261
  23474490.182    -3302708.72543  -2556622.38042  23474492.577    23474488.785
  21647262.364   -22916801.14943 -17814230.80842  21647264.531    21647258.558
  20712394.762   -28341121.12844 -22059334.91242  20712396.222    20712391.603
  23020033.835   -14029192.82843 -10912995.29942  23020035.115    23020032.623
 03  3 26  1 37 30.0000000  0  8G31G 3G14G23G 9G18G15G17
  22486685.984   -11251636.27243  -8757363.77442  22486688.136    22486683.903
  21775370.036   -21160167.19643 -16444720.95442  21775372.160    21775368.007
  20539142.905   -25709501.84043 -20014486.68342  20539145.506    20539139.541
  22755164.836   -14881464.08143 -11587425.66842  22755166.931    22755162.447
  23476182.310    -3293816.33243  -2549693.20142  23476184.833    23476180.963
  21657391.366   -22863572.80943 -17772754.18542  21657393.529    21657387.578
  20720779.377   -28297059.59144 -22025001.24842  20720780.844    20720776.229
  23035887.877   -13945879.48543 -10848075.86642  23035889.163    23035886.653
 03  3 26  1 38  0.0000000  0  8G31G 3G14G23G 9G18G15G17
  22482098.508   -11275743.65343  -8776148.73842  22482100.671    22482096.384
  21780369.882   -21133893.02343 -16424247.59242  21780371.972    21780367.810
  20530964.330   -25752480.25743 -20047976.31842  20530966.923    20530960.981
  22766065.744   -14824179.31943 -11542788.19942  22766067.873    22766063.357
  23477987.214    -3284331.83543  -2542302.64942  23477989.701    23477985.776
  21667546.253   -22810208.68443 -17731171.76042  21667548.376    21667542.413
  20729243.146   -28252582.22644 -21990343.56642  20729244.610    20729239.984
  23051796.454   -13862279.71543 -10782933.24642  23051797.714    23051795.207
 03  3 26  1 38 30.0000000  0  8G31G 3G14G23G 9G18G15G17
  22477618.265   -11299287.45543  -8794494.53742  22477620.411    22477616.189
  21785468.325   -21107100.60443 -16403370.39742  21785470.414    21785466.249
  20522884.079   -25794941.98543 -20081063.33342  20522886.675    20522880.746
  22776972.242   -14766865.25743 -11498127.88442  22776974.386    22776969.866
  23479902.638    -3274265.87043  -2534458.99842  23479905.156    23479901.312
  21677724.776   -22756720.26843 -17689492.47842  21677726.890    21677720.907
  20737783.901   -28207700.19344 -21955370.56142  20737785.380    20737780.782
  23067757.313   -13778405.07943 -10717576.44642  23067758.591    23067756.090
 03  3 26  1 39  0.0000000  0  8G31G 3G14G23G 9G18G15G17
  22473244.396   -11322272.39543  -8812404.87042  22473246.543    22473242.233
  21790664.114   -21079796.74643 -16382094.68642  21790666.185    21790662.028
  20514901.319   -25836891.57544 -20113751.28242  20514903.896    20514897.965
  22787883.222   -14709527.61843 -11453449.20642  22787885.372    22787880.860
  23481927.724    -3263623.44043  -2526166.14042  23481930.248    23481926.530
  21687925.766   -22703113.65943 -17647721.10042  21687927.899    21687921.905
  20746400.700   -28162418.70144 -21920086.29042  20746402.174    20746397.590
  23083769.300   -13694261.81543 -10652010.31942  23083770.577    23083768.080
 03  3 26  1 39 30.0000000  0  8G31G 3G14G23G 9G18G15G17
  22468979.389   -11344684.95343  -8829869.18142  22468981.587    22468977.288
  21795959.424   -21051969.84743 -16360411.41242  21795961.499    21795957.344
  20507018.660   -25878315.03544 -20146029.26042  20507021.268    20507015.284
  22798801.154   -14652153.56943 -11408742.15842  22798803.283    22798798.763
  23484065.016    -3252391.35043  -2517413.83742  23484067.481    23484063.865
  21698151.678   -22649376.14143 -17605847.72042  21698153.790    21698147.808
  20755096.048   -28116724.44544 -21884480.38342  20755097.515    20755092.900
  23099834.767   -13609837.73543 -10586225.39342  23099835.981    23099833.546
 03  3 26  1 40  0.0000000  0  8G31G 3G14G23G 9G18G15G17
  22464823.224   -11366525.69743  -8846887.93242  22464825.400    22464821.114
  21801353.785   -21023622.42543 -16338322.53742  21801355.855    21801351.689
  20499236.047   -25919212.85643 -20177897.65042  20499238.633    20499232.641
  22809725.746   -14594744.57043 -11364007.88042  22809727.879    22809723.333
  23486314.455    -3240570.30143  -2508202.58742  23486316.808    23486313.298
  21708402.154   -22595509.58743 -17563873.78742  21708404.266    21708398.278
  20763869.690   -28070618.87844 -21848553.97442  20763871.131    20763866.491
  23115953.196   -13525134.57243 -10520222.99942  23115954.470    23115952.061
 03  3 26  1 40 30.0000000  0  8G31G 3G14G23G 9G18G15G17
  22460774.563   -11387801.39943  -8863466.39342  22460776.748    22460772.468
  21806845.591   -20994762.94143 -16315834.65042  21806847.645    21806843.476
  20491552.208   -25959591.52644 -20209361.50742  20491554.797    20491548.790
  22820655.519   -14537308.02443 -11319252.13342  22820657.669    22820653.166
  23488674.734    -3228167.09843  -2498537.71342  23488677.062    23488673.524
  21718675.693   -22541521.71643 -17521805.31642  21718677.844    21718671.820
  20772720.194   -28024109.03944 -21812312.54742  20772721.670    20772717.014
  23132123.362   -13440160.17643 -10454009.23442  23132124.598    23132122.160
 03  3 26  1 41  0.0000000  0  8G31G 3G14G23G 9G18G15G17
  22456831.936   -11408520.13243  -8879610.84442  22456834.060    22456829.824
  21812432.848   -20965401.53143 -16292955.65542  21812434.942    21812430.804
  20483965.651   -25999459.08244 -20240427.09142  20483968.226    20483962.218
  22831588.831   -14479852.80743 -11274481.84042  22831590.988    22831586.562
  23491144.235    -3215190.23943  -2488425.84042  23491146.514    23491142.882
  21728970.535   -22487421.91243 -17479649.62242  21728972.717    21728966.665
  20781645.970   -27977203.71644 -21775762.94842  20781647.468    20781642.806
  23148343.309   -13354924.23843 -10387591.66842  23148344.457    23148342.087
 03  3 26  1 41 30.0000000  0  8G31G 3G14G23G 9G18G15G17
  22453002.914   -11428641.64943  -8895289.94242  22453005.055    22453000.779
  21818122.914   -20935500.01143 -16269655.80142  21818125.023    21818120.894
  20476484.040   -26038775.09843 -20271062.90542  20476486.606    20476480.596
  22842533.284   -14422339.38143 -11229666.19142  22842535.407    22842531.018
  23493730.380    -3201599.77343  -2477835.82742  23493732.685    23493728.954
  21739294.148   -22433170.99443 -17437376.17842  21739296.325    21739290.267
  20790654.613   -27929863.06744 -21738874.13742  20790656.092    20790651.410
  23164620.374   -13269387.58743 -10320939.79642  23164621.581    23164619.256
 03  3 26  1 42  0.0000000  0  8G31G 3G14G23G 9G18G15G17
  22449286.602   -11448170.57143  -8910507.27542  22449288.792    22449284.567
  21823914.550   -20905064.70043 -16245940.00842  21823916.664    21823912.567
  20469106.532   -26077543.94443 -20301272.35842  20469109.101    20469103.089
  22853487.859   -14364773.01643 -11184809.29642  22853489.916    22853485.518
  23496432.372    -3187400.51143  -2466771.44542  23496434.713    23496430.871
  21749645.478   -22378774.47843 -17394989.27742  21749647.648    21749641.575
  20799745.123   -27882092.06544 -21701649.98842  20799746.597    20799741.925
  23180953.575   -13183556.06643 -10254058.14042  23180954.797    23180952.553
 03  3 26  1 42 30.0000000  0  8G31G 3G14G23G 9G18G15G17
  22445681.927   -11467113.41843  -8925267.92942  22445684.085    22445679.801
  21829806.228   -20874104.01443 -16221814.83042  21829808.306    21829804.210
  20461831.971   -26115771.74544 -20331060.21542  20461834.560    20461828.540
  22864451.118   -14307160.80843 -11139916.67342  22864453.202    22864448.788
  23499249.022    -3172599.11743  -2455237.85542  23499251.397    23499247.424
  21760023.084   -22324239.80443 -17352494.72242  21760025.243    21760019.179
  20808916.223   -27833897.64844 -21664095.90242  20808917.681    20808913.009
  23197341.408   -13097437.76843 -10186953.03142  23197342.624    23197340.408
 03  3 26  1 43  0.0000000  0  8G31G 3G14G23G 9G18G15G17
  22442181.874   -11485506.36643  -8939600.08942  22442184.028    22442179.777
  21835790.550   -20842656.30443 -16197310.15742  21835792.617    21835788.535
  20454653.476   -26153494.76143 -20360454.73642  20454656.075    20454650.051
  22875416.085   -14249539.58443 -11095017.01842  22875418.205    22875413.749
  23502173.282    -3157231.97443  -2443263.43942  23502175.744    23502171.622
  21770419.921   -22269604.16943 -17309921.49442  21770422.062    21770415.986
  20818160.912   -27785316.52744 -21626240.48742  20818162.384    20818157.687
  23213776.828   -13011069.38043 -10119653.05842  23213778.074    23213775.803
 03  3 26  1 43 30.0000000  0  8G31G 3G14G23G 9G18G15G17
  22438792.877   -11503315.49543  -8953477.33142  22438795.063    22438790.773
  21841873.673   -20810689.43743 -16172400.94342  21841875.729    21841871.666
  20447577.541   -26190678.91643 -20389429.36742  20447580.142    20447574.106
  22886389.078   -14191876.00943 -11050084.36942  22886391.233    22886386.779
  23505211.584    -3141265.46443  -2430821.97642  23505214.050    23505209.870
  21780842.173   -22214834.78743 -17267244.04742  21780844.337    21780838.253
  20827485.517   -27736315.49444 -21588057.86942  20827486.968    20827482.303
  23230266.014   -12924418.50843 -10052132.96042  23230267.235    23230264.945
 03  3 26  1 44  0.0000000  0  8G31G 3G14G23G 9G18G15G17
  22435508.828   -11520573.16143  -8966924.86342  22435511.049    22435506.802
  21848049.132   -20778237.41443 -16147113.69142  21848051.176    21848047.102
  20440598.106   -26227356.04444 -20418008.91042  20440600.705    20440594.623
  22897363.873   -14134202.95443 -11005144.32342  22897366.006    22897361.596
  23508357.685    -3124731.97843  -2417938.69442  23508360.190    23508356.029
  21791283.584   -22159964.62943 -17224488.07442  21791285.777    21791279.691
  20836883.824   -27686926.99744 -21549573.33342  20836885.272    20836880.609
  23246802.545   -12837518.78543  -9984418.94942  23246803.778    23246801.499
 03  3 26  1 44 30.0000000  0  8G31G 3G14G23G 9G18G15G17
  22432335.384   -11537249.54243  -8979919.44342  22432337.615    22432333.396
  21854322.150   -20745272.57743 -16121426.83742  21854324.184    21854320.130
  20433720.848   -26263496.24043 -20446170.06942  20433723.431    20433717.308
  22908346.095   -14076491.14043 -10960174.08142  22908348.177    22908343.770
  23511617.279    -3107602.23343  -2404590.79642  23511619.763    23511615.642
  21801749.738   -22104964.64443 -17181630.93542  21801751.908    21801745.801
  20846361.487   -27637121.68343 -21510764.00542  20846362.919    20846358.248
  23263391.828   -12750341.57243  -9916488.72042  23263393.037    23263390.761
 03  3 26  1 45  0.0000000  0  8G31G 3G14G23G 9G18G15G17
  22429267.459   -11553371.92443  -8992482.33942  22429269.642    22429265.404
  21860687.165   -20711824.12943 -16095363.14842  21860689.224    21860685.192
  20426940.601   -26299126.57243 -20473933.93142  20426943.171    20426937.045
  22919330.345   -14018768.20543 -10915195.16742  22919332.458    22919328.094
  23514985.146    -3089903.59443  -2390799.60242  23514987.640    23514983.501
  21812235.204   -22049862.99943 -17138694.58542  21812237.392    21812231.286
  20855913.201   -27586927.12543 -21471651.37242  20855914.643    20855909.950
  23280028.602   -12662914.94643  -9848364.13742  23280029.854    23280027.531
 03  3 26  1 45 30.0000000  0  8G31G 3G14G23G 9G18G15G17
  22426313.221   -11568896.48143  -9004579.39142  22426315.397    22426311.179
  21867152.276   -20677849.93043 -16068889.77842  21867154.323    21867150.312
  20420265.742   -26334203.08043 -20501266.24142  20420268.317    20420262.177
  22930325.013   -13960990.79843 -10870173.80242  22930327.099    22930322.734
  23518469.523    -3071592.55443  -2376531.22342  23518472.003    23518467.859
  21822748.274   -21994616.56043 -17095645.40942  21822750.436    21822744.322
  20865547.243   -27536300.00044 -21432201.67442  20865548.678    20865543.972
  23296720.843   -12575196.75543  -9780012.36442  23296722.059    23296719.818
 03  3 26  1 46  0.0000000  0  8G31G 3G14G23G 9G18G15G17
  22423469.989   -11583837.98243  -9016222.12342  22423472.171    22423467.878
  21873714.280   -20643366.65243 -16042019.72642  21873716.315    21873712.304
  20413693.558   -26368740.10143 -20528178.16842  20413696.115    20413689.963
  22941327.147   -13903174.12943 -10825121.85242  22941329.245    22941324.868
  23522067.642    -3052684.19743  -2361797.39042  23522070.055    23522065.959
  21833285.893   -21939241.05843 -17052495.66542  21833288.040    21833281.907
  20875260.705   -27485255.47444 -21392426.72442  20875262.143    20875257.439
  23313465.634   -12487202.25943  -9711445.29542  23313466.940    23313464.633
 03  3 26  1 46 30.0000000  0  8G31G 3G14G23G 9G18G15G17
  22420738.629   -11598191.16543  -9027406.42342  22420740.833    22420736.560
  21880373.755   -20608371.03043 -16014750.43742  21880375.789    21880371.780
  20407225.068   -26402732.19543 -20554665.47742  20407227.630    20407221.445
  22952337.754   -13845313.21543 -10780035.42242  22952339.792    22952335.478
  23525780.369    -3033173.55643  -2346594.26342  23525782.686    23525778.625
  21843848.962   -21883731.87543 -17009241.75042  21843851.092    21843844.928
  20885054.547   -27433788.46744 -21352322.57242  20885056.009    20885051.272
  23330263.749   -12398927.76343  -9642660.03042  23330265.055    23330262.835
 03  3 26  1 47  0.0000000  0  8G31G 3G14G23G 9G18G15G17
  22418115.714   -11611974.90543  -9038146.99742  22418117.866    22418113.605
  21887126.726   -20572883.77443 -15987098.05142  21887128.784    21887124.827
  20400856.676   -26436198.05944 -20580742.73842  20400859.261    20400853.071
  22963353.068   -13787427.33843 -10734929.53942  22963355.135    22963350.781
  23529604.104    -3013079.70043  -2330936.67242  23529606.356    23529602.309
  21854433.752   -21828108.56843 -16965898.91342  21854435.852    21854429.695
  20894925.072   -27381918.47644 -21311904.40442  20894926.531    20894921.817
  23347111.425   -12310392.68643  -9573671.73042  23347112.736    23347110.655
 03  3 26  1 47 30.0000000  0  8G31G 3G14G23G 9G18G15G17
  22415597.592   -11625207.86443  -9048458.40042  22415599.706    22415595.423
  21893969.423   -20536925.32443 -15959078.50442  21893971.466    21893967.528
  20394584.948   -26469156.00843 -20606424.21642  20394587.539    20394581.363
  22974369.523   -13729535.57343 -10689819.07542  22974371.583    22974367.262
  23533535.248    -2992421.47743  -2314839.31742  23533537.472    23533533.426
  21865036.585   -21772390.25743 -16922482.04542  21865038.719    21865032.558
  20904868.717   -27329664.42744 -21271186.97542  20904870.159    20904865.439
  23364004.991   -12221616.99743  -9504495.93242  23364006.256    23364004.182
 03  3 26  1 48  0.0000000  0  8G31G 3G14G23G 9G18G15G17
  22413190.204   -11637858.71943  -9058316.21142  22413192.342    22413188.053
  21900907.420   -20500466.24643 -15930668.86142  21900909.429    21900905.488
  20388415.820   -26501574.74144 -20631685.52642  20388418.434    20388412.249
  22985392.988   -13671606.92643 -10644679.86442  22985395.038    22985390.734
  23537579.612    -2971167.78743  -2298277.96242  23537581.867    23537577.882
  21875663.251   -21716546.59143 -16878967.50742  21875665.418    21875659.267
  20914891.318   -27276995.42944 -21230146.20442  20914892.737    20914888.016
  23380950.054   -12132570.38343  -9435109.03642  23380951.288    23380949.291
 03  3 26  1 48 30.0000000  0  8G31G 3G14G23G 9G18G15G17
  22410892.149   -11649935.21343  -9067726.46442  22410894.285    22410889.985
  21907938.797   -20463516.14443 -15901876.60342  21907940.826    21907936.893
  20382347.941   -26533461.54243 -20656532.34142  20382350.564    20382344.356
  22996422.004   -13613649.24043 -10599518.03342  22996424.033    22996419.721
  23541735.747    -2949326.64043  -2281258.84942  23541737.992    23541734.214
  21886312.233   -21660585.71343 -16835361.63042  21886314.409    21886308.269
  20924991.379   -27223919.32044 -21188788.20442  20924992.811    20924988.086
  23397944.891   -12043262.24743  -9365518.33342  23397946.100    23397944.123
 03  3 26  1 49  0.0000000  0  8G31G 3G14G23G 9G18G15G17
  22408710.961   -11661397.43443  -9076658.07042  22408713.065    22408708.791
  21915070.875   -20426036.93243 -15872672.04742  21915072.911    21915068.973
  20376388.923   -26564776.22444 -20680933.35042  20376391.548    20376385.318
  23007464.040   -13555622.92143 -10554302.72642  23007466.078    23007461.776
  23546011.192    -2926858.63643  -2263751.28542  23546013.500    23546009.810
  21896991.025   -21604468.33243 -16791633.80042  21896993.220    21896987.050
  20935176.388   -27170396.64644 -21147082.23042  20935177.828    20935173.109
  23414996.851   -11953653.41043  -9295693.33342  23414998.089    23414996.202
 03  3 26  1 49 30.0000000  0  8G31G 3G14G23G 9G18G15G17
  22406634.582   -11672308.70943  -9085160.36842  22406636.722    22406632.389
  21922291.292   -20388093.40343 -15843105.69242  21922293.378    21922289.418
  20370526.743   -26595582.06843 -20704937.86242  20370529.363    20370523.113
  23018507.091   -13497591.35843 -10509083.33042  23018509.132    23018504.796
  23550393.880    -2903827.35243  -2245804.80142  23550396.209    23550392.533
  21907687.473   -21548258.26143 -16747833.74642  21907689.647    21907683.470
  20945434.270   -27116491.01343 -21105077.85042  20945435.735    20945431.016
  23432093.857   -11863808.45643  -9225684.34142  23432095.055    23432093.184
 03  3 26  1 50  0.0000000  0  8G31G 3G14G23G 9G18G15G17
  22404668.739   -11682639.41743  -9093210.27142  22404670.832    22404666.540
  21929605.288   -20349658.16343 -15813156.18142  21929607.359    21929603.395
  20364767.090   -26625849.06043 -20728522.48442  20364769.709    20364763.458
  23029556.678   -13439525.12443 -10463836.92042  23029558.725    23029554.402
  23554889.449    -2880203.23843  -2227396.36842  23554891.767    23554888.052
  21918407.048   -21491926.39643 -16703938.78442  21918409.218    21918403.054
  20955770.621   -27062173.10343 -21062752.21142  20955772.074    20955767.381
  23449241.365   -11773697.93743  -9155468.40842  23449242.607    23449240.742
 03  3 26  1 50 30.0000000  0  8G31G 3G14G23G 9G18G15G17
  22402814.511   -11692383.31843  -9100802.92642  22402816.639    22402812.336
  21937013.740   -20310726.60943 -15782819.93142  21937015.806    21937011.854
  20359111.243   -26655570.59543 -20751682.07842  20359113.843    20359107.594
  23040614.060   -13381418.08543 -10418558.72042  23040616.118    23040611.766
  23559498.980    -2855980.20043  -2208521.24142  23559501.292    23559497.467
  21929150.906   -21435467.06043 -16659944.49342  21929153.065    21929146.908
  20966186.622   -27007436.73943 -21020100.50842  20966188.034    20966183.363
  23466440.274   -11683317.15643  -9085041.87742  23466441.510    23466439.658
 03  3 26  1 51  0.0000000  0  8G31G 3G14G23G 9G18G15G17
  22401069.634   -11701552.53443  -9107947.77142  22401071.786    22401067.510
  21944513.915   -20271312.95643 -15752108.01842  21944515.989    21944512.019
  20353556.914   -26684758.66843 -20774425.98942  20353559.501    20353553.266
  23051676.863   -13323282.45043 -10373258.23242  23051678.946    23051674.621
  23564220.039    -2831170.77243  -2189189.19342  23564222.450    23564218.538
  21939916.609   -21378892.77043 -16615860.62242  21939918.780    21939912.628
  20976679.838   -26952294.50343 -20977132.53742  20976681.261    20976676.611
  23483688.227   -11592678.68243  -9014414.55842  23483689.425    23483687.610
 03  3 26  1 51 30.0000000  0  8G31G 3G14G23G 9G18G15G17
  22399433.521   -11710150.29543  -9114647.33642  22399435.673    22399431.422
  21952104.892   -20231422.16643 -15721024.31142  21952106.992    21952103.022
  20348103.574   -26713416.13643 -20796756.44342  20348106.133    20348099.883
  23062744.527   -13265121.52143 -10327938.03742  23062746.576    23062742.258
  23569052.085    -2805778.46343  -2169402.94642  23569054.556    23569050.509
  21950703.538   -21322207.05943 -16571689.93142  21950705.738    21950699.562
  20987249.665   -26896749.73243 -20933850.90342  20987251.072    20987246.451
  23500984.442   -11501787.00343  -8943589.92442  23500985.651    23500983.714
 03  3 26  1 52  0.0000000  0  8G31G 3G14G23G 9G18G15G17
  22397904.581   -11718184.80643  -9120907.98942  22397906.752    22397902.537
  21959784.813   -20191064.05343 -15689576.45442  21959786.907    21959782.984
  20342749.640   -26741550.94843 -20818679.63242  20342752.211    20342745.959
  23073815.486   -13206943.42543 -10282604.46442  23073817.519    23073813.189
  23573993.394    -2779811.65843  -2149169.04042  23573995.924    23573991.719
  21961510.010   -21265418.48543 -16527439.08442  21961512.236    21961506.090
  20997894.473   -26840810.80143 -20890262.12942  20997895.905    20997891.287
  23518327.076   -11410651.23643  -8872575.10742  23518328.277    23518326.397
 03  3 26  1 52 30.0000000  0  8G31G 3G14G23G 9G18G15G17
  22396488.908   -11725624.32243  -9126705.02642  22396491.074    22396486.822
  21967559.336   -20150208.78943 -15657741.20142  21967561.427    21967557.521
  20337501.258   -26769131.16543 -20840170.67342  20337503.818    20337497.580
  23084895.740   -13148716.37943 -10237232.74842  23084897.808    23084893.449
  23579049.949    -2753239.01343  -2128463.05542  23579052.436    23579048.229
  21972342.035   -21208495.76743 -16483083.71642  21972344.230    21972338.115
  21008620.313   -26784446.37543 -20846341.80842  21008621.722    21008617.091
  23535722.023   -11319240.39443  -8801345.92342  23535723.171    23535721.317
 03  3 26  1 53  0.0000000  0  8G31G 3G14G23G 9G18G15G17
  22395180.608   -11732499.47443  -9132062.29542  22395182.726    22395178.526
  21975422.289   -20108888.90843 -15625543.92042  21975424.387    21975420.436
  20332352.673   -26796187.10543 -20861253.18742  20332355.227    20332348.964
  23095979.463   -13090471.05943 -10191846.79342  23095981.546    23095977.172
  23584215.837    -2726091.32343  -2107308.98942  23584218.384    23584214.207
  21983193.668   -21151469.86043 -16438647.93242  21983195.868    21983189.792
  21019421.178   -26727687.36943 -20802114.02242  21019422.614    21019417.975
  23553163.291   -11227586.24443  -8729927.16442  23553164.437    23553162.589
 03  3 26  1 53 30.0000000  0  8G31G 3G14G23G 9G18G15G17
  22393982.710   -11738794.58043  -9136967.57842  22393984.801    22393980.614
  21983376.263   -20067090.40043 -15592973.67942  21983378.381    21983374.425
  20327306.868   -26822702.73543 -20881914.68242  20327309.458    20327303.167
  23107069.665   -13032191.71643 -10146434.32342  23107071.729    23107067.334
  23589494.106    -2698353.38343  -2085694.98742  23589496.606    23589492.528
  21994067.906   -21094325.39343 -16394119.76542  21994070.094    21994064.031
  21030300.139   -26670518.17343 -20757566.60442  21030301.554    21030296.923
  23570653.642   -11135674.00843  -8658307.30542  23570654.735    23570652.891
 03  3 26  1 54  0.0000000  0  8G31G 3G14G23G 9G18G15G17
  22392895.141   -11744509.93143  -9141421.10442  22392897.243    22392893.015
  21991420.948   -20024815.42843 -15560032.17342  21991423.034    21991419.078
  20322363.847   -26848678.23443 -20902155.29742  20322366.445    20322360.152
  23118166.322   -12973878.50743 -10100995.45542  23118168.364    23118163.941
  23594884.823    -2670025.83143  -2063621.54242  23594887.171    23594883.055
  22004964.625   -21037062.72543 -16349499.49842  22004966.808    22004960.731
  21041257.073   -26612939.20043 -20712699.88142  21041258.491    21041253.843
  23588192.969   -11043504.65843  -8586487.07442  23588193.935    23588192.142
 03  3 26  1 54 30.0000000  0  8G31G 3G14G23G 9G18G15G17
  22391921.949   -11749623.74243  -9145405.88042  22391924.111    22391919.865
  21999560.137   -19982043.81643 -15526703.67142  21999562.220    21999558.258
  20317527.853   -26874091.52343 -20921957.82942  20317530.430    20317524.120
  23129273.561   -12915509.57443 -10055513.17442  23129275.622    23129271.185
  23600391.693    -2641087.04943  -2041071.82242  23600394.071    23600389.918
  22015887.917   -20979660.39443 -16304770.40142  22015890.136    22015884.010
  21052296.062   -26554928.90743 -20667497.06842  21052297.492    21052292.826
  23605785.113   -10951057.27543  -8514450.21942  23605786.069    23605784.289
 03  3 26  1 55  0.0000000  0  8G31G 3G14G23G 9G18G15G17
  22391057.898   -11754164.36443  -9148944.03042  22391060.049    22391055.830
  22007788.087   -19938805.76543 -15493011.71242  22007790.192    22007786.231
  20312793.535   -26898970.40243 -20941343.93642  20312796.106    20312789.787
  23140386.092   -12857112.87543 -10010009.25042  23140388.162    23140383.722
  23606009.383    -2611565.68543  -2018068.13742  23606011.780    23606007.626
  22026832.368   -20922146.90543 -16259954.69242  22026834.586    22026828.470
  21063411.680   -26496515.86643 -20621980.42442  21063413.114    21063408.467
  23623424.635   -10858361.06143  -8442219.44742  23623425.514    23623423.889
 03  3 26  1 55 30.0000000  0  8G31G 3G14G23G 9G18G15G17
  22390297.435   -11758161.01843  -9152058.30442  22390299.520    22390295.299
  22016098.923   -19895132.12543 -15458980.33642  22016101.018    22016097.068
  20308155.387   -26923343.88943 -20960336.23142  20308157.961    20308151.640
  23151498.381   -12798717.54143  -9964506.40042  23151500.446    23151495.995
  23611732.270    -2581491.30343  -1994633.52642  23611734.740    23611730.572
  22037792.410   -20864551.71143 -16215075.32142  22037794.591    22037788.481
  21074598.357   -26437729.39043 -20576172.79042  21074599.779    21074595.190
  23641105.799   -10765446.51243  -8369818.54342  23641106.643    23641105.003
 03  3 26  1 56  0.0000000  0  8G31G 3G14G23G 9G18G15G17
  22389647.369   -11761576.77843  -9154719.92942  22389649.526    22389645.280
  22024499.357   -19850987.78943 -15424582.18842  22024501.422    22024497.461
  20303620.498   -26947174.66843 -20978905.63742  20303623.084    20303616.758
  23162617.470   -12740286.34643  -9918975.59042  23162619.521    23162615.050
  23617567.518    -2550827.04543  -1970739.26442  23617569.896    23617565.814
  22048775.033   -20806837.78143 -16170103.42242  22048777.183    22048771.083
  21085863.139   -26378532.66743 -20530045.48742  21085864.556    21085859.970
  23658835.381   -10672277.01643  -8297218.98642  23658836.382    23658834.593
 03  3 26  1 56 30.0000000  0  8G31G 3G14G23G 9G18G15G17
  22389108.780   -11764407.16643  -9156925.42242  22389110.960    22389106.638
  22032989.826   -19806370.02043 -15389815.12742  22032991.927    22032987.991
  20299189.751   -26970458.11843 -20997048.55342  20299192.329    20299186.031
  23173744.250   -12681814.67143  -9873413.25742  23173746.303    23173741.828
  23623515.783    -2519568.65543  -1946382.06342  23623518.140    23623514.072
  22059781.029   -20749000.81243 -16125035.65842  22059783.200    22059777.075
  21097206.780   -26318921.45443 -20483595.20642  21097208.190    21097203.599
  23676614.190   -10578848.74743  -8224417.78442  23676615.146    23676613.535
 03  3 26  1 57  0.0000000  0  8G31G 3G14G23G 9G18G15G17
  22388678.931   -11766666.22843  -9158685.73042  22388681.084    22388676.745
  22041567.409   -19761294.63143 -15354691.48042  22041569.499    22041565.574
  20294860.582   -26993207.94843 -21014775.66242  20294863.146    20294856.847
  23184876.165   -12623316.13843  -9827829.98342  23184878.218    23184873.713
  23629574.399    -2487730.38843  -1921572.99442  23629576.760    23629572.559
  22070807.751   -20691055.02943 -16079883.09242  22070809.898    22070803.773
  21108626.612   -26258909.97443 -20436833.03242  21108628.021    21108623.408
  23694439.355   -10485176.65743  -8151426.59642  23694440.490    23694438.866
 03  3 26  1 57 30.0000000  0  8G31G 3G14G23G 9G18G15G17
  22388355.485   -11768365.62043  -9160009.92242  22388357.686    22388353.351
  22050229.586   -19715774.85443 -15319221.55642  22050231.650    22050227.695
  20290630.860   -27015435.28243 -21032095.62942  20290633.415    20290627.091
  23196011.061   -12564802.01643  -9782234.56342  23196013.114    23196008.573
  23635740.989    -2455324.40643  -1896321.56142  23635743.346    23635739.198
  22081852.985   -20633011.90343 -16034654.68842  22081855.140    22081849.004
  21120120.417   -26198509.76743 -20389767.96242  21120121.828    21120117.193
  23712308.598   -10391272.94943  -8078254.91942  23712309.856    23712308.144
 03  3 26  1 58  0.0000000  0  8G31G 3G14G23G 9G18G15G17
  22388144.141   -11769476.44243  -9160875.49042  22388146.298    22388141.990
  22058981.436   -19669783.56643 -15283384.22542  22058983.492    22058979.546
  20286506.033   -27037111.23143 -21048985.94742  20286508.604    20286502.260
  23207154.449   -12506243.13943  -9736604.25942  23207156.478    23207151.989
  23642021.189    -2422322.08043  -1870605.44742  23642023.525    23642019.310
  22092922.159   -20574842.86543 -15989328.16542  22092924.332    22092918.176
  21131693.645   -26137692.11743 -20342377.60842  21131695.052    21131690.416
  23730227.306   -10297109.77243  -8004881.03542  23730228.623    23730226.870
 03  3 26  1 58 30.0000000  0  8G31G 3G14G23G 9G18G15G17
  22388042.048   -11770013.10743  -9161293.66142  22388044.194    22388039.843
  22067819.996   -19623336.91643 -15247192.06942  22067822.011    22067818.059
  20282483.459   -27058249.71243 -21065457.45642  20282486.049    20282479.708
  23218303.644   -12447653.59543  -9690950.07742  23218305.660    23218301.177
  23648411.971    -2388738.25143  -1844436.20342  23648414.324    23648410.102
  22104012.570   -20516562.20943 -15943914.66542  22104014.776    22104008.598
  21143343.529   -26076471.52843 -20294673.27142  21143344.935    21143340.327
  23748192.425   -10202702.53243  -7931316.98542  23748193.812    23748191.953
 03  3 26  1 59  0.0000000  0  8G31G 3G14G23G 9G18G15G17
  22388051.046   -11769965.93143  -9161256.89042  22388053.191    22388048.847
  22076746.683   -19576426.93743 -15210638.86742  22076748.721    22076744.784
  20278565.054   -27078840.87543 -21081502.48542  20278567.646    20278561.302
  23229460.610   -12389023.31743  -9645264.14342  23229462.596    23229458.167
  23654915.163    -2354563.30143  -1817806.35442  23654917.520    23654913.400
  22115126.124   -20458160.05143 -15898406.49242  22115128.337    22115122.145
  21155071.944   -26014838.29143 -20246647.38942  21155073.348    21155068.769
  23766205.868   -10108041.46343  -7857555.14842  23766207.263    23766205.420
 03  3 26  1 59 30.0000000  0  8G31G 3G14G23G 9G18G15G17
  22388168.216   -11769350.24243  -9160777.11942  22388170.365    22388166.008
  22085758.360   -19529070.38843 -15173737.69342  22085760.392    22085756.472
  20274748.058   -27098899.31843 -21097132.40542  20274750.625    20274744.286
  23240622.508   -12330367.09243  -9599558.00342  23240624.526    23240620.075
  23661527.976    -2319812.80043  -1790728.01442  23661530.375    23661526.203
  22126259.927   -20399651.56943 -15852815.46642  22126262.128    22126255.984
  21166876.008   -25952807.75943 -20198311.92642  21166877.401    21166872.774
  23784264.456   -10013143.18043  -7783608.45342  23784265.865    23784264.036
 03  3 26  2  0  0.0000000  0  8G31G 3G14G23G 9G18G15G17
  22388390.192   -11768183.47143  -9159867.93442  22388392.358    22388388.043
  22094851.351   -19481286.38643 -15136503.43642  22094853.404    22094849.519
  20271029.124   -27118442.37943 -21112360.73042  20271031.702    20271025.352
  23251786.144   -12271701.89143  -9553844.86342  23251788.173    23251783.689
  23668246.860    -2284504.61943  -1763215.13542  23668249.277    23668245.111
  22137410.653   -20341053.98043 -15807155.00542  22137412.844    22137406.734
  21178752.290   -25890397.59543 -20149680.64842  21178753.681    21178749.044
  23802364.687    -9918025.73443  -7709491.00042  23802366.193    23802364.324
 03  3 26  2  0 30.0000000  0  8G31G 3G14G23G 9G18G15G17
  22388716.636   -11766467.91343  -9158531.10942  22388718.805    22388714.507
  22104024.931   -19433078.77143 -15098939.08842  22104026.993    22104023.153
  20267407.868   -27137472.01043 -21127188.98042  20267410.459    20267404.104
  23262951.157   -12213029.42543  -9508126.05342  23262953.198    23262948.668
  23675071.384    -2248641.49443  -1735269.82442  23675073.815    23675069.517
  22148577.877   -20282369.71043 -15761426.99842  22148580.080    22148573.931
  21190700.354   -25827610.21243 -20100755.43842  21190701.743    21190697.089
  23820506.112    -9822691.71443  -7635204.78742  23820507.608    23820505.801
 03  3 26  2  1  0.0000000  0  8G31G 3G14G23G 9G18G15G17
  22389150.199   -11764189.35843  -9156755.58542  22389152.380    22389148.050
  22113281.485   -19384435.37343 -15061035.17642  22113283.531    22113279.731
  20263887.112   -27155973.68943 -21141605.83742  20263889.707    20263883.302
  23274120.327   -12154335.00943  -9462390.15642  23274122.345    23274117.866
  23682004.212    -2212209.41843  -1706881.17342  23682006.646    23682002.217
  22159764.400   -20223584.21143 -15715620.11842  22159766.560    22159760.429
  21202722.890   -25764431.42643 -20051525.24142  21202724.261    21202719.632
  23838691.293    -9727127.78543  -7560739.43042  23838692.833    23838691.020
 03  3 26  2  1 30.0000000  0  8G31G 3G14G23G 9G18G15G17
  22389697.018   -11761315.92843  -9154516.51742  22389699.157    22389694.798
  22122626.727   -19335325.89043 -15022768.07342  22122628.788    22122624.990
  20260472.934   -27173915.29343 -21155586.27542  20260475.522    20260469.085
  23285299.822   -12095586.19143  -9416611.84642  23285301.881    23285297.388
  23689051.241    -2175176.76543  -1678024.54142  23689053.684    23689049.269
  22170976.256   -20164665.43943 -15669709.38442  22170978.439    22170972.318
  21214826.000   -25700829.21043 -20001965.09142  21214827.384    21214822.748
  23856926.274    -9631302.70443  -7486070.55642  23856927.778    23856925.892
 03  3 26  2  2  0.0000000  0  8G31G 3G14G23G 9G18G15G17
  22390351.884   -11757874.23043  -9151834.64742  22390354.029    22390349.673
  22132055.320   -19285778.54343 -14984159.77742  22132057.374    22132053.556
  20257160.375   -27191322.84643 -21169150.56942  20257162.943    20257156.497
  23296484.783   -12036808.86543  -9370811.34342  23296486.844    23296482.337
  23696207.444    -2137570.30243  -1648720.78942  23696209.907    23696205.601
  22182208.500   -20105639.61643 -15623715.24042  22182210.673    22182204.568
  21227004.615   -25636830.19943 -19952095.75042  21227006.006    21227001.392
  23875205.686    -9535244.09143  -7411219.73842  23875207.236    23875205.231
 03  3 26  2  2 30.0000000  0  8G31G 3G14G23G 9G18G15G17
  22391118.866   -11753843.78143  -9148694.00242  22391120.984    22391116.608
  22141570.817   -19235774.38843 -14945195.53542  22141572.869    22141569.085
  20253953.394   -27208175.54543 -21182282.50942  20253955.954    20253949.484
  23307679.179   -11977981.93043  -9324972.18042  23307681.239    23307676.801
  23703476.735    -2099370.05843  -1618954.34342  23703479.164    23703474.893
  22193465.085   -20046486.00443 -15577621.52242  22193467.247    22193461.140
  21239262.670   -25572413.90343 -19901901.25742  21239264.031    21239259.424
  23893533.488    -9438931.47943  -7336170.98842  23893535.025    23893533.072
 03  3 26  2  3  0.0000000  0  8G31G 3G14G23G 9G18G15G17
  22391989.637   -11749267.75643  -9145128.23342  22391991.770    22391987.364
  22151164.704   -19185358.19843 -14905910.21342  22151166.781    22151162.991
  20250843.861   -27224516.25843 -21195015.50142  20250846.417    20250839.895
  23318874.955   -11919147.82443  -9279127.43642  23318877.007    23318872.565
  23710850.831    -2060619.23343  -1588758.87442  23710853.144    23710848.925
  22204737.754   -19987247.63743 -15531461.74942  22204739.924    22204733.829
  21251591.907   -25507623.34843 -19851415.12742  21251593.294    21251588.642
  23911901.391    -9342408.12443  -7260958.00042  23911902.952    23911900.915
 03  3 26  2  3 30.0000000  0  8G31G 3G14G23G 9G18G15G17
  22392965.913   -11744136.96243  -9141130.18142  22392968.104    22392963.676
  22160838.485   -19134522.41643 -14866297.94942  22160840.521    22160836.717
  20247833.518   -27240335.46143 -21207342.12142  20247836.107    20247829.560
  23330073.935   -11860296.75843  -9233269.45242  23330075.954    23330071.578
  23718331.283    -2021309.17143  -1558127.64042  23718333.584    23718329.332
  22216028.401   -19927914.85343 -15485228.41342  22216030.595    22216024.452
  21263994.138   -25442449.32943 -19800630.19242  21263995.500    21263990.863
  23930310.801    -9245666.24443  -7185574.74942  23930312.242    23930310.189
 03  3 26  2  4  0.0000000  0  8G31G 3G14G23G 9G18G15G17
  22394050.265   -11738438.50843  -9136689.79642  22394052.450    22394048.021
  22170594.202   -19083255.66243 -14826349.85742  22170596.297    22170592.487
  20244924.988   -27255619.79443 -21219251.96042  20244927.558    20244921.012
  23341278.754   -11801414.99243  -9187387.57942  23341280.768    23341276.438
  23725920.626    -1981427.26843  -1527050.80642  23725922.916    23725918.616
  22227339.582   -19868474.32343 -15438911.11042  22227341.759    22227335.607
  21276471.777   -25376878.87543 -19749536.34542  21276473.139    21276468.509
  23948764.131    -9148693.26643  -7110011.41342  23948765.563    23948763.570
 03  3 26  2  4 30.0000000  0  8G31G 3G14G23G 9G18G15G17
  22395238.460   -11732194.05543  -9131823.95542  22395240.697    22395236.273
  22180427.504   -19031581.26843 -14786084.12642  22180429.613    22180425.806
  20242114.150   -27270390.63843 -21230761.67942  20242116.744    20242110.175
  23352485.420   -11742523.50443  -9141498.11742  23352487.433    23352483.138
  23733614.474    -1940995.34443  -1495545.40342  23733616.778    23733612.544
  22238667.225   -19808947.33243 -15392526.44342  22238669.375    22238663.248
  21289020.742   -25310933.60843 -19698150.43142  21289022.115    21289017.475
  23967257.194    -9051511.34843  -7034285.25642  23967258.657    23967256.646
 03  3 26  2  5  0.0000000  0  8G31G 3G14G23G 9G18G15G17
  22396538.187   -11725364.01843  -9126501.82042  22396540.400    22396535.965
  22190345.641   -18979461.16643 -14745471.08842  22190347.752    22190343.972
  20239408.686   -27284607.98743 -21241840.09942  20239411.254    20239404.658
  23363701.601   -11683581.99843  -9095569.68342  23363703.590    23363699.329
  23741420.496    -1899974.20443  -1463580.85042  23741422.875    23741418.504
  22250018.904   -19749293.89443 -15346043.24542  22250021.062    22250014.933
  21301648.604   -25244573.86243 -19646441.54942  21301649.978    21301645.343
  23985797.517    -8954081.49043  -6958365.90042  23985798.883    23985797.036
 03  3 26  2  5 30.0000000  0  8G31G 3G14G23G 9G18G15G17
  22397945.152   -11717970.16443  -9120740.35242  22397947.381    22397942.967
  22200344.224   -18926918.50543 -14704528.78042  22200346.308    22200342.541
  20236804.449   -27298293.24143 -21252503.90142  20236807.027    20236800.394
  23374923.365   -11624611.23643  -9049618.43742  23374925.334    23374921.063
  23749334.454    -1858385.83443  -1431174.30342  23749336.903    23749332.492
  22261390.600   -19689535.25343 -15299478.06642  22261392.754    22261386.615
  21314351.196   -25177821.36243 -19594426.62342  21314352.568    21314347.926
  24004380.682    -8856425.90243  -6882270.65042  24004382.160    24004380.244
 03  3 26  2  6  0.0000000  0  8G31G 3G14G23G 9G18G15G17
  22399458.721   -11710015.85343  -9114542.16542  22399460.986    22399456.611
  22210422.213   -18873958.41643 -14663261.19742  22210424.275    22210420.543
  20234300.924   -27311449.24243 -21262755.29942  20234303.509    20234296.840
  23386150.253   -11565613.72243  -9003646.36542  23386152.276    23386147.898
  23757355.699    -1816233.91443  -1398328.64542  23757358.126    23757353.699
  22272781.692   -19629674.44843 -15252833.28142  22272783.860    22272777.736
  21327127.855   -25110679.66943 -19542108.43142  21327129.206    21327124.601
  24023006.247    -8758548.22043  -6806002.33742  24023007.643    24023005.861
 03  3 26  2  6 30.0000000  0  8G31G 3G14G23G 9G18G15G17
  22401076.307   -11701515.46043  -9107918.46342  22401078.507    22401074.146
  22220576.622   -18820596.69343 -14621680.66542  22220578.693    22220574.977
  20231895.404   -27324090.05443 -21272605.24842  20231897.997    20231891.346
  23397379.609   -11506602.98543  -8957663.96642  23397381.655    23397377.303
  23765481.370    -1773533.23843  -1365055.36742  23765483.799    23765479.405
  22284189.608   -19569725.29543 -15206119.65342  22284191.791    22284185.694
  21339975.889   -25043162.67943 -19489497.80342  21339977.259    21339972.685
  24041671.083    -8660463.65443  -6729572.81742  24041672.510    24041670.790
 03  3 26  2  7  0.0000000  0  8G31G 3G14G23G 9G18G15G17
  22402800.597   -11692453.97543  -9100857.55542  22402802.803    22402798.444
  22230810.053   -18766819.90143 -14579776.69442  22230812.088    22230808.380
  20229590.842   -27336200.37443 -21282041.82342  20229593.437    20229586.809
  23408614.493   -11447563.13843  -8911658.90042  23408616.600    23408612.242
  23773714.278    -1730268.78643  -1331342.77542  23773716.640    23773712.332
  22295617.360   -19509672.05943 -15159324.91042  22295619.520    22295613.403
  21352898.236   -24975255.24943 -19436582.93642  21352899.586    21352895.068
  24060378.252    -8562157.26043  -6652970.43042  24060379.590    24060377.820
 03  3 26  2  7 30.0000000  0  8G31G 3G14G23G 9G18G15G17
  22404635.023   -11682814.03743  -9093345.90242  22404637.210    22404632.840
  22241125.438   -18712612.22143 -14537536.97142  22241127.485    22241123.789
  20227390.639   -27347762.26243 -21291051.05242  20227393.241    20227386.621
  23419858.495   -11388475.66143  -8865616.71442  23419860.581    23419856.205
  23782057.667    -1686423.65843  -1297177.72742  23782060.018    23782055.730
  22307068.303   -19449496.86343 -15112435.14242  22307070.465    22307064.346
  21365898.235   -24906939.87743 -19383350.19042  21365899.567    21365895.077
  24079130.719    -8463612.50543  -6576182.31442  24079132.091    24079130.269
 03  3 26  2  8  0.0000000  0  9G31G 3G25G14G23G 9G18G15G17
  22406571.385   -11672638.42243  -9085416.85242  22406573.584    22406569.162
  22251514.429   -18658017.83543 -14494995.91642  22251516.484    22251512.774
  24539891.404    -6435008.87353  -4881789.25252  24539894.452    24539894.421
  20225286.753   -27358818.21343 -21299666.04342  20225289.341    20225282.708
  23431103.534   -11329382.44643  -8819570.06942  23431105.587    23431101.314
  23790503.375    -1642041.00443  -1262593.82542  23790505.741    23790501.468
  22318534.433   -19389241.82343 -15065483.15042  22318536.628    22318530.496
  21378967.718   -24838259.38943 -19329832.93442  21378969.035    21378964.579
  24097920.381    -8364872.14743  -6499241.78042  24097921.617    24097919.959
 03  3 26  2  8 30.0000000  0  9G31G 3G25G14G23G 9G18G15G17
  22408612.452   -11661912.52143  -9077059.00842  22408614.634    22408610.196
  22261979.485   -18603023.51643 -14452143.23042  22261981.587    22261977.862
  24521294.213    -6532736.76743  -4957940.56342  24521297.260    24521297.174
  20223281.979   -27369353.28743 -21307875.15542  20223284.564    20223277.908
  23442352.628   -11270267.93343  -8773506.81342  23442354.661    23442350.453
  23799054.070    -1597106.51843  -1227579.91942  23799056.489    23799052.180
  22330018.699   -19328891.47543 -15018456.90642  22330020.923    22330014.765
  21392109.479   -24769199.03743 -19276019.68842  21392110.787    21392106.317
  24116749.987    -8265922.04743  -6422137.82242  24116751.293    24116749.550
 03  3 26  2  9  0.0000000  0  9G31G 3G25G14G23G 9G18G15G17
  22410761.637   -11650618.56843  -9068258.52242  22410763.804    22410759.368
  22272523.721   -18547613.13743 -14408966.33342  22272525.821    22272522.116
  24502687.954    -6630511.97043  -5034128.77342  24502691.037    24502690.934
  20221379.785   -27379349.09443 -21315664.05942  20221382.389    20221375.723
  23453609.350   -11211113.30043  -8727412.30742  23453611.436    23453607.211
  23807713.129    -1551602.49143  -1192122.20642  23807715.576    23807711.289
  22341524.595   -19268427.75843 -14971342.31942  22341526.778    22341520.620
  21405326.931   -24699740.88743 -19221896.46242  21405328.261    21405323.763
  24135622.776    -8166744.85243  -6344856.88642  24135623.980    24135622.274
 03  3 26  2  9 30.0000000  0  9G31G 3G25G14G23G 9G18G15G17
  22413018.804   -11638756.74243  -9059015.55042  22413020.996    22413016.586
  22283146.833   -18491788.52243 -14365466.65442  22283148.929    22283145.216
  24484073.429    -6728331.08443  -5110351.18642  24484076.493    24484076.266
  20219580.280   -27388805.37643 -21323032.55542  20219582.884    20219576.210
  23464873.964   -11151917.64043  -8681285.82542  23464875.984    23464871.737
  23816480.578    -1505529.42643  -1156221.09542  23816482.953    23816478.672
  22353052.129   -19207850.05643 -14924138.90342  22353054.339    22353048.168
  21418620.057   -24629884.97343 -19167463.29542  21418621.411    21418616.900
  24154538.713    -8067341.09243  -6267399.41142  24154539.834    24154538.148
 03  3 26  2 10  0.0000000  0  9G31G 3G25G14G23G 9G18G15G17
  22415382.993   -11626333.02843  -9049334.74142  22415385.139    22415380.725
  22293847.368   -18435556.88043 -14321649.80842  22293849.483    22293845.755
  24465450.086    -6826196.56243  -5186609.75642  24465453.080    24465452.765
  20217882.359   -27397727.90443 -21329985.13642  20217884.943    20217878.264
  23476145.384   -11092685.79243  -8635131.14542  23476147.441    23476143.188
  23825355.005    -1458893.67843  -1119881.52342  23825357.496    23825353.086
  22364600.385   -19147163.57443 -14876850.72942  22364602.577    22364596.407
  21431987.790   -24559637.15843 -19112724.75742  21431989.157    21431984.629
  24173496.428    -7967717.29243  -6189770.47642  24173497.567    24173495.915
 03  3 26  2 10 30.0000000  0  9G31G 3G25G14G23G 9G18G15G17
  22417851.166   -11613362.63143  -9039227.94142  22417853.317    22417848.904
  22304622.187   -18378935.06443 -14277528.92942  22304624.271    22304620.522
  24446815.758    -6924119.99343  -5262913.48942  24446818.805    24446818.195
  20216283.196   -27406131.48143 -21336533.34642  20216285.775    20216279.077
  23487420.996   -11033432.00743  -8588959.37242  23487423.080    23487418.805
  23834333.597    -1411710.74643  -1083115.59142  23834336.103    23834331.688
  22376166.583   -19086382.73843 -14829489.03242  22376168.771    22376162.605
  21445427.236   -24489012.32543 -19057692.44242  21445428.608    21445424.100
  24192493.034    -7867888.92043  -6111982.14142  24192494.288    24192492.689
 03  3 26  2 11  0.0000000  0  9G31G 3G25G14G23G 9G18G15G17
  22420419.011   -11599868.66043  -9028713.17242  22420421.138    22420416.704
  22315466.592   -18321947.42943 -14233122.99442  22315468.677    22315464.925
  24428166.747    -7022120.72043  -5339277.47342  24428169.745    24428169.020
  20214778.471   -27414038.78343 -21342694.84742  20214781.058    20214774.336
  23498696.659   -10974178.08543  -8542787.49542  23498698.712    23498694.429
  23843411.901    -1364004.04243  -1045941.51942  23843414.359    23843409.955
  22387746.535   -19025529.76143 -14782071.12242  22387748.711    22387742.548
  21458934.127   -24418033.24543 -19002384.09342  21458935.474    21458930.995
  24211524.199    -7767879.35943  -6034052.59942  24211525.508    24211523.842
 03  3 26  2 11 30.0000000  0  9G31G 3G25G14G23G 9G18G15G17
  22423092.404   -11585819.83843  -9017766.04842  22423094.548    22423090.129
  22326386.273   -18264564.18043 -14188408.78942  22326388.360    22326384.619
  24409509.505    -7120163.96743  -5415674.60142  24409512.560    24409511.671
  20213374.268   -27421417.84543 -21348444.73642  20213376.839    20213370.103
  23509978.540   -10914891.64443  -8496590.26542  23509980.504    23509976.238
  23852595.768    -1315742.54443  -1008335.13842  23852598.227    23852593.827
  22399346.239   -18964572.82743 -14734572.21042  22399348.399    22399342.264
  21472514.401   -24346668.56843 -18946775.28042  21472515.728    21472511.257
  24230595.730    -7667657.78343  -5955957.84742  24230596.973    24230595.429
 03  3 26  2 12  0.0000000  0  9G31G 3G25G14G23G 9G18G15G17
  22425870.717   -11571219.68143  -9006389.30942  22425872.878    22425868.412
  22337380.222   -18206790.25443 -14143390.15242  22337382.376    22337378.652
  24390844.233    -7218249.52143  -5492104.66642  24390847.138    24390846.387
  20212069.947   -27428271.93143 -21353785.55142  20212072.514    20212065.788
  23521266.090   -10855574.93043  -8450369.45542  23521268.111    23521263.834
  23861884.401    -1266930.29243   -970299.60242  23861886.818    23861882.438
  22410965.261   -18903514.34143 -14686994.16842  22410967.435    22410961.256
  21486167.422   -24274921.55043 -18890868.53342  21486168.774    21486164.259
  24249706.966    -7567227.64543  -5877700.57442  24249708.254    24249706.665
 03  3 26  2 12 30.0000000  0  9G31G 3G25G14G23G 9G18G15G17
  22428757.493   -11556049.96143  -8994568.76142  22428759.617    22428755.098
  22348451.777   -18148608.82643 -14098053.97742  22348453.928    22348450.241
  24372175.127    -7316355.52743  -5568550.68942  24372178.065    24372177.204
  20210869.086   -27434582.34343 -21358702.72442  20210871.665    20210864.933
  23532563.153   -10796208.49543  -8404109.92042  23532565.188    23532560.896
  23871281.273    -1217549.10243   -931820.72242  23871283.736    23871279.299
  22422607.280   -18842335.19043 -14639322.11042  22422609.411    22422603.290
  21499896.734   -24202773.46943 -18834649.26442  21499898.113    21499893.613
  24268861.217    -7466571.15743  -5799266.90942  24268862.709    24268861.022
 03  3 26  2 13  0.0000000  0  9G31G 3G25G14G23G 9G18G15G17
  22431746.222   -11540344.14343  -8982330.46942  22431748.341    22431743.838
  22359594.224   -18090054.87443 -14052427.53242  22359596.364    22359592.682
  24353496.534    -7414511.40443  -5645035.58842  24353499.456    24353498.428
  20209765.420   -27440382.03643 -21363221.93442  20209767.996    20209761.264
  23543863.603   -10736824.35243  -8357836.56242  23543865.643    23543861.384
  23880780.022    -1167632.65743   -892924.77942  23880782.493    23880778.030
  22434265.978   -18781068.11843 -14591581.54042  22434268.107    22434262.029
  21513696.007   -24130257.88243 -18778143.63142  21513697.363    21513692.909
  24288052.038    -7365722.11643  -5720683.21242  24288053.563    24288051.772
 03  3 26  2 13 30.0000000  0  8G31G 3G25G14G23G 9G18G15
  22434836.613   -11524103.77343  -8969675.64742  22434838.781    22434834.291
  22370807.084   -18031130.91943 -14006512.77542  22370809.214    22370805.567
  24334808.863    -7512715.08443  -5721557.71742  24334811.766    24334810.636
  20208758.705   -27445672.12543 -21367344.04942  20208761.280    20208754.559
  23555167.310   -10677422.89143  -8311549.72942  23555169.410    23555165.140
  23890380.290    -1117182.91443   -853613.26442  23890382.729    23890378.252
  22445941.325   -18719713.59143 -14543772.82442  22445943.478    22445937.429
  21527564.992   -24057375.95443 -18721352.53642  21527566.318    21527561.878
 03  3 26  2 14  0.0000000  0  8G31G 3G25G14G23G 9G18G15
  22438032.203   -11507311.07343  -8956590.44042  22438034.323    22438029.845
  22382093.468   -17971820.79543 -13960297.10342  22382095.573    22382091.914
  24316116.159    -7610945.10843  -5798100.37142  24316119.092    24316117.864
  20207852.362   -27450434.77243 -21371055.16942  20207854.946    20207848.212
  23566477.939   -10617985.00843  -8265234.49442  23566480.065    23566475.769
  23900085.332    -1066182.39243   -813872.58142  23900087.823    23900083.276
  22457636.962   -18658252.81843 -14495881.31642  22457639.083    22457632.999
  21541507.105   -23984109.55943 -18664261.85842  21541508.458    21541504.035
 03  3 26  2 14 30.0000000  0  8G31G 3G25G14G23G 9G18G15
  22441328.117   -11489991.08443  -8943094.35542  22441330.227    22441325.726
  22393448.278   -17912151.05243 -13913801.21042  22393450.366    22393446.729
  24297414.429    -7709222.73043  -5874680.11442  24297417.329    24297416.039
  20207041.799   -27454694.09343 -21374374.08442  20207044.406    20207037.658
  23577791.029   -10558534.51543  -8218909.43942  23577793.155    23577788.803
  23909890.393    -1014656.33343   -773722.37942  23909892.879    23909888.329
  22469348.173   -18596709.97243 -14447925.85242  22469350.302    22469344.201
  21555517.671   -23910483.74543 -18606891.10942  21555518.994    21555514.594
 03  3 26  2 15  0.0000000  0  8G31G 3G25G14G23G 9G18G15
  22444728.441   -11472121.84643  -8929170.28642  22444730.570    22444726.127
  22404875.483   -17852100.70643 -13867008.74442  22404877.588    22404873.921
  24278708.538    -7807521.77543  -5951276.55942  24278711.439    24278710.048
  20206331.291   -27458427.68543 -21377283.34442  20206333.880    20206327.161
  23589110.983   -10499047.91843  -8172556.26642  23589113.054    23589108.696
  23919799.533     -962583.00443   -733145.75742  23919801.981    23919797.557
  22481079.377   -18535062.14843 -14399888.60642  22481081.531    22481075.377
  21569600.877   -23836476.07643 -18549222.82042  21569602.212    21569597.789
 03  3 26  2 15 30.0000000  0  8G31G 3G25G14G23G 9G18G15
  22448232.665   -11453707.27243  -8914821.28542  22448234.754    22448230.309
  22416374.054   -17791675.28643 -13819924.01242  22416376.156    22416372.530
  24259998.522    -7905842.56743  -6027889.92942  24260001.347    24259999.975
  20205720.195   -27461638.95243 -21379785.59442  20205722.768    20205716.042
  23600437.289   -10439527.69043  -8126176.86242  23600439.355    23600434.969
  23929812.143     -909966.50143   -692145.86842  23929814.513    23929810.158
  22492830.081   -18473311.91943 -14351771.55042  22492832.226    22492826.075
  21583756.107   -23762089.98643 -18491259.65142  21583757.436    21583753.002
 03  3 26  2 16  0.0000000  0  8G31G 3G25G14G23G 9G18G15
  22451835.395   -11434774.69643  -8900068.64242  22451837.508    22451833.076
  22427938.542   -17730903.46543 -13772569.35142  22427940.659    22427937.050
  24241279.822    -8004208.47843  -6104538.45342  24241282.722    24241281.403
  20205203.332   -27464355.06043 -21381902.00442  20205205.904    20205199.143
  23611765.108   -10379999.69943  -8079791.40842  23611767.172    23611762.745
  23939922.754     -856834.59443   -650744.35642  23939925.163    23939920.790
  22504595.210   -18411485.72843 -14303595.29142  22504597.383    22504591.217
  21597978.126   -23687352.87243 -18433022.96442  21597979.457    21597975.033
 03  3 26  2 16 30.0000000  0  8G31G 3G25G14G23G 9G18G15
  22455543.174   -11415290.59743  -8884886.24142  22455545.220    22455540.738
  22439575.082   -17669753.08343 -13724919.72042  22439577.175    22439573.599
  24222559.746    -8102581.96243  -6181192.86642  24222562.681    24222561.267
  20204787.176   -27466541.81843 -21383605.93542  20204789.759    20204782.969
  23623101.088   -10320428.93843  -8033372.65242  23623103.151    23623098.639
  23950137.828     -803154.03443   -608915.34442  23950140.184    23950135.896
  22516381.404   -18349548.81643 -14255332.77142  22516383.587    22516377.420
  21612273.386   -23612230.81543 -18374486.31242  21612274.730    21612270.311
 03  3 26  2 17  0.0000000  0  8G31G 3G25G14G23G 9G18G15
  22459354.599   -11395261.63743  -8869279.28442  22459356.606    22459352.115
  22451282.186   -17608231.92743 -13676981.16842  22451284.273    22451280.677
  24203837.682    -8200966.04943  -6257855.55542  24203840.703    24203839.160
  20204470.540   -27468205.48443 -21384902.26242  20204473.135    20204466.334
  23634444.176   -10260820.72243  -7986924.68542  23634446.180    23634441.712
  23960456.051     -748931.91243   -566664.31842  23960458.406    23960454.042
  22528187.585   -18287506.93943 -14206988.46342  22528189.752    22528183.608
  21626640.687   -23536730.01243 -18315654.53342  21626642.064    21626637.649
 03  3 26  2 17 30.0000000  0  8G31G 3G25G14G23G 9G18G15
  22463264.717   -11374713.78943  -8853267.99042  22463266.771    22463262.282
  22463054.716   -17546366.98643 -13628774.72542  22463056.766    22463053.211
  24185109.471    -8299382.47843  -6334543.43342  24185112.505    24185110.895
  20204248.676   -27469371.34243 -21385810.68642  20204251.254    20204244.435
  23645789.797   -10201199.42543  -7940466.52842  23645791.806    23645787.271
  23970872.244     -694194.28943   -524011.60542  23970874.637    23970870.250
  22540009.027   -18225384.90043 -14158581.66842  22540011.170    22540005.036
  21641075.255   -23460876.07543 -18256547.58642  21641076.617    21641072.191
 03  3 26  2 18  0.0000000  0  9G31G 3G25G11G14G23G 9G18G15
  22467282.349   -11353601.17343  -8836816.62642  22467284.389    22467279.913
  22474901.073   -17484113.86643 -13580265.82142  22474903.140    22474899.582
  24166384.641    -8397781.15943  -6411217.45442  24166387.626    24166386.007
  24672489.915    -6711194.34353  -5188154.59752  24672492.848    24672488.364
  20204130.387   -27469993.22143 -21386295.23342  20204132.889    20204126.052
  23657146.977   -10141517.49943  -7893961.13742  23657148.968    23657144.374
  23981395.173     -638895.57343   -480921.66642  23981397.463    23981393.210
  22551854.743   -18163135.27643 -14110075.46042  22551856.854    22551850.726
  21655585.752   -23384622.94743 -18197129.58242  21655587.121    21655582.673
 03  3 26  2 18 30.0000000  0  9G31G 3G25G11G14G23G 9G18G15
  22471405.100   -11331935.93743  -8819934.64642  22471407.169    22471402.697
  22486818.807   -17421485.91343 -13531464.83842  22486820.853    22486817.313
  24147661.574    -8496170.39743  -6487884.09842  24147664.555    24147662.897
  24653417.039    -6811422.42743  -5266254.33742  24653420.014    24653415.432
  20204113.339   -27470082.67143 -21386364.90242  20204115.850    20204108.985
  23668513.633   -10081785.57943  -7847416.77742  23668515.626    23668510.983
  23992022.570     -583048.31543   -437404.30442  23992024.862    23992020.617
  22563722.585   -18100769.25043 -14061478.55842  22563724.713    22563718.582
  21670170.017   -23307982.21143 -18137409.53642  21670171.391    21670166.932
 03  3 26  2 19  0.0000000  0  9G31G 3G25G11G14G23G 9G18G15
  22475631.156   -11309727.75643  -8802629.59142  22475633.226    22475628.787
  22498805.772   -17358494.15543 -13482380.37142  22498807.784    22498804.236
  24128939.334    -8594555.34143  -6564547.39242  24128942.302    24128940.665
  24634357.232    -6911582.47643  -5344301.07242  24634360.235    24634355.505
  20204195.845   -27469649.00843 -21386026.95442  20204198.347    20204191.472
  23679888.187   -10022011.65543  -7800839.70142  23679890.219    23679885.561
  24002752.424     -526662.25343   -393467.10142  24002754.769    24002750.523
  22575611.041   -18038295.22743 -14012797.49342  22575613.165    22575607.000
  21684826.243   -23230963.21343 -18077394.74142  21684827.611    21684823.174
 03  3 26  2 19 30.0000000  0  9G31G 3G25G11G14G23G 9G18G15
  22479953.809   -11287012.23143  -8784929.20042  22479955.871    22479951.442
  22510854.897   -17295175.58343 -13433041.25342  22510856.925    22510853.346
  24110211.776    -8692967.87443  -6641232.15842  24110214.830    24110213.154
  24615304.124    -7011707.08443  -5422320.19042  24615307.137    24615302.185
  20204371.188   -27468727.32543 -21385308.73342  20204373.717    20204366.824
  23691264.233    -9962229.74943  -7754256.38142  23691266.306    23691261.730
  24013577.996     -469773.20843   -349137.93842  24013580.455    24013576.185
  22587513.523   -17975747.26643 -13964058.81042  22587515.649    22587509.478
  21699547.761   -23153601.23843 -18017112.70142  21699549.109    21699544.686
 03  3 26  2 20  0.0000000  0  9G31G 3G25G11G14G23G 9G18G15
  22484372.923   -11263789.91343  -8766833.92042  22484374.964    22484370.501
  22522965.932   -17231531.88743 -13383448.79242  22522967.945    22522964.347
  24091479.668    -8791404.62243  -6717935.79642  24091482.790    24091481.053
  24596258.211    -7111793.14543  -5500309.17942  24596261.258    24596256.401
  20204639.422   -27467317.52943 -21384210.16742  20204641.950    20204635.068
  23702642.072    -9902438.82043  -7707666.06442  23702644.087    23702639.564
  24024499.169     -412382.10643   -304417.58042  24024501.632    24024497.362
  22599430.152   -17913124.90143 -13915262.15342  22599432.307    22599426.130
  21714334.518   -23075896.28043 -17956563.38842  21714335.879    21714331.452
 03  3 26  2 20 30.0000000  0  9G31G 3G25G11G14G23G 9G18G15
  22488892.310   -11240040.19743  -8748327.67842  22488894.405    22488889.951
  22535142.503   -17167543.66043 -13333587.86442  22535144.532    22535140.932
  24072747.657    -8889840.54843  -6794638.77042  24072750.842    24072748.997
  24577224.344    -7211816.72143  -5578249.58842  24577227.239    24577222.450
  20205004.557   -27465398.66944 -21382714.92642  20205007.079    20205000.185
  23714025.812    -9842616.65543  -7661051.38342  23714027.859    23714023.279
  24035519.758     -354468.67743   -259290.21642  24035522.094    24035517.752
  22611365.027   -17850406.55843 -13866390.71242  22611367.188    22611361.018
  21729190.508   -22997827.48743 -17895730.57042  21729191.877    21729187.464
 03  3 26  2 21  0.0000000  0  9G31G 3G25G11G14G23G 9G18G15
  22493513.809   -11215753.91943  -8729403.32842  22493515.944    22493511.491
  22547386.196   -17103202.67343 -13283452.05142  22547388.221    22547384.621
  24054018.414    -8988262.03843  -6871330.48542  24054021.691    24054019.724
  24558204.907    -7311764.82043  -5656131.20242  24558207.737    24558202.757
  20205468.420   -27462960.95744 -21380815.38742  20205470.956    20205464.033
  23725417.610    -9782752.33843  -7614403.85242  23725419.685    23725415.077
  24046641.483     -296024.00043   -213748.87642  24046643.809    24046639.333
  22623320.217   -17787581.27743 -13817435.93742  22623322.437    22623316.252
  21744117.565   -22919385.21243 -17834606.73542  21744118.925    21744114.541
 03  3 26  2 21 30.0000000  0  9G31G 3G25G11G14G23G 9G18G15
  22498235.930   -11190939.31743  -8710067.30242  22498238.006    22498233.589
  22559695.235   -17038518.52843 -13233048.84442  22559697.214    22559693.619
  24035291.081    -9086673.56843  -6948014.45042  24035294.383    24035292.311
  24539198.757    -7411642.44943  -5733957.82142  24539201.576    24539196.824
  20206029.558   -27460011.97444 -21378517.45542  20206032.099    20206025.179
  23736816.174    -9722852.35843  -7567728.54942  23736818.292    23736813.726
  24057862.654     -237056.50643   -167800.15242  24057865.104    24057860.493
  22635294.495   -17724656.00443 -13768403.25442  22635296.656    22635290.518
  21759114.202   -22840577.46643 -17773198.11742  21759115.566    21759111.177
 03  3 26  2 22  0.0000000  0  9G31G 3G25G11G14G23G 9G18G15
  22503053.385   -11165623.56643  -8690340.75942  22503055.459    22503051.050
  22572064.116   -16973519.48343 -13182400.25442  22572066.119    22572062.550
  24016561.244    -9185097.98243  -7024708.43742  24016564.592    24016562.427
  24520201.493    -7511473.42043  -5811748.12642  24520204.301    24520199.513
  20206682.876   -27456578.66044 -21375842.12342  20206685.416    20206678.479
  23748216.705    -9662942.15943  -7521045.28942  23748218.798    23748214.253
  24069178.062     -177593.55743   -121465.35742  24069180.585    24069175.925
  22647282.835   -17661656.70343 -13719312.87942  22647285.012    22647278.870
  21774175.319   -22761430.78843 -17711525.38342  21774176.679    21774172.287
 03  3 26  2 22 30.0000000  0  9G31G 3G25G11G14G23G 9G18G15
  22507970.646   -11139783.31943  -8670205.52742  22507972.727    22507968.351
  22584497.176   -16908183.32943 -13131488.99742  22584499.215    22584495.607
  23997834.247    -9283507.53443  -7101390.87442  23997837.567    23997835.405
  24501218.204    -7611230.63943  -5889480.92742  24501221.012    24501216.290
  20207432.926   -27452636.98544 -21372770.66942  20207435.490    20207428.526
  23759623.928    -9602996.44043  -7474334.34042  23759626.077    23759621.536
  24080592.174     -117612.08343    -74726.51742  24080594.609    24080589.923
  22659290.025   -17598558.35843 -13670145.33542  22659292.216    22659286.077
  21789305.481   -22681921.30743 -17649569.95942  21789306.821    21789302.454
 03  3 26  2 23  0.0000000  0  9G31G 3G25G11G14G23G 9G18G15
  22512987.405   -11113420.31643  -8649662.94142  22512989.475    22512985.097
  22596993.878   -16842513.01943 -13080317.35142  22596995.896    22596992.268
  23979110.514    -9381899.91743  -7178059.93142  23979113.749    23979111.636
  24482249.354    -7710912.21343  -5967154.77942  24482252.130    24482247.484
  20208279.529   -27448188.14044 -21369304.01742  20208282.069    20208275.093
  23771037.956    -9543015.19243  -7427595.68942  23771040.130    23771035.519
  24092104.430      -57114.26043    -27585.32942  24092106.831    24092102.296
  22671316.044   -17535361.21343 -13620900.81242  22671318.209    22671312.064
  21804504.410   -22602050.48043 -17587332.96542  21804505.715    21804501.369
 03  3 26  2 23 30.0000000  0  9G31G 3G25G11G14G23G 9G18G15
  22518099.747   -11086554.75543  -8628728.75542  22518101.826    22518097.447
  22609550.076   -16776529.83043 -13028901.90242  22609552.146    22609548.468
  23960387.107    -9480290.69743  -7254727.77142  23960390.257    23960388.200
  24463291.733    -7810534.80143  -6044782.69042  24463294.489    24463289.874
  20209218.855   -27443251.86743 -21365457.55142  20209221.395    20209214.415
  23782455.289    -9483016.78943  -7380843.67842  23782457.474    23782452.842
  24103710.978        3879.55943     19942.34442  24103713.487    24103708.990
  22683357.300   -17472083.95643 -13571593.85642  22683359.430    22683353.303
  21819768.391   -22521837.98443 -17524829.74042  21819769.665    21819765.297
 03  3 26  2 24  0.0000000  0  9G31G 3G25G11G14G23G 9G18G15
  22523313.449   -11059156.71443  -8607379.64842  22523315.495    22523311.116
  22622171.328   -16710204.84343 -12977220.11442  22622173.396    22622169.706
  23941670.597    -9578645.56043  -7331367.64642  23941673.626    23941671.495
  24444351.721    -7910064.80343  -6122338.44042  24444354.484    24444349.875
  20210256.691   -27437797.68243 -21361207.51342  20210259.236    20210252.277
  23793881.965    -9422969.32943  -7334053.44642  23793884.135    23793879.543
  24115417.725       65399.19943     67879.76342  24115420.275    24115415.756
  22695419.832   -17408695.22843 -13522200.05142  22695421.900    22695415.795
  21835103.189   -22441253.30743 -17462036.51042  21835104.437    21835100.056
 03  3 26  2 24 30.0000000  0  9G31G 3G25G11G14G23G 9G18G15
  22528626.655   -11031235.71443  -8585623.03642  22528628.662    22528624.339
  22634855.582   -16643548.57243 -12925280.18242  22634857.687    22634854.000
  23922959.857    -9676970.08643  -7407983.91042  23922962.859    23922960.603
  24425428.159    -8009508.06143  -6199826.57742  24425431.030    24425426.302
  20211391.417   -27431834.48843 -21356560.84642  20211393.946    20211387.022
  23805316.485    -9362880.49943  -7287230.98842  23805318.630    23805314.094
  24127222.747      127434.83343    116219.24742  24127225.235    24127220.846
  22707501.993   -17345203.08743 -13472725.65642  22707504.098    22707497.921
  21850507.012   -22360305.65543 -17398960.42742  21850508.276    21850503.883
 03  3 26  2 25  0.0000000  0  9G31G 3G25G11G14G23G 9G18G15
  22534036.891   -11002804.86743  -8563469.14642  22534038.872    22534034.569
  22647600.146   -16576575.55243 -12873093.42842  22647602.248    22647598.539
  23904253.164    -9775272.99243  -7484583.32142  23904256.205    23904253.908
  24406519.304    -8108873.97543  -6277254.44142  24406522.229    24406517.522
  20212620.625   -27425374.99244 -21351527.45342  20212623.139    20212616.194
  23816756.657    -9302761.65043  -7240385.11242  23816758.768    23816754.365
  24139123.368      189973.10243    164950.39842  24139125.825    24139121.397
  22719601.658   -17281619.18543 -13423179.76242  22719603.762    22719597.556
  21865977.515   -22279007.64943 -17335611.34342  21865978.780    21865974.406
 03  3 26  2 25 30.0000000  0  9G31G 3G25G11G14G23G 9G18G15
  22539546.955   -10973849.07643  -8540906.19942  22539548.999    22539544.693
  22660407.631   -16509271.65143 -12820648.84742  22660409.759    22660406.087
  23885554.436    -9873534.41043  -7561150.42942  23885557.542    23885555.135
  24387628.825    -8208143.80243  -6354607.44342  24387631.763    24387626.932
  20213947.282   -27418403.36244 -21346094.99542  20213949.802    20213942.822
  23828205.879    -9242595.61443  -7193502.49642  23828207.956    23828203.605
  24151122.507      253028.76743    214084.72542  24151124.857    24151120.551
  22731721.912   -17217926.67643 -13373549.24442  22731724.067    22731717.819
  21881517.669   -22197343.65343 -17271977.08342  21881518.946    21881514.577
 03  3 26  2 26  0.0000000  0  9G31G 3G25G11G14G23G 9G18G15
  22545151.612   -10944396.60043  -8517956.23442  22545153.647    22545149.330
  22673272.530   -16441665.95143 -12767969.10642  22673274.639    22673271.028
  23866859.055    -9971778.63143  -7637704.15042  23866862.031    23866859.523
  24368751.904    -8307342.06443  -6431904.67342  24368754.905    24368749.928
  20215366.068   -27410947.40644 -21340285.13742  20215368.628    20215361.628
  23839659.069    -9182408.68243  -7146603.58742  23839661.045    23839656.794
  24163214.602      316573.38143    263600.03342  24163217.003    24163212.699
  22743857.777   -17154152.19743 -13323854.85142  22743859.945    22743853.693
  21897122.195   -22115341.44343 -17208079.27242  21897123.435    21897119.096
 03  3 26  2 26 30.0000000  0  9G31G 3G25G11G14G23G 9G18G15
  22550853.048   -10914435.10843  -8494609.61142  22550855.173    22550850.818
  22686196.996   -16373747.32743 -12715045.51942  22686199.122    22686195.538
  23848170.168   -10069988.61743  -7714231.18542  23848173.113    23848170.535
  24349891.711    -8406452.58443  -6509133.52342  24349894.669    24349889.690
  20216879.505   -27402994.31544 -21334087.90242  20216882.049    20216875.030
  23851118.959    -9122186.60343  -7099677.30342  23851120.899    23851116.614
  24175402.137      380619.08443    313505.79942  24175404.436    24175400.113
  22756011.864   -17090281.95743 -13274085.83442  22756014.013    22756007.806
  21912793.509   -22032988.24543 -17143907.96442  21912794.754    21912790.393
 03  3 26  2 27  0.0000000  0  9G31G 3G25G11G14G23G 9G18G15
  22556648.138   -10883982.03843  -8470879.96142  22556650.210    22556645.875
  22699177.565   -16305534.20843 -12661892.46642  22699179.661    22699176.081
  23829485.338   -10168177.25343  -7790741.62542  23829488.276    23829485.638
  24331045.593    -8505489.01143  -6586304.63442  24331048.642    24331043.574
  20218484.370   -27394560.57044 -21327516.13142  20218486.921    20218479.916
  23862582.629    -9061944.60743  -7052735.49942  23862584.570    23862580.300
  24187681.667      445148.20043    363788.26342  24187684.004    24187679.602
  22768181.293   -17026331.42643 -13224254.25742  22768183.414    22768177.194
  21928528.419   -21950300.88043 -17079476.26442  21928529.659    21928525.296
 03  3 26  2 27 30.0000000  0  9G31G 3G25G11G14G23G 9G18G15
  22562539.786   -10853021.24343  -8446754.66742  22562541.834    22562537.567
  22712216.964   -16237011.61443 -12608498.24742  22712219.081    22712215.508
  23810808.543   -10266323.71843  -7867219.18942  23810811.445    23810808.699
  24312217.436    -8604431.35243  -6663402.46342  24312220.466    24312215.371
  20220183.787   -27385629.85044 -21320557.10442  20220186.350    20220179.369
  23874053.482    -9001664.79143  -7005764.22242  23874055.444    23874051.212
  24200056.080      510176.49443    414459.68142  24200058.427    24200053.984
  22780369.270   -16962283.14543 -13174346.50942  22780371.416    22780365.170
  21944330.011   -21867262.83043 -17014771.30142  21944331.287    21944326.954
 03  3 26  2 28  0.0000000  0  9G31G 3G25G11G14G23G 9G18G15
  22568530.162   -10821541.57643  -8422225.06642  22568532.216    22568527.971
  22725317.205   -16168169.30143 -12554854.91642  22725319.348    22725315.764
  23792142.782   -10364412.43243  -7943651.78042  23792145.639    23792142.799
  24293410.069    -8703264.64543  -6740415.31342  24293413.045    24293407.823
  20221979.982   -27376190.57843 -21313201.80642  20221982.544    20221975.569
  23885534.108    -8941333.71543  -6958752.99842  23885536.143    23885531.860
  24212527.561      575714.99343    465528.65942  24212530.042    24212525.394
  22792578.345   -16898124.09543 -13124352.43942  22792580.485    22792574.200
  21960200.631   -21783862.22343 -16949783.82342  21960201.899    21960197.569
 03  3 26  2 28 30.0000000  0  9G31G 3G25G11G14G23G 9G18G15
  22574610.987   -10789586.71843  -8397325.18442  22574613.022    22574608.788
  22738469.815   -16099051.94943 -12500997.26842  22738471.971    22738468.381
  23773480.481   -10462482.79043  -8020070.05842  23773483.261    23773480.475
  24274615.872    -8802028.54843  -6817374.07142  24274618.756    24274613.588
  20223864.836   -27366285.54844 -21305483.57542  20223867.373    20223860.388
  23897016.538    -8880993.04043  -6911734.29942  23897018.646    23897014.292
  24225087.786      641719.81543    516961.00942  24225090.327    24225085.739
  22804800.483   -16833896.24943 -13074304.76242  22804802.625    22804796.351
  21976131.993   -21700142.24543 -16884547.48442  21976133.283    21976128.958
 03  3 26  2 29  0.0000000  0  9G31G 3G25G11G14G23G 9G18G15
  22580793.169   -10757099.02743  -8372010.11042  22580795.270    22580790.966
  22751685.532   -16029603.05043 -12446881.25442  22751687.660    22751684.132
  23754833.669   -10560472.25243  -8096425.34142  23754836.332    23754833.454
  24255846.514    -8900661.71543  -6894230.97442  24255849.360    24255844.280
  20225849.351   -27355856.60144 -21297357.09742  20225851.919    20225844.927
  23908512.186    -8820582.99643  -6864661.54442  23908514.269    23908509.961
  24237747.772      708248.42343    568801.49942  24237750.264    24237745.721
  22817047.024   -16769540.18143 -13024157.17442  22817049.158    22817042.889
  21992135.222   -21616044.74943 -16819016.98342  21992136.499    21992132.187
 03  3 26  2 29 30.0000000  0  9G31G 3G25G11G14G23G 9G18G15
  22587069.149   -10724118.53943  -8346311.04242  22587071.262    22587066.945
  22764956.576   -15959863.36643 -12392538.67142  22764958.699    22764955.182
  23736195.445   -10658416.14143  -8172745.07942  23736198.086    23736195.142
  24237095.217    -8999199.97143  -6971013.91442  24237098.086    24237093.033
  20227926.076   -27344943.22944 -21288853.14942  20227928.649    20227921.660
  23920013.757    -8760141.49043  -6817564.27742  23920015.916    23920011.632
  24250499.761      775260.61343    621018.80842  24250502.347    24250497.685
  22829310.646   -16705094.21543 -12973939.52842  22829312.797    22829306.500
  22008202.755   -21531609.22343 -16753223.08142  22008204.049    22008199.745
 03  3 26  2 30  0.0000000  0  9G31G 3G25G11G14G23G 9G18G15
  22593437.576   -10690652.44043  -8320233.57942  22593439.673    22593435.375
  22778281.429   -15889840.92243 -12337975.74842  22778283.526    22778280.029
  23717565.347   -10756317.35043  -8249031.57842  23717567.925    23717564.997
  24218361.282    -9097646.70143  -7047725.53042  24218364.278    24218359.203
  20230093.730   -27333551.94244 -21279976.79642  20230096.315    20230089.338
  23931520.363    -8699673.61943  -6770446.45842  23931522.515    23931518.262
  24263342.275      842748.88643    673607.10742  24263344.827    24263340.319
  22841590.456   -16640563.65443 -12923655.96642  22841592.589    22841586.256
  22024333.397   -21446842.05743 -16687170.76042  22024334.713    22024330.410
 03  3 26  2 30 30.0000000  0  9G31G 3G25G11G14G23G 9G18G15
  22599900.009   -10656692.26243  -8293771.10942  22599902.129    22599897.791
  22791661.508   -15819528.25943 -12283186.69242  22791663.605    22791660.129
  23698945.974   -10854162.50943  -8325274.40442  23698948.566    23698945.546
  24199647.212    -9195989.37743  -7124356.06942  24199650.170    24199645.089
  20232354.065   -27321673.70544 -21270721.00142  20232356.653    20232349.668
  23943034.082    -8639168.65943  -6723299.74642  23943036.226    23943032.017
  24276277.000      910721.41943    726572.72942  24276279.575    24276275.036
  22853888.313   -16575938.01243 -12873298.31442  22853890.452    22853884.135
  22040528.862   -21361734.24843 -16620852.99342  22040530.234    22040525.892
 03  3 26  2 31  0.0000000  0  9G31G 3G25G11G14G23G 9G18G15
  22606453.047   -10622255.74843  -8266937.47442  22606455.155    22606450.867
  22805093.202   -15748944.26343 -12228186.19542  22805095.298    22805091.837
  23680334.586   -10951965.03943  -8401483.99742  23680337.224    23680334.160
  24180950.274    -9294241.81843  -7200916.30942  24180953.127    24180948.124
  20234703.810   -27309325.66944 -21261099.13342  20234706.375    20234699.411
  23954551.923    -8578642.23443  -6676136.30542  23954554.032    23954549.788
  24289300.402      979160.40843    779901.84142  24289302.927    24289298.423
  22866201.189   -16511233.42643 -12822879.14942  22866203.323    22866197.020
  22056785.928   -21276303.07343 -16554283.25642  22056787.269    22056782.894
 03  3 26  2 31 30.0000000  0  9G31G 3G25G11G14G23G 9G18G15
  22613099.717   -10587327.57043  -8239720.72742  22613101.780    22613097.468
  22818579.256   -15678074.54643 -12172963.05942  22818581.380    22818577.914
  23661735.202   -11049704.62643  -8477644.55642  23661737.872    23661734.786
  24162274.178    -9392384.57943  -7277391.06042  24162277.041    24162272.083
  20237145.986   -27296491.81144 -21251098.70042  20237148.553    20237141.574
  23966077.244    -8518076.81343  -6628942.46442  23966079.284    23966074.958
  24302415.513     1048080.96143    833606.18642  24302417.977    24302413.543
  22878532.306   -16446432.90243 -12772385.24142  22878534.432    22878528.162
  22073107.555   -21190532.53043 -16487449.07442  22073108.882    22073104.486
 03  3 26  2 32  0.0000000  0  9G31G 3G25G11G14G23G 9G18G15
  22619838.270   -10551916.28843  -8212127.53542  22619840.351    22619836.009
  22832117.925   -15606928.46443 -12117524.58342  22832120.044    22832116.593
  23643147.124   -11147384.88343  -8553758.87042  23643149.820    23643146.692
  24143618.124    -9490422.11743  -7353783.81742  24143620.976    24143616.114
  20239679.100   -27283180.09144 -21240725.90942  20239681.673    20239674.664
  23977608.739    -8457478.64843  -6581723.10842  23977610.798    23977606.378
  24315620.644     1117474.26543    887678.90642  24315623.058    24315618.524
  22890880.483   -16381542.87043 -12721821.57442  22890882.562    22890876.335
  22089492.192   -21104430.58543 -16420356.65142  22089493.537    22089489.152
 03  3 26  2 32 30.0000000  0  9G31G 3G25G11G14G23G 9G18G15
  22626672.811   -10516000.52043  -8184141.24242  22626674.891    22626670.562
  22845713.110   -15535485.42543 -12061854.71942  22845715.249    22845711.799
  23624575.204   -11244980.23343  -8629807.03242  23624577.931    23624574.648
  24124986.928    -9588329.08443  -7430074.82142  24124989.774    24124984.950
  20242307.299   -27269368.84744 -21229963.87742  20242309.859    20242302.822
  23989150.899    -8396824.25543  -6534459.93442  23989152.984    23989148.568
  24328919.680     1187361.46343    942136.47442  24328922.250    24328917.504
  22903250.103   -16316540.17643 -12671170.12142  22903252.185    22903245.917
  22105944.107   -21017975.36443 -16352988.95942  22105945.437    22105941.053
 03  3 26  2 33  0.0000000  0  9G31G 3G25G11G14G23G 9G18G15
  22633601.648   -10479589.10143  -8155768.71642  22633603.750    22633599.397
  22859362.975   -15463755.17743 -12005961.05342  22859365.046    22859361.657
  23606018.748   -11342494.64243  -8705792.13142  23606021.495    23606018.132
  24106379.730    -9686110.10043  -7506267.70842  24106382.593    24106377.664
  20245029.008   -27255065.97944 -21218818.76342  20245031.565    20245024.571
  24000702.492    -8336120.02643  -6487157.93042  24000704.597    24000700.189
  24342311.040     1257733.59043    996971.92642  24342313.601    24342308.894
  22915639.815   -16251431.62743 -12620436.18142  22915641.943    22915635.684
  22122461.683   -20931175.01643 -16285352.33442  22122463.030    22122458.603
 03  3 26  2 33 30.0000000  0  9G31G 3G25G11G14G23G 9G18G15
  22640620.728   -10442703.54543  -8127026.73642  22640622.830    22640618.503
  22873063.225   -15391760.16143 -11949861.07942  22873065.264    22873061.873
  23587474.492   -11439944.34743  -8781726.79242  23587477.262    23587473.895
  24087793.183    -9783782.54543  -7582375.99442  24087795.994    24087791.112
  20247840.226   -27240292.68244 -21207307.08342  20247842.780    20247835.825
  24012260.003    -8275385.20643  -6439832.08842  24012262.068    24012257.604
  24355790.593     1328569.00943   1052168.37742  24355793.184    24355788.426
  22928045.969   -16186236.67343 -12569634.91642  22928048.113    22928041.885
  22139040.938   -20844050.38443 -16217463.02642  22139042.298    22139037.880
 03  3 26  2 34  0.0000000  0  8G31G 3G25G11G14G23G18G15
  22647727.654   -10405356.33543  -8097925.02442  22647729.750    22647725.447
  22886811.351   -15319513.41043 -11893564.94642  22886813.415    22886810.000
  23568941.224   -11537337.33943  -8857617.29242  23568943.915    23568940.476
  24069225.742    -9881354.74243  -7658406.15742  24069228.546    24069223.628
  20250738.813   -27225060.46244 -21195437.80642  20250741.346    20250734.404
  24023821.421    -8214629.76143  -6392490.18442  24023823.452    24023818.952
  22940466.622   -16120965.73443 -12518774.44542  22940468.742    22940462.542
  22155679.631   -20756613.23343 -16149330.19042  22155681.036    22155676.644
 03  3 26  2 34 30.0000000  0  8G31G 3G25G11G14G23G18G15
  22654922.442   -10367547.61743  -8068463.69742  22654924.490    22654920.245
  22900607.181   -15247016.20143 -11837073.66042  22900609.236    22900605.782
  23550419.490   -11634669.18643  -8933460.13742  23550422.127    23550418.735
  24050678.149    -9978822.54143  -7734354.96342  24050680.916    24050676.065
  20253724.754   -27209369.08644 -21183210.74542  20253727.318    20253720.350
  24035387.108    -8153851.57843  -6345130.55442  24035389.206    24035384.704
  22952902.009   -16055617.31543 -12467853.59642  22952904.160    22952897.908
  22172377.935   -20668863.19743 -16080953.55242  22172379.320    22172374.890
 03  3 26  2 35  0.0000000  0  8G31G 3G25G11G14G23G18G15
  22662210.475   -10329248.81043  -8038620.47542  22662212.503    22662208.289
  22914455.888   -15174240.70043 -11780365.50542  22914458.000    22914454.526
  23531915.903   -11731906.06543  -9009229.02642  23531918.496    23531915.019
  24032156.609   -10076153.24543  -7810196.96342  24032159.370    24032154.507
  20256803.697   -27193189.08144 -21170602.93642  20256806.243    20256799.299
  24046963.004    -8093019.73843  -6297729.09442  24046965.122    24046960.616
  22965357.990   -15990160.61943 -12416848.37942  22965360.153    22965353.885
  22189141.386   -20580770.84943 -16012310.17842  22189142.705    22189138.351
 03  3 26  2 35 30.0000000  0  8G31G 3G25G11G14G23G18G15
  22669589.051   -10290474.02043  -8008406.35142  22669591.125    22669586.877
  22928354.777   -15101201.62143 -11723451.96842  22928356.837    22928353.436
  23513428.526   -11829057.38543  -9084931.21442  23513431.098    23513427.551
  24013659.432   -10173356.58443  -7885939.73942  24013662.139    24013657.190
  20259973.012   -27176534.16344 -21157625.06642  20259975.555    20259968.591
  24058546.842    -8032145.96543  -6250294.96242  24058548.962    24058544.509
  22977832.215   -15924607.83943 -12365768.28442  22977834.392    22977828.157
  22205967.308   -20492349.91943 -15943410.76342  22205968.636    22205964.288
 03  3 26  2 36  0.0000000  0  8G31G 3G25G11G14G23G18G15
  22677054.837   -10251241.18943  -7977835.31442  22677056.892    22677052.638
  22942300.222   -15027917.89243 -11666347.79942  22942302.285    22942298.888
  23494954.984   -11926136.06943  -9160576.81942  23494957.540    23494953.918
  23995183.824   -10270446.44643  -7961594.11542  23995186.431    23995181.449
  20263229.384   -27159421.64744 -21144290.62542  20263231.942    20263224.970
  24070135.730    -7971245.78743  -6202840.27742  24070137.774    24070133.373
  22990321.746   -15858974.65443 -12314625.54742  22990323.930    22990317.716
  22222852.494   -20403617.63543 -15874268.73742  22222853.823    22222849.494
 03  3 26  2 36 30.0000000  0  8G31G 3G25G11G14G23G18G15
  22684607.033   -10211554.10043  -7946910.29742  22684609.074    22684604.827
  22956291.324   -14954394.12843 -11609056.57642  22956293.369    22956289.990
  23476495.411   -12023141.16443  -9236165.10142  23476497.995    23476494.286
  23976729.836   -10367422.46943  -8037159.76542  23976732.402    23976727.428
  20266572.285   -27141854.62444 -21130602.02342  20266574.805    20266567.843
  24081729.364    -7910320.58543  -6155366.08242  24081731.413    24081726.997
  23002826.266   -15793263.11443 -12263421.74242  23002828.381    23002822.241
  22239796.347   -20314577.21643 -15804886.61042  22239797.650    22239793.315
 03  3 26  2 37  0.0000000  0  8G31G 3G25G11G14G23G18G15
  22692252.776   -10171375.20643  -7915602.05642  22692254.851    22692250.616
  22970335.195   -14880593.20043 -11551549.39442  22970337.235    22970333.867
  23458057.870   -12120030.28843  -9311662.98342  23458060.495    23458056.794
  23958305.553   -10464242.44843  -8112603.83942  23958308.104    23958303.139
  20270008.941   -27123794.75744 -21116529.39042  20270011.462    20270004.499
  24093335.353    -7849330.29843  -6107841.18342  24093337.391    24093333.028
  23015353.269   -15727433.12643 -12212125.63842  23015355.401    23015349.277
  22256806.154   -20225190.06843 -15735234.30742  22256807.455    22256803.114
 03  3 26  2 37 30.0000000  0  8G31G 3G25G11G14G23G18G15
  22699986.566   -10130734.02743  -7883933.59542  22699988.655    22699984.345
  22984426.030   -14806545.73643 -11493850.10542  22984428.075    22984424.611
  23439637.798   -12216828.03443  -9387089.68442  23439640.379    23439636.661
  23939906.138   -10560931.49943  -8187945.88742  23939908.732    23939903.745
  20273533.917   -27105270.84644 -21102095.16342  20273536.444    20273529.478
  24104948.664    -7788302.11543  -6060286.75542  24104950.658    24104946.338
  23027897.604   -15661512.31443 -12160758.77442  23027899.771    23027893.590
  22273876.421   -20135485.30843 -15665334.51142  22273877.691    22273873.357
 03  3 26  2 38  0.0000000  0  8G31G 3G25G11G14G23G18G15
  22707813.774   -10089601.73043  -7851882.44242  22707815.885    22707811.580
  22998569.131   -14732223.65043 -11435936.82842  22998571.140    22998567.654
  23421241.577   -12313500.24343  -9462418.54042  23421244.230    23421240.398
  23921537.901   -10657456.70243  -8263160.27742  23921540.466    23921535.482
  20277152.783   -27086253.59144 -21087276.50942  20277155.302    20277148.342
  24116575.113    -7727204.52543  -6012678.23542  24116577.141    24116572.813
  23040465.098   -15595469.63043 -12109296.93842  23040467.260    23040461.106
  22291012.785   -20045433.36743 -15595164.18442  22291014.009    22291009.672
 03  3 26  2 38 30.0000000  0  8G31G 3G25G11G14G23G18G15
  22715722.358   -10048041.90743  -7819498.14542  22715724.469    22715720.152
  23012752.161   -14657691.24843 -11377859.65542  23012754.253    23012750.718
  23402858.072   -12410105.64543  -9537695.33142  23402860.757    23402856.843
  23903189.660   -10753877.10843  -8338293.00042  23903192.311    23903187.209
  20280853.521   -27066806.02844 -21072122.55042  20280856.038    20280849.071
  24128203.203    -7666098.78043  -5965063.37042  24128205.209    24128200.781
  23053044.065   -15529366.72343 -12057788.16842  23053046.222    23053040.066
  22308203.234   -19955097.15543 -15524772.34042  22308204.420    22308200.099
 03  3 26  2 39  0.0000000  0  8G31G 3G25G11G14G23G18G15
  22723722.419   -10006001.18743  -7786739.13342  22723724.548    22723720.278
  23026985.294   -14582895.59843 -11319577.36242  23026987.404    23026983.922
  23384498.357   -12506586.01843  -9612874.70242  23384501.080    23384497.096
  23884872.250   -10850135.13143  -8413299.18542  23884875.054    23884869.899
  20284646.457   -27046874.02544 -21056591.10442  20284648.975    20284641.998
  24139843.407    -7604928.93843  -5917398.56442  24139845.474    24139840.985
  23065645.094   -15463147.82243 -12006189.01742  23065647.281    23065641.074
  22325458.086   -19864422.34743 -15454116.65942  22325459.268    22325454.938
 03  3 26  2 39 30.0000000  0  8G31G 3G25G11G14G23G18G15
  22731807.062    -9963516.00243  -7753633.78042  22731809.183    22731804.949
  23041261.410   -14507874.06443 -11261119.05042  23041263.525    23041260.061
  23366156.416   -12602972.89943  -9687981.21242  23366159.147    23366155.124
  23866579.802   -10946262.62543  -8488203.67642  23866582.583    23866577.334
  20288524.790   -27026493.19744 -21040709.92642  20288527.290    20288520.335
  24151489.391    -7543728.75243  -5869710.10842  24151491.523    24151486.966
  23078261.678   -15396847.14843 -11954526.15042  23078263.861    23078257.661
  22342770.564   -19773444.61543 -15383224.93642  22342771.803    22342767.440
 03  3 26  2 40  0.0000000  0  8G31G 3G25G11G14G23G18G15
  22739975.554    -9920590.35443  -7720185.21942  22739977.657    22739973.424
  23055579.670   -14432631.23043 -11202488.28442  23055581.744    23055578.318
  23347832.489   -12699265.04943  -9763013.87742  23347835.186    23347831.163
  23848312.301   -11042259.15843  -8563006.10242  23848315.045    23848309.681
  20292487.871   -27005666.88944 -21024481.61642  20292490.379    20292483.411
  24163140.888    -7482499.66643  -5821999.15042  24163143.101    24163138.476
  23090893.476   -15330466.50943 -11902800.97142  23090895.633    23090889.478
  22360140.006   -19682167.51143 -15312099.92342  22360141.299    22360136.901
 03  3 26  2 40 30.0000000  0  8G31G 3G25G11G14G23G18G15
  22748227.634    -9877225.28743  -7686394.24742  22748229.730    22748225.506
  23069939.697   -14357168.71943 -11143686.35842  23069941.751    23069938.342
  23329527.299   -12795458.63043  -9837969.75442  23329530.023    23329525.980
  23830070.343   -11138121.17643  -8637703.71042  23830073.110    23830067.673
  20296535.618   -26984395.61944 -21007906.58242  20296538.146    20296531.182
  24174798.234    -7421240.15043  -5774264.47342  24174800.449    24174795.770
  23103540.803   -15264004.56243 -11851012.43942  23103542.940    23103536.768
  22377566.354   -19590591.35143 -15240741.88842  22377567.685    22377563.255
 03  3 26  2 41  0.0000000  0  8G31G 3G25G11G14G23G18G15
  22756569.516    -9833388.24043  -7652235.49942  22756571.615    22756567.422
  23084347.575   -14281454.91343 -11084688.61042  23084349.651    23084346.183
  23311248.020   -12891515.88143  -9912819.38242  23311250.733    23311246.764
  23811860.981   -11233811.93143  -8712267.84542  23811863.726    23811858.318
  20300674.375   -26962646.19044 -20990958.95642  20300676.890    20300669.939
  24186468.029    -7359915.16043  -5726478.77442  24186470.187    24186465.537
  23116210.037   -15197427.10543 -11799133.89542  23116212.192    23116206.026
  22395056.000   -19498682.61643 -15169124.69842  22395057.322    22395052.945
 03  3 26  2 41 30.0000000  0  8G31G 3G25G11G14G23G18G15
  22765000.092    -9789085.30243  -7617713.73142  22765002.179    22764997.986
  23098802.138   -14205495.95843 -11025499.84742  23098804.188    23098800.715
  23292994.506   -12987437.91943  -9987563.66342  23292997.190    23292993.245
  23793683.970   -11329332.51643  -8786699.38342  23793686.697    23793681.219
  20304903.135   -26940423.78044 -20973642.77542  20304905.651    20304898.702
  24198149.605    -7298528.19843  -5678644.78742  24198151.643    24198147.076
  23128900.707   -15130737.33343 -11747167.82342  23128902.848    23128896.684
  22412607.936   -19406446.70443 -15097252.56442  22412609.235    22412604.858
 03  3 26  2 42  0.0000000  0  8G31G 3G25G11G14G23G18G15
  22773510.238    -9744364.31643  -7582866.21042  22773512.277    22773508.098
  23113293.918   -14129340.91943 -10966158.27942  23113296.017    23113292.541
  23274758.598   -13083267.45243 -10062235.85842  23274761.279    23274757.360
  23775531.091   -11424726.46943  -8861032.23942  23775533.846    23775528.227
  20309212.900   -26917775.69744 -20955994.89842  20309215.410    20309208.483
  24209834.420    -7237124.42143  -5630797.70542  24209836.416    24209831.859
  23141604.050   -15063980.63443 -11695149.60942  23141606.231    23141599.998
  22430213.182   -19313930.69243 -15025162.17842  22430214.473    22430210.078
 03  3 26  2 42 30.0000000  0  8G31G 3G25G11G14G23G18G15
  22782101.838    -9699215.13143  -7547685.03942  22782103.873    22782099.724
  23127824.917   -14052980.10543 -10906656.38342  23127827.012    23127823.560
  23256543.277   -13178989.15843 -10136824.03942  23256545.885    23256541.964
  23757405.103   -11519979.04243  -8935254.92642  23757407.810    23757402.186
  20313605.720   -26894691.07344 -20938006.85942  20313608.239    20313601.314
  24221524.831    -7175690.88843  -5582927.42742  24221526.870    24221522.332
  23154322.506   -14997144.59643 -11643069.57242  23154324.673    23154318.457
  22447873.744   -19221123.77543 -14952845.11542  22447875.047    22447870.692
 03  3 26  2 43  0.0000000  0  8G31G 3G25G11G14G23G18G15
  22790780.047    -9653610.97143  -7512149.33942  22790782.067    22790777.888
  23142400.148   -13976387.14543 -10846973.57642  23142402.193    23142398.728
  23238354.548   -13274570.95343 -10211303.19642  23238357.176    23238353.193
  23739311.940   -11615058.90043  -9009343.03042  23739314.639    23739309.052
  20318086.823   -26871142.65944 -20919657.42342  20318089.351    20318082.419
  24233226.516    -7114198.17743  -5535011.04642  24233228.567    24233224.077
  23167061.465   -14930200.67743 -11590905.46642  23167063.599    23167057.430
  22465594.900   -19127998.45143 -14880279.93742  22465596.240    22465591.894
 03  3 26  2 43 30.0000000  0  8G31G 3G25G11G14G23G18G15
  22799541.194    -9607570.81243  -7476273.90942  22799543.211    22799539.047
  23157015.762   -13899581.60143 -10787125.11942  23157017.834    23157014.397
  23220189.781   -13370026.83143 -10285684.25142  23220192.402    23220188.379
  23721248.855   -11709980.66943  -9083307.96342  23721251.587    23721245.950
  20322652.770   -26847148.37644 -20900960.55742  20322655.270    20322648.351
  24244936.307    -7052662.60643  -5487061.25942  24244938.349    24244933.941
  23179817.846   -14863165.31443 -11538670.11842  23179819.983    23179813.810
  22483373.185   -19034572.90843 -14807480.81442  22483374.483    22483370.192
 03  3 26  2 44  0.0000000  0  8G31G 3G25G11G14G23G18G15
  22808382.354    -9561110.24643  -7440070.88242  22808384.346    22808380.197
  23171668.722   -13822579.86943 -10727123.79642  23171670.809    23171667.361
  23202047.022   -13465367.25343 -10359975.34042  23202049.646    23202045.556
  23703213.758   -11804755.30343  -9157158.22542  23703216.504    23703210.872
  20327300.693   -26822723.12544 -20881927.87242  20327303.213    20327296.307
  24256651.896    -6991097.09543  -5439088.12442  24256653.910    24256649.465
  23192589.121   -14796051.69043 -11486373.77142  23192591.281    23192585.060
  22501205.766   -18940861.99043 -14734459.33542  22501207.091    22501202.820
 03  3 26  2 44 30.0000000  0  8G31G 3G25G11G14G23G18G15
  22817304.741    -9514222.71043  -7403535.15942  22817306.729    22817302.613
  23186360.213   -13745375.84943 -10666964.83342  23186362.223    23186358.800
  23183928.415   -13560580.41643 -10434167.27442  23183931.099    23183926.932
  23685208.777   -11899371.35043  -9230884.93642  23685211.565    23685205.956
  20332032.020   -26797859.78444 -20862553.81942  20332034.542    20332027.597
  24268374.892    -6929492.33543  -5391084.44042  24268376.927    24268372.419
  23205377.099   -14728850.66243 -11434009.33042  23205379.241    23205372.952
  22519094.076   -18846858.30143 -14661209.71242  22519095.396    22519091.149
 03  3 26  2 45  0.0000000  0  8G31G 3G25G11G14G23G18G15
  22826313.835    -9466879.63543  -7366644.46742  22826315.849    22826311.669
  23201095.432   -13667941.77443 -10606626.61042  23201097.466    23201094.045
  23165840.453   -13655632.67943 -10508233.83542  23165843.088    23165838.941
  23667240.305   -11993795.88743  -9304462.43642  23667243.139    23667237.488
  20336852.285   -26772529.08944 -20842815.59142  20336854.804    20336847.831
  24280111.240    -6867817.00043  -5343025.72342  24280113.311    24280108.802
  23218187.543   -14661531.55043 -11381552.87442  23218189.688    23218183.362
  22537043.662   -18752532.58743 -14587709.15442  22537044.973    22537040.705
 03  3 26  2 45 30.0000000  0  8G31G 3G25G11G14G23G18G15
  22835403.067    -9419115.46443  -7329425.65942  22835405.069    22835400.873
  23215867.829   -13590312.33443 -10546136.16942  23215869.869    23215866.473
  23147777.608   -13750553.09543 -10582197.65442  23147780.199    23147776.044
  23649302.694   -12088058.57543  -9377913.82742  23649305.410    23649299.841
  20341755.043   -26746764.70344 -20822739.42242  20341757.597    20341750.598
  24291855.083    -6806102.65043  -5294936.63042  24291857.065    24291852.677
  23231014.420   -14594126.18143 -11329029.20142  23231016.513    23231010.158
  22555048.161   -18657918.51643 -14513983.92642  22555049.459    22555045.158
 03  3 26  2 46  0.0000000  0  8G31G 3G25G11G14G23G18G15
  22844572.239    -9370931.10743  -7291879.42842  22844574.253    22844570.042
  23230677.093   -13512489.07243 -10485494.69542  23230679.120    23230675.805
  23129740.629   -13845337.45943 -10656055.47142  23129743.237    23129739.052
  23631396.535   -12182155.68543  -9451236.18742  23631399.258    23631393.659
  20346740.337   -26720566.84944 -20802325.49242  20346742.868    20346735.873
  24303606.738    -6744347.58243  -5246815.81242  24303608.680    24303604.291
  23243857.895   -14526633.16843 -11276437.23142  23243859.977    23243853.639
  22573107.537   -18563016.05043 -14440033.96242  22573108.798    22573104.505
 03  3 26  2 46 30.0000000  0  8G31G 3G25G11G14G23G18G15
  22853821.570    -9322325.44243  -7254004.92342  22853823.596    22853819.387
  23245523.400   -13434471.25543 -10424701.61842  23245525.426    23245522.115
  23111730.721   -13939979.70843 -10729802.54442  23111733.311    23111729.060
  23613523.107   -12276081.04843  -9524424.73142  23613525.776    23613520.226
  20351808.451   -26693933.80144 -20781572.44842  20351810.966    20351803.956
  24315366.878    -6682547.75743  -5198660.09242  24315368.790    24315364.500
  23256718.771   -14459048.70543 -11223774.01542  23256720.889    23256714.547
  22591222.085   -18467823.27143 -14365857.77642  22591223.349    22591219.073
 03  3 26  2 47  0.0000000  0  8G31G 3G25G11G14G23G18G15
  22863154.590    -9273280.13143  -7215787.82942  22863156.599    22863152.419
  23260410.066   -13356241.28243 -10363743.22342  23260412.100    23260408.826
  23093752.402   -14034456.02643 -10803420.33642  23093755.001    23093750.653
  23595686.698   -12369811.74143  -9597461.58342  23595689.392    23595683.812
  20356963.003   -26666846.36944 -20760465.34242  20356965.520    20356958.499
  24327139.536    -6620682.16443  -5150453.14242  24327141.441    24327137.196
  23269600.969   -14391352.38043 -11171023.63342  23269603.124    23269596.697
  22609395.564   -18372321.08643 -14291440.49642  22609396.829    22609392.533
 03  3 26  2 47 30.0000000  0  8G31G 3G25G11G14G23G18G15
  22872563.897    -9223833.83043  -7177258.28042  22872565.915    22872561.775
  23275329.680   -13277838.15443 -10302649.90342  23275331.696    23275328.514
  23075799.340   -14128799.55943 -10876934.64242  23075801.914    23075797.577
  23577880.875   -12463381.66943  -9670373.16042  23577883.592    23577877.981
  20362196.783   -26639342.48744 -20739033.72742  20362199.326    20362192.295
  24338917.741    -6558786.54543  -5102222.77942  24338919.724    24338915.540
  23282497.597   -14323580.19243 -11118214.11342  23282499.724    23282493.323
  22627620.676   -18276547.42343 -14216811.67242  22627621.977    22627617.640
 03  3 26  2 48  0.0000000  0  8G31G 3G25G11G14G23G18G15
  22882054.185    -9173962.21443  -7138397.31742  22882056.201    22882052.059
  23290286.852   -13199237.89043 -10241402.96342  23290288.913    23290285.666
  23057877.192   -14222980.60343 -10950322.35242  23057879.766    23057875.362
  23560111.152   -12556761.81943  -9743136.86842  23560113.890    23560108.269
  20367514.646   -26611396.88844 -20717257.92242  20367517.160    20367510.145
  24350706.992    -6496833.70243  -5053947.82942  24350709.000    24350704.773
  23295413.743   -14255705.08443 -11065324.42842  23295415.856    23295409.512
  22645902.256   -18180477.01843 -14141951.62542  22645903.537    22645899.259
 03  3 26  2 48 30.0000000  0  8G31G 3G25G11G14G23G18G15
  22891623.443    -9123675.66043  -7099213.02442  22891625.432    22891621.305
  23305279.408   -13120451.33443 -10180010.85142  23305281.476    23305278.308
  23039984.947   -14317004.56443 -11023587.65542  23039987.536    23039983.075
  23542376.490   -12649957.89043  -9815757.12442  23542379.211    23542373.587
  20372914.691   -26583019.38044 -20695145.56642  20372917.205    20372910.189
  24362505.627    -6434831.33343  -5005634.28542  24362507.721    24362503.371
  23308348.002   -14187735.05343 -11012360.76442  23308350.074    23308343.813
  22664238.453   -18084119.55343 -14066867.88942  22664239.747    22664235.482
 03  3 26  2 49  0.0000000  0  8G31G 3G25G11G14G23G18G15
  22901268.246    -9072992.38143  -7059719.59642  22901270.214    22901266.036
  23320303.841   -13041497.47243 -10118488.38642  23320305.892    23320302.720
  23022120.093   -14410884.55743 -11096740.77042  23022122.660    23022118.189
  23524674.323   -12742983.27143  -9888244.37542  23524677.038    23524671.365
  20378393.552   -26554227.54844 -20672710.36042  20378396.087    20378389.069
  24374310.737    -6372794.74343  -4957294.05342  24374312.845    24374308.531
  23321297.328   -14119685.89143 -10959335.43142  23321299.338    23321293.146
  22682625.976   -17987492.51543 -13991574.09642  22682627.279    22682622.994
 03  3 26  2 49 30.0000000  0  8G31G 3G25G11G14G23G18G15
  22910990.226    -9021902.99643  -7019909.71242  22910992.231    22910988.047
  23335361.827   -12962367.22343 -10056828.47142  23335363.851    23335360.700
  23004285.554   -14504605.37543 -11169769.86342  23004288.132    23004283.546
  23507007.247   -12835823.64343  -9960587.42842  23507010.040    23507004.369
  20383953.192   -26525011.33344 -20649944.46842  20383955.716    20383948.727
  24386124.749    -6310711.52743  -4908917.52842  24386126.845    24386122.549
  23334263.987   -14051545.65443 -10906239.14442  23334266.000    23334259.808
  22701066.741   -17890585.68643 -13916062.29342  22701068.024    22701063.768
 03  3 26  2 50  0.0000000  0  8G31G 3G25G11G14G23G18G15
  22920789.096    -8970409.85143  -6979785.21042  22920791.062    22920786.875
  23350452.860   -12883063.16743  -9995033.12542  23350454.900    23350451.747
  22986481.802   -14598164.33643 -11242672.83242  22986484.370    22986479.715
  23489375.876   -12928476.54543 -10032784.41742  23489378.717    23489373.010
  20389593.363   -26495372.12644 -20626848.97442  20389595.867    20389588.859
  24397947.742    -6248581.25943  -4860504.31142  24397949.806    24397945.584
  23347248.022   -13983313.98843 -10853071.61842  23347250.103    23347243.823
  22719560.494   -17793400.57143 -13840333.63842  22719561.709    22719557.427
 03  3 26  2 50 30.0000000  0  8G31G 3G25G11G14G23G18G15
  22930666.856    -8918502.14343  -6939337.67342  22930668.769    22930664.592
  23365579.009   -12803574.90243  -9933094.23342  23365581.026    23365577.855
  22968711.926   -14691545.24243 -11315437.04642  22968714.514    22968709.736
  23471783.250   -13020926.26643 -10104823.08042  23471786.086    23471780.336
  20395316.179   -26465298.47244 -20603414.94542  20395318.689    20395311.660
  24409782.369    -6186390.02143  -4812043.61242  24409784.435    24409780.119
  23360252.095   -13914977.44343 -10799822.33142  23360254.177    23360247.798
  22738109.462   -17695925.16943 -13764378.79342  22738110.688    22738106.389
 03  3 26  2 51  0.0000000  0  8G31G 3G25G11G14G23G18G15
  22940616.827    -8866214.80143  -6898594.31142  22940618.721    22940614.540
  23380733.381   -12723938.12743  -9871039.61242  23380735.413    23380732.270
  22950970.267   -14784777.81743 -11388085.68742  22950972.858    22950968.008
  23454223.543   -13113202.83643 -10176726.80542  23454226.377    23454220.557
  20401115.161   -26434824.41244 -20579668.91442  20401117.681    20401110.670
  24421622.435    -6124169.99943  -4763560.45642  24421624.422    24421620.172
  23373269.881   -13846568.62043 -10746516.76242  23373271.970    23373265.541
  22756707.123   -17598193.76543 -13688224.45442  22756708.380    22756704.072
 03  3 26  2 51 30.0000000  0  8G31G 3G25G11G14G23G18G15
  22950645.859    -8813512.07943  -6857527.28542  22950647.732    22950643.568
  23395922.836   -12644117.22643  -9808841.53242  23395924.900    23395921.744
  22933264.622   -14877821.01043 -11460586.75142  22933267.217    22933262.348
  23436704.522   -13205265.73643 -10248464.05542  23436707.360    23436701.417
  20406997.318   -26403913.52444 -20555582.49642  20406999.803    20406992.801
  24433475.329    -6061882.55943  -4715024.77042  24433477.313    24433472.942
  23386308.713   -13778049.07543 -10693124.88842  23386310.847    23386304.432
  22775360.393   -17500169.97143 -13611842.28042  22775361.695    22775357.353
 03  3 26  2 52  0.0000000  0  8G31G 3G25G11G14G23G18G15
  22960749.231    -8760418.66143  -6816155.80242  22960751.086    22960746.940
  23411142.604   -12564137.11743  -9746519.40342  23411144.613    23411141.543
  22915591.466   -14970693.65443 -11532954.92542  22915594.025    22915589.153
  23419222.303   -13297134.99243 -10320050.40742  23419225.102    23419219.200
  20412958.035   -26372589.79444 -20531174.38742  20412960.517    20412953.522
  24445336.906    -5999549.40543  -4666453.46442  24445338.862    24445334.524
  23399364.321   -13709441.14443 -10639664.16842  23399366.464    23399360.032
  22794064.725   -17401877.71343 -13535250.91142  22794066.061    22794061.734
 03  3 26  2 52 30.0000000  0  8G31G 3G25G11G14G23G18G15
  22970928.470    -8706926.52943  -6774473.62742  22970930.330    22970926.185
  23426394.061   -12483990.32143  -9684067.37542  23426396.076    23426392.984
  22897953.266   -15063382.65343 -11605179.99542  22897955.805    22897950.869
  23401779.449   -13388797.37443 -10391475.55642  23401782.225    23401776.311
  20418998.965   -26340844.43944 -20506437.73242  20419001.463    20418994.458
  24457209.250    -5937159.69643  -4617838.11842  24457211.375    24457206.904
  23412438.845   -13640733.85543 -10586126.01142  23412441.007    23412434.637
  22812821.910   -17303308.00543 -13458443.35442  22812823.266    22812818.918
 03  3 26  2 53  0.0000000  0  8G31G 3G25G11G14G23G18G15
  22981180.531    -8653051.28143  -6732492.91642  22981182.453    22981178.330
  23441674.238   -12403692.67643  -9621497.78442  23441676.218    23441673.109
  22880348.015   -15155898.44343 -11677270.09542  22880350.536    22880345.604
  23384373.905   -13480263.63843 -10462747.90242  23384376.674    23384370.762
  20425117.344   -26308692.18844 -20481384.01342  20425119.816    20425112.804
  24469090.059    -5874725.84843  -4569188.34642  24469092.092    24469087.713
  23425529.758   -13571940.20043 -10532520.57142  23425531.963    23425525.652
  22831629.155   -17204475.45143 -13381430.96742  22831630.497    22831626.134
 03  3 26  2 53 30.0000000  0  8G31G 3G25G11G14G23G18G15
  22991503.729    -8598802.55743  -6690221.20042  22991505.652    22991501.509
  23456981.088   -12323254.31243  -9558818.56442  23456983.117    23456980.036
  22862774.987   -15248244.75943 -11749228.14242  22862777.488    22862772.552
  23367004.865   -13571538.31043 -10533870.94942  23367007.609    23367001.652
  20431311.433   -26276141.98544 -20456020.20442  20431313.905    20431306.883
  24480977.896    -5812254.62043  -4520509.48342  24480980.106    24480975.627
  23438635.800   -13503067.17843 -10478853.26842  23438638.016    23438631.754
  22850484.702   -17105388.73943 -13304220.56242  22850486.036    22850481.727
 03  3 26  2 54  0.0000000  0  8G31G 3G25G11G14G23G18G15
  23001901.216    -8544162.98043  -6647644.90842  23001903.189    23001899.095
  23472318.008   -12242658.23043  -9496016.43642  23472320.077    23472316.967
  22845238.524   -15340398.98143 -11821036.50842  22845241.034    22845236.110
  23349676.442   -13662599.24043 -10604827.43142  23349679.226    23349673.286
  20437584.708   -26243175.60744 -20430332.09942  20437587.191    20437580.136
  24492876.809    -5749725.46143  -4471785.45442  24492879.008    24492874.451
  23451760.850   -13434094.55643 -10425108.38342  23451763.004    23451756.808
  22869392.057   -17006029.71443 -13226797.94842  22869393.449    22869389.067
 03  3 26  2 54 30.0000000  0  8G31G 3G25G11G14G23G18G15
  23012372.462    -8489136.46743  -6604767.12342  23012374.402    23012370.295
  23487684.163   -12161908.65343  -9433094.69542  23487686.226    23487683.128
  22827738.858   -15432359.55343 -11892693.98642  22827741.418    22827736.498
  23332389.126   -13753445.20443 -10675616.44842  23332391.848    23332385.824
  20443936.619   -26209796.05044 -20404322.03942  20443939.110    20443932.037
  24504786.498    -5687139.29643  -4423017.02442  24504788.796    24504784.152
  23464904.490   -13365023.82643 -10371287.05042  23464906.693    23464900.500
  22888350.716   -16906401.43043 -13149165.53342  22888352.085    22888347.708
 03  3 26  2 55  0.0000000  0  8G31G 3G25G11G14G23G18G15
  23022916.505    -8433727.42943  -6561591.26342  23022918.434    23022914.291
  23503078.667   -12081010.09543  -9370056.87542  23503080.776    23503077.638
  22810276.282   -15524125.61743 -11964199.89842  22810278.845    22810273.926
  23315142.619   -13844075.80143 -10746237.60042  23315145.302    23315139.350
  20450366.395   -26176007.12744 -20377992.98842  20450368.910    20450361.833
  24516706.871    -5624497.67443  -4374205.34242  24516709.055    24516704.432
  23478066.632   -13295856.59443 -10317390.48442  23478068.768    23478062.630
  22907359.911   -16806507.43343 -13071326.06242  22907361.284    22907356.935
 03  3 26  2 55 30.0000000  0  8G31G 3G25G11G14G23G18G15
  23033528.542    -8377960.93543  -6518136.85742  23033530.499    23033526.339
  23518496.609   -11999988.01143  -9306922.78742  23518498.816    23518495.609
  22792847.029   -15615716.55243 -12035569.34542  22792849.587    22792844.642
  23297933.344   -13934511.03443 -10816706.56642  23297936.031    23297930.053
  20456869.485   -26141832.98744 -20351363.76942  20456872.004    20456864.952
  24528633.501    -5561822.55643  -4325367.59842  24528635.594    24528631.143
  23491242.836   -13226615.28143 -10263436.22442  23491244.931    23491238.849
  22926415.085   -16706371.98243 -12993298.44142  22926416.446    22926412.079
 03  3 26  2 56  0.0000000  0  8G31G 3G25G11G14G23G18G15
  23044213.304    -8321812.11143  -6474384.54242  23044215.298    23044211.090
  23533942.807   -11918817.88343  -9243673.34542  23533944.998    23533941.789
  22775456.831   -15707102.16843 -12106778.81842  22775459.395    22775454.413
  23280766.924   -14024720.98043 -10886999.95542  23280769.580    23280763.664
  20463450.759   -26107248.15144 -20324414.52742  20463453.267    20463446.218
  24540571.925    -5499086.16343  -4276482.09842  24540573.993    24540569.459
  23504438.392   -13157272.29543 -10209402.75442  23504440.449    23504434.393
  22945521.044   -16605969.38043 -12915062.64742  22945522.387    22945518.069
 03  3 26  2 56 30.0000000  0  8G31G 3G25G11G14G23G18G15
  23054974.447    -8265262.03243  -6430319.56342  23054976.400    23054972.199
  23549420.822   -11837480.91743  -9180293.90642  23549422.950    23549419.636
  22758110.325   -15798258.23843 -12177809.42342  22758112.894    22758107.897
  23263647.920   -14114681.55243 -10957099.05042  23263650.571    23263644.670
  20470113.921   -26072232.84844 -20297129.85942  20470116.437    20470109.405
  24552526.104    -5436266.32743  -4227531.56542  24552528.137    24552523.629
  23517657.424   -13087805.90743 -10155273.09542  23517659.504    23517653.381
  22964681.644   -16505279.80243 -12836603.26342  22964682.959    22964678.689
 03  3 26  2 57  0.0000000  0  8G31G 3G25G11G14G23G18G15
  23065805.988    -8208342.01243  -6385966.32342  23065807.906    23065803.749
  23564924.550   -11756008.44543  -9116808.86942  23564926.648    23564923.335
  22740802.548   -15889210.69343 -12248681.36042  22740805.137    22740800.106
  23246571.415   -14204419.28043 -11027024.49842  23246574.005    23246568.069
  20476853.197   -26036817.59744 -20269533.54342  20476855.713    20476848.688
  24564490.823    -5373391.32343  -4178538.07842  24564492.891    24564488.356
  23530894.474   -13018244.91243 -10101069.72042  23530896.562    23530890.392
  22983891.065   -16404333.63643 -12757943.90242  22983892.446    22983888.176
 03  3 26  2 57 30.0000000  0  8G31G 3G25G11G14G23G18G15
  23076704.362    -8151070.77743  -6341339.40542  23076706.285    23076702.124
  23580450.384   -11674419.72243  -9053233.24942  23580452.503    23580449.161
  22723531.061   -15979972.61243 -12319404.83942  22723533.637    22723528.593
  23229534.670   -14293947.58743 -11096786.74942  23229537.230    23229531.298
  20483665.209   -26001020.25044 -20241639.48842  20483667.695    20483660.682
  24576463.043    -5310476.73043  -4129513.69942  24576465.164    24576460.667
  23544146.511   -12948605.18043 -10046805.01742  23544148.558    23544142.415
  23003145.985   -16303148.49843 -12679098.34442  23003147.359    23003143.122
 03  3 26  2 58  0.0000000  0  8G31G 3G25G11G14G23G18G15
  23087670.845    -8093441.95443  -6296433.84242  23087672.718    23087668.573
  23595999.465   -11592708.66343  -8989562.30742  23596001.606    23595998.268
  22706298.171   -16070531.82543 -12389970.36242  22706300.724    22706295.680
  23212539.972   -14383255.16043 -11166377.00342  23212542.520    23212536.588
  20490551.271   -25964833.59144 -20213442.07642  20490553.784    20490546.752
  24588444.616    -5247513.00743  -4080451.05842  24588446.709    24588442.326
  23557415.272   -12878877.34943  -9992471.65742  23557417.298    23557411.214
  23022447.747   -16201717.09243 -12600060.92242  23022449.053    23022444.923
 03  3 26  2 58 30.0000000  0  8G31G 3G25G11G14G23G18G15
  23098703.002    -8035467.61143  -6251259.06542  23098704.908    23098700.715
  23611569.489   -11510887.68043  -8925805.71642  23611571.610    23611568.307
  22689102.611   -16160894.93043 -12460383.08142  22689105.124    22689100.040
  23195585.953   -14472349.12843 -11235800.82442  23195588.484    23195582.517
  20497509.296   -25928268.88044 -20184950.08042  20497511.796    20497504.762
  24600433.852    -5184509.34343  -4031357.28642  24600435.912    24600431.477
  23570698.943   -12809071.02943  -9938077.12342  23570701.006    23570694.925
  23041794.174   -16100050.78643 -12520840.44142  23041795.515    23041791.383
 03  3 26  2 59  0.0000000  0  8G31G 3G25G11G14G23G18G15
  23109805.163    -7977125.47543  -6205797.66942  23109807.047    23109802.859
  23627164.725   -11428934.40243  -8861946.03042  23627166.808    23627163.460
  22671949.592   -16251034.30643 -12530621.46542  22671952.128    22671946.955
  23178677.740   -14561201.96643 -11305036.72342  23178680.302    23178674.332
  20504543.658   -25891302.94444 -20156145.43642  20504546.163    20504539.125
  24612435.536    -5121440.20943  -3982212.47642  24612437.497    24612433.167
  23584002.464   -12739160.71643  -9883601.54242  23584004.510    23583998.406
  23061189.793   -15998126.40743 -12441418.85942  23061191.130    23061186.933
 03  3 26  2 59 30.0000000  0  8G31G 3G25G11G14G23G18G15
  23120971.385    -7918446.43843  -6160073.77042  23120973.323    23120969.125
  23642779.169   -11346880.07743  -8798007.61742  23642781.228    23642777.878
  22654834.299   -16340975.34043 -12600705.29142  22654836.848    22654831.641
  23161810.591   -14649839.33143 -11374104.74042  23161813.191    23161807.148
  20511648.585   -25853966.16444 -20127051.82642  20511651.094    20511644.062
  24624444.238    -5058333.56143  -3933038.45442  24624446.244    24624441.935
  23597320.349   -12669174.94443  -9829067.17342  23597322.362    23597316.266
  23080628.738   -15895974.29143 -12361819.83142  23080630.024    23080625.860
 03  3 26  3  0  0.0000000  0  8G31G 3G25G11G14G23G18G15
  23132207.849    -7859398.49643  -6114062.40442  23132209.767    23132205.600
  23658418.895   -11264692.83743  -8733965.63142  23658420.957    23658417.636
  22637763.874   -16430680.76543 -12670605.54042  22637766.398    22637761.171
  23144991.386   -14738224.11443 -11442975.90942  23144994.026    23144988.031
  20518830.438   -25816225.34144 -20097643.37642  20518832.920    20518825.891
  24636466.897    -4995154.11143  -3883807.71042  24636468.967    24636464.543
  23610659.203   -12599078.62543  -9774446.66942  23610661.257    23610655.145
  23100117.274   -15793561.15443 -12282017.40742  23100118.589    23100114.491
 03  3 26  3  0 30.0000000  0  8G31G 3G25G11G14G23G18G15
  23143514.116    -7799983.73343  -6067765.21142  23143516.052    23143511.827
  23674083.390   -11182375.07443  -8669821.94042  23674085.469    23674082.213
  22620738.888   -16520147.22743 -12740319.57842  22620741.383    22620736.176
  23128220.899   -14826353.61543 -11511648.17842  23128223.514    23128217.500
  20526088.860   -25778082.12444 -20067921.37642  20526091.339    20526084.300
  24648503.628    -4931900.85843  -3834519.44842  24648505.526    24648501.220
  23624019.189   -12528871.22443  -9719739.59142  23624021.320    23624015.169
  23119655.340   -15690888.31643 -12202012.61542  23119656.575    23119652.493
 03  3 26  3  1  0.0000000  0  8G31G 3G25G11G14G23G18G15
  23154882.666    -7740241.58243  -6021212.90142  23154884.659    23154880.379
  23689765.268   -11099966.07543  -8605607.14942  23689767.357    23689764.148
  22603752.917   -16609408.52843 -12809873.75342  22603755.413    22603750.204
  23111492.359   -14914262.16243 -11580148.26642  23111494.957    23111488.956
  20533416.507   -25739574.86444 -20037915.70142  20533419.013    20533411.959
  24660547.440    -4868609.97543  -3785201.87842  24660549.408    24660545.017
  23637393.381   -12458589.20743  -9664974.37942  23637395.536    23637389.349
  23139235.497   -15587994.16243 -12121835.38142  23139236.690    23139232.613
 03  3 26  3  1 30.0000000  0  8G31G 3G25G11G14G23G18G15
  23166318.460    -7680146.19043  -5974385.33442  23166320.482    23166316.156
  23705469.358   -11017440.34943  -8541301.40642  23705471.535    23705468.302
  22586812.064   -16698432.90943 -12879243.30842  22586814.571    22586809.356
  23094811.892   -15001918.58343 -11648451.89942  23094814.429    23094808.426
  20540818.543   -25700676.89444 -20007605.58042  20540821.021    20540813.949
  24672603.905    -4805252.61943  -3735832.51042  24672605.943    24672601.565
  23650787.237   -12388204.01543  -9610128.77542  23650789.397    23650783.148
  23158862.810   -15484851.92143 -12041464.81542  23158863.984    23158859.880
 03  3 26  3  2  0.0000000  0  8G31G 3G25G11G14G23G18G15
  23177820.259    -7619703.87043  -5927287.43842  23177822.289    23177817.968
  23721194.507   -10934804.29843  -8476909.69442  23721196.680    23721193.485
  22569916.134   -16787221.31743 -12948429.00042  22569918.633    22569913.398
  23078179.125   -15089323.77343 -11716559.78142  23078181.760    23078175.656
  20548293.840   -25661393.95744 -19976995.49142  20548296.297    20548289.213
  24684672.478    -4741831.87843  -3686413.74442  24684674.538    24684670.135
  23664200.110   -12317718.96943  -9555205.36942  23664202.255    23664195.974
  23178536.262   -15381467.12843 -11960905.23742  23178537.466    23178533.307
 03  3 26  3  2 30.0000000  0  8G31G 3G25G11G14G23G18G15
  23189380.916    -7558952.21143  -5879948.49242  23189382.910    23189378.642
  23736933.447   -10852095.70243  -8412461.45242  23736935.618    23736932.421
  22553058.959   -16875805.87843 -13017455.84642  22553061.497    22553056.206
  23061588.029   -15176510.29543 -11784497.25842  23061590.684    23061584.540
  20555835.477   -25621762.29744 -19946113.66542  20555837.942    20555830.839
  24696746.609    -4678382.00143  -3636972.27042  24696748.671    24696744.333
  23677625.335   -12247168.86843  -9500231.25742  23677627.478    23677621.159
  23198248.922   -15277876.32143 -11880185.15342  23198250.184    23198246.007
 03  3 26  3  3  0.0000000  0  8G31G 3G25G11G14G23G18G15
  23201011.627    -7497832.36843  -5832322.63942  23201013.628    23201009.361
  23752697.384   -10769255.76743  -8347910.88242  23752699.525    23752696.392
  22536252.856   -16964122.07143 -13086273.57242  22536255.404    22536250.080
  23045050.731   -15263414.20443 -11852214.53042  23045053.362    23045047.219
  20563454.778   -25581722.47544 -19914913.79442  20563457.247    20563450.169
  24708838.056    -4614841.06243  -3587459.85942  24708840.124    24708835.769
  23691074.709   -12176492.16343  -9445158.49542  23691076.875    23691070.468
  23218012.180   -15174019.81643 -11799258.02342  23218013.460    23218009.287
 03  3 26  3  3 30.0000000  0  8G31G 3G25G11G14G23G18G15
  23212699.909    -7436410.07943  -5784461.12042  23212701.869    23212697.646
  23768473.760   -10686350.37443  -8283309.30642  23768475.911    23768472.733
  22519486.430   -17052230.03243 -13154929.04442  22519488.960    22519483.586
  23028555.607   -15350096.01443 -11919758.73342  23028558.294    23028552.135
  20571139.400   -25541339.37244 -19883446.43442  20571141.863    20571134.795
  24720934.937    -4551271.76043  -3537925.33142  24720937.011    24720932.612
  23704536.241   -12105751.56843  -9390035.94342  23704538.387    23704531.945
  23237813.602   -15069962.50143 -11718174.40642  23237814.915    23237810.698
 03  3 26  3  4  0.0000000  0  8G31G 3G25G11G14G23G18G15
  23224452.098    -7374652.05843  -5736337.99242  23224454.036    23224449.875
  23784268.944   -10603346.24943  -8218630.79242  23784271.058    23784267.959
  22502766.965   -17140091.13243 -13223392.16142  22502769.464    22502764.076
  23012110.150   -15436517.30443 -11987099.95642  23012112.795    23012106.637
  20578895.827   -25500578.96344 -19851685.06942  20578898.291    20578891.237
  24733044.107    -4487637.40843  -3488340.11542  24733046.126    24733041.865
  23718016.745   -12034910.84443  -9334835.36342  23718018.947    23718012.488
  23257659.789   -14965670.14243 -11636907.65542  23257661.119    23257656.890
 03  3 26  3  4 30.0000000  0  8G31G 3G25G11G14G23G18G15
  23236271.951    -7312538.24343  -5687937.62642  23236273.939    23236269.777
  23800086.637   -10520223.62443  -8153859.92542  23800088.757    23800085.664
  22486099.338   -17227679.75643 -13291642.96442  22486101.838    22486096.406
  22995719.044   -15522652.72743 -12054218.41542  22995721.709    22995715.527
  20586728.071   -25459420.34444 -19819613.41142  20586730.522    20586723.468
  24745170.086    -4423914.77443  -3438686.10742  24745171.967    24745167.905
  23731520.695   -11963946.97143  -9279538.84442  23731522.884    23731516.461
  23277554.721   -14861121.78843 -11555441.41442  23277556.024    23277551.772
 03  3 26  3  5  0.0000000  0  8G31G 3G25G11G14G23G18G15
  23248148.750    -7250125.51743  -5639304.34242  23248150.735    23248146.563
  23815916.092   -10437039.41443  -8089041.08742  23815918.199    23815915.054
  22469473.767   -17315047.38943 -13359721.57142  22469476.242    22469470.811
  22979372.557   -15608554.04543 -12121154.47142  22979375.211    22979369.034
  20594625.416   -25417919.37744 -19787274.98742  20594627.877    20594620.834
  24757302.621    -4360157.54643  -3389005.14242  24757304.588    24757300.576
  23745037.741   -11892914.15343  -9224188.57642  23745039.961    23745033.550
  23297487.691   -14756373.36843 -11473819.28942  23297489.030    23297484.738
 03  3 26  3  5 30.0000000  0  8G31G 3G25G11G14G23G18G15
  23260088.723    -7187380.29343  -5590411.97442  23260090.760    23260086.588
  23831763.694   -10353759.96243  -8024148.00242  23831765.743    23831762.616
  22452897.776   -17402154.33443 -13427597.03542  22452900.239    22452894.828
  22963078.057   -15694182.23343 -12187877.68742  22963080.628    22963074.490
  20602594.493   -25376041.55544 -19754642.91442  20602596.953    20602589.918
  24769448.776    -4296328.95543  -3339268.57842  24769450.781    24769446.718
  23758574.926   -11821775.88843  -9168756.15442  23758577.067    23758570.724
  23317465.314   -14651390.32743 -11392014.33642  23317466.674    23317462.389
 03  3 26  3  6  0.0000000  0  8G31G 3G25G11G14G23G18G15
  23272086.672    -7124330.86443  -5541282.56342  23272088.650    23272084.464
  23847623.971   -10270413.67243  -7959202.87242  23847626.000    23847622.920
  22436367.055   -17489023.56943 -13495287.27742  22436369.495    22436364.114
  22946831.085   -15779560.64743 -12254406.29142  22946833.678    22946827.466
  20610630.034   -25333814.51444 -19721738.72042  20610632.485    20610625.447
  24781603.787    -4232454.06843  -3289495.95642  24781605.879    24781601.675
  23772127.314   -11750557.57843  -9113261.36442  23772129.446    23772123.100
  23337482.386   -14546200.08643 -11310047.91942  23337483.767    23337479.431
 03  3 26  3  6 30.0000000  0  8G31G 3G25G11G14G23G18G15
  23284146.202    -7060957.35843  -5491900.61642  23284148.188    23284144.022
  23863500.760   -10186980.63943  -7894190.13542  23863502.837    23863499.706
  22419886.389   -17575629.89943 -13562772.66342  22419888.787    22419883.394
  22930636.429   -15864663.97943 -12320720.53542  22930638.996    22930632.792
  20618736.011   -25291217.38744 -19688546.14542  20618738.465    20618731.406
  24793772.022    -4168509.81743  -3239669.26142  24793774.045    24793769.873
  23785699.291   -11679236.16643  -9057686.24542  23785701.415    23785695.033
  23357542.823   -14440781.73543 -11227903.76942  23357544.184    23357539.877
 03  3 26  3  7  0.0000000  0  7G31G 3G25G11G14G18G15
  23296266.969    -6997262.50743  -5442268.26742  23296268.921    23296264.769
  23879393.500   -10103463.64943  -7829111.98442  23879395.648    23879392.459
  22403456.370   -17661969.93243 -13630050.53242  22403458.782    22403453.361
  22914494.617   -15949489.65643 -12386818.44142  22914497.228    22914490.950
  20626912.012   -25248252.10044 -19655066.68742  20626914.469    20626907.399
  23799290.867   -11607811.63043  -9002030.76942  23799293.068    23799286.658
  23377646.324   -14335137.21643 -11145583.38242  23377647.633    23377643.325
 03  3 26  3  7 30.0000000  0  7G31G 3G25G11G14G18G15
  23308445.088    -6933265.88643  -5392400.78542  23308447.064    23308442.944
  23895298.509   -10019882.30843  -7763983.67842  23895300.671    23895297.490
  22387074.302   -17748058.01243 -13697132.07842  22387076.744    22387071.258
  22898402.888   -16034052.09743 -12452711.20742  22898405.512    22898399.188
  20635154.554   -25204937.24644 -19621314.84442  20635157.005    20635149.925
  23812898.957   -11536300.71443  -8946307.98042  23812901.211    23812894.796
  23397789.363   -14229284.97643 -11063101.13242  23397790.626    23397786.388
 03  3 26  3  8  0.0000000  0  7G31G 3G25G11G14G18G15
  23320683.739    -6868951.45643  -5342285.65042  23320685.644    23320681.607
  23911218.844    -9936220.50743  -7698792.67442  23911221.008    23911217.817
  22370744.280   -17833872.66643 -13764000.57342  22370746.713    22370741.190
  22882365.364   -16118330.14543 -12518382.37742  22882367.916    22882361.571
  20643466.801   -25161255.99244 -19587277.48942  20643469.241    20643462.185
  23826527.172   -11464684.10643  -8890502.81542  23826529.406    23826522.917
  23417975.139   -14123208.12243 -10980443.85642  23417976.364    23417972.160
 03  3 26  3  8 30.0000000  0  7G31G 3G25G11G14G18G15
  23332978.048    -6804344.43243  -5291942.51442  23332979.950    23332975.949
  23927149.738    -9852503.64243  -7633558.76842  23927151.897    23927148.577
  22354462.604   -17919433.27643 -13830671.10942  22354465.039    22354459.486
  22866378.075   -16202343.58043 -12583847.35642  22866380.647    22866374.265
  20651844.126   -25117232.68044 -19552973.59842  20651846.586    20651839.514
  23840171.164   -11392984.41643  -8834632.93342  23840173.500    23840166.839
  23438198.984   -14016931.20143 -10897630.69242  23438200.131    23438196.018
 03  3 26  3  9  0.0000000  0  7G31G 3G25G11G14G18G15
  23345329.549    -6739436.80843  -5241365.15842  23345331.453    23345327.481
  23943092.594    -9768723.64443  -7568275.66242  23943094.727    23943091.414
  22338231.766   -18004726.54243 -13897133.31742  22338234.212    22338228.668
  22850443.682   -16286079.14143 -12649095.78842  22850446.252    22850439.884
  20660288.279   -25072858.45544 -19518396.26242  20660290.724    20660283.630
  23853833.185   -11321190.47243  -8778689.59742  23853835.465    23853828.853
  23458462.652   -13910445.09043 -10814654.49742  23458463.802    23458459.645
 03  3 26  3  9 30.0000000  0  7G31G 3G25G11G14G18G15
  23357735.076    -6674245.15643  -5190566.48242  23357736.988    23357733.052
  23959044.306    -9684897.07243  -7502956.26942  23959046.380    23959043.113
  22322049.714   -18089763.36243 -13963395.70242  22322052.167    22322046.645
  22834560.000   -16369548.08943 -12714136.46542  22834562.613    22834556.203
  20668796.153   -25028149.09644 -19483557.78642  20668798.618    20668791.530
  23867510.453   -11249316.02843  -8722683.54842  23867512.742    23867506.086
  23478763.111   -13803765.37943 -10731527.46342  23478764.334    23478760.171
 03  3 26  3 10  0.0000000  0  7G31G 3G25G11G14G18G15
  23370196.685    -6608759.07843  -5139538.36142  23370198.605    23370194.644
  23975006.830    -9601013.43143  -7437592.39342  23975008.888    23975005.665
  22305919.590   -18174527.49843 -14029445.60042  22305922.015    22305916.519
  22818730.071   -16452734.76643 -12778957.19442  22818732.691    22818726.278
  20677370.049   -24983092.91244 -19448449.04942  20677372.523    20677365.432
  23881205.537   -11177347.61843  -8666604.25942  23881207.872    23881201.213
  23499102.570   -13696880.73743 -10648240.73442  23499103.840    23499099.630
 03  3 26  3 10 30.0000000  0  7G31G 3G25G11G14G18G15
  23382717.307    -6542962.63643  -5088268.41442  23382719.278    23382715.339
  23990983.224    -9517056.74843  -7372171.60442  23990985.304    23990982.150
  22289845.434   -18258997.54743 -14095266.35042  22289847.842    22289842.326
  22802957.866   -16535617.88043 -12843541.38142  22802960.486    22802954.075
  20686013.084   -24937673.32544 -19413057.14742  20686015.565    20686008.480
  23894922.135   -11105266.28743  -8610437.00142  23894924.445    23894917.904
  23519484.297   -13589774.18243 -10564781.11242  23519485.602    23519481.350
 03  3 26  3 11  0.0000000  0  7G31G 3G25G11G14G18G15
  23395292.360    -6476880.37843  -5036775.76042  23395294.346    23395290.366
  24006968.816    -9433051.66943  -7306713.10442  24006970.903    24006967.710
  22273823.558   -18343192.74143 -14160872.92742  22273825.974    22273820.443
  22787239.789   -16618216.72143 -12907904.05342  22787242.398    22787235.974
  20694720.782   -24891914.00344 -19377400.51142  20694723.273    20694716.177
  23908656.141   -11033093.79143  -8554198.68442  23908658.478    23908651.798
  23539903.719   -13482469.50143 -10481167.08342  23539905.040    23539900.762
 03  3 26  3 11 30.0000000  0  7G31G 3G25G11G14G18G15
  23407921.587    -6410513.53943  -4985061.36542  23407923.553    23407919.547
  24022963.406    -9348999.26143  -7241217.71942  24022965.526    24022962.344
  22257854.933   -18427108.38243 -14226261.67442  22257857.315    22257851.734
  22771576.533   -16700527.31143 -12972042.11542  22771579.183    22771572.706
  20703493.065   -24845815.29844 -19341479.42542  20703495.546    20703488.442
  23922407.847   -10960828.06243  -8497887.73942  23922410.211    23922403.580
  23560360.754   -13374967.03643 -10397398.95042  23560362.101    23560357.822
 03  3 26  3 12  0.0000000  0  7G31G 3G25G11G14G18G15
  23420603.716    -6343868.41043  -4933130.09742  23420605.676    23420601.668
  24038965.893    -9264905.67543  -7175690.26442  24038968.041    24038964.824
  22241939.296   -18510745.35443 -14291433.27442  22241941.682    22241936.084
  22755967.955   -16782550.50543 -13035956.22742  22755970.608    22755964.141
  20712328.903   -24799382.55144 -19305298.04942  20712331.390    20712324.268
  23936176.682   -10888472.67943  -8441506.93042  23936178.895    23936172.378
  23580854.394   -13267272.12743 -10313480.85442  23580855.735    23580851.560
 03  3 26  3 12 30.0000000  0  7G31G 3G25G11G14G18G15
  23433336.833    -6276955.36443  -4880990.06742  23433338.825    23433334.802
  24054974.245    -9180781.34543  -7110138.84442  24054976.424    24054973.091
  22226075.751   -18594108.52743 -14356391.52442  22226078.142    22226072.503
  22740413.048   -16864291.54343 -13099650.47642  22740415.721    22740409.291
  20721226.481   -24752625.32244 -19268863.83142  20721228.954    20721221.835
  23949961.111   -10816034.81043  -8385061.84042  23949963.328    23949956.875
  23601382.926   -13159394.16243 -10229420.10342  23601384.282    23601380.080
 03  3 26  3 13  0.0000000  0  7G31G 3G25G11G14G18G15
  23446129.478    -6209729.80143  -4828606.54242  23446131.455    23446127.403
  24070996.896    -9096581.44543  -7044528.52642  24070999.207    24070995.813
  22210273.926   -18677147.51643 -14421097.17042  22210276.315    22210270.649
  22724921.420   -16945700.36743 -13163085.87242  22724924.086    22724917.653
  20730194.527   -24705497.85944 -19232141.11942  20730197.005    20730189.854
  23963770.353   -10743466.86443  -8328515.39142  23963772.566    23963766.080
  23621954.943   -13051287.58243 -10145181.23742  23621956.226    23621952.092
 03  3 26  3 13 30.0000000  0  7G31G 3G25G11G14G18G15
  23458972.143    -6142241.03543  -4776017.89242  23458974.140    23458970.084
  24087024.566    -9012355.26143  -6978897.72242  24087026.897    24087023.530
  22194525.437   -18759906.02043 -14485584.25742  22194527.830    22194522.170
  22709484.570   -17026821.10043 -13226296.78042  22709487.273    22709480.831
  20739223.775   -24658048.80144 -19195167.81242  20739226.255    20739219.112
  23977595.496   -10670815.46843  -8271903.89942  23977597.715    23977591.233
  23642561.202   -12943000.85643 -10060801.98942  23642562.574    23642558.411
 03  3 26  3 14  0.0000000  0  7G31G 3G25G11G14G18G15
  23471864.476    -6074491.67343  -4723226.19242  23471866.440    23471862.384
  24103056.754    -8928105.48443  -6913248.55742  24103059.003    24103055.638
  22178830.875   -18842381.22643 -14549850.58742  22178833.266    22178827.601
  22694103.151   -17107650.80343 -13289280.91742  22694105.818    22694099.405
  20748313.937   -24610279.59844 -19157945.04242  20748316.438    20748309.293
  23991436.541   -10598080.06043  -8215226.97542  23991438.813    23991432.408
  23663201.434   -12834535.72243  -9976283.71042  23663202.848    23663198.702
 03  3 26  3 14 30.0000000  0  7G31G 3G25G11G14G18G15
  23484806.369    -6006481.63043  -4670231.36342  23484808.324    23484804.280
  24119093.516    -8843831.77243  -6847580.74842  24119095.758    24119092.398
  22163191.324   -18924567.33243 -14613891.65242  22163193.727    22163188.022
  22678778.115   -17188184.29543 -13352034.23542  22678780.737    22678774.330
  20757465.215   -24562189.33044 -19120472.09642  20757467.702    20757460.559
  24005294.246   -10525257.45243  -8158482.08942  24005296.515    24005290.123
  23683875.878   -12725890.99243  -9891625.49542  23683877.268    23683873.071
 03  3 26  3 15  0.0000000  0  7G31G 3G25G11G14G18G15
  23497803.160    -5938182.99343  -4617011.65842  23497805.045    23497801.072
  24135140.150    -8759505.97643  -6781872.34242  24135142.329    24135139.147
  22147613.111   -19006431.21743 -14677681.63042  22147615.507    22147609.773
  22663515.721   -17268388.46643 -13414530.95242  22663518.369    22663511.932
  20766683.032   -24513749.32544 -19082726.62542  20766685.507    20766678.361
  24019174.438   -10452316.65343  -8101645.08242  24019176.676    24019170.235
  23704589.931   -12617037.89943  -9806804.92142  23704591.335    23704587.144
 03  3 26  3 15 30.0000000  0  7G31G 3G25G11G14G18G15
  23510847.900    -5869632.36643  -4563595.59842  23510849.806    23510845.860
  24151189.679    -8675164.74443  -6716151.91642  24151191.955    24151188.803
  22132090.398   -19088003.44943 -14741244.35242  22132092.790    22132087.016
  22648310.180   -17348294.22043 -13476795.13742  22648312.772    22648306.326
  20775960.610   -24464995.27744 -19044736.44742  20775963.088    20775955.922
  24033070.716   -10379291.36943  -8044742.26742  24033073.009    24033066.496
  23725336.865   -12508012.11743  -9721849.78442  23725338.321    23725334.031
 03  3 26  3 16  0.0000000  0  7G31G 3G25G11G14G18G15
  23523941.401    -5800825.75743  -4509980.06542  23523943.297    23523939.324
  24167243.031    -8590803.94243  -6650416.21542  24167245.250    24167242.078
  22116624.961   -19169274.73443 -14804572.57042  22116627.323    22116621.534
  22633163.145   -17427892.27143 -13538819.55042  22633165.700    22633159.255
  20785298.901   -24415922.16844 -19006497.65042  20785301.382    20785294.222
  24046984.461   -10306174.23343  -7987767.89242  24046986.708    24046980.185
  23746117.622   -12398808.58743  -9636756.12842  23746119.107    23746114.807
 03  3 26  3 16 30.0000000  0  7G31G 3G25G11G14G18G15
  23537083.962    -5731761.08243  -4456163.44342  23537085.936    23537081.862
  24183300.480    -8506421.27543  -6584663.49642  24183302.715    24183299.627
  22101218.270   -19250237.26743 -14867660.20742  22101220.621    22101214.807
  22618076.040   -17507175.36243 -13600598.54442  22618078.630    22618072.128
  20794698.465   -24366527.02944 -18968007.91542  20794700.943    20794693.773
  24060916.484   -10232960.89443  -7930718.53542  24060918.740    24060912.203
  23766932.690   -12289424.27243  -9551521.62442  23766934.243    23766929.972
 03  3 26  3 17  0.0000000  0  7G31G 3G25G11G14G18G15
  23550273.412    -5662450.02343  -4402154.83542  23550275.374    23550271.354
  24199360.043    -8422028.03843  -6518902.55442  24199362.248    24199359.246
  22085869.114   -19330897.42043 -14930512.21742  22085871.471    22085865.639
  22603047.692   -17586149.66043 -13662136.92742  22603050.281    22603043.818
  20804157.327   -24316820.30844 -18929275.39242  20804159.813    20804152.639
  24074865.226   -10159659.64743  -7873600.68642  24074867.483    24074861.043
  23787780.190   -12179869.89243  -9466154.56942  23787781.707    23787777.467
 03  3 26  3 17 30.0000000  0  7G31G 3G25G11G14G18G15
  23563514.042    -5592869.67743  -4347936.38842  23563516.059    23563511.977
  24215425.978    -8337601.49543  -6453115.63042  24215428.161    24215425.023
  22070582.887   -19411226.77143 -14993106.46142  22070585.252    22070579.407
  22588083.429   -17664787.25443 -13723412.93142  22588086.032    22588079.544
  20813679.997   -24266778.40844 -18890281.68942  20813682.471    20813675.294
  24088835.677   -10086244.47943  -7816394.05442  24088837.934    24088831.484
  23808664.588   -12070121.71043  -9380636.50542  23808666.136    23808661.907
 03  3 26  3 18  0.0000000  0  7G31G 3G25G11G14G18G15
  23576801.468    -5523043.76743  -4293526.59442  23576803.441    23576799.364
  24231493.680    -8253165.07443  -6387321.03442  24231495.924    24231492.713
  22055356.194   -19491243.35743 -15055456.99842  22055358.571    22055352.696
  22573179.776   -17743106.29243 -13784440.71442  22573182.375    22573175.883
  20823262.117   -24216423.99344 -18851044.47242  20823264.595    20823257.404
  24102823.865   -10012735.77743  -7759114.57442  24102826.105    24102819.709
  23829581.561   -11960202.56343  -9294985.25242  23829583.067    23829578.882
 03  3 26  3 18 30.0000000  0  7G31G 3G25G11G14G18G15
  23590133.122    -5452985.73943  -4238935.93242  23590135.063    23590130.878
  24247560.885    -8168731.84743  -6321528.93842  24247562.969    24247559.847
  22040187.484   -19570955.14043 -15117570.02142  22040189.876    22040183.992
  22558335.155   -17821114.98543 -13845226.67442  22558337.770    22558331.270
  20832901.336   -24165769.56644 -18811573.47542  20832903.822    20832896.628
  24116827.888    -9939144.25943  -7701770.54742  24116830.148    24116823.692
  23850528.691   -11850124.79043  -9209210.35842  23850530.222    23850525.988
 03  3 26  3 19  0.0000000  0  7G31G 3G25G11G14G18G15
  23603508.653    -5382696.77143  -4184165.30742  23603510.571    23603506.416
  24263627.245    -8084302.98943  -6255740.23742  24263629.305    24263626.185
  22025077.714   -19650357.29543 -15179441.77842  22025080.113    22025074.200
  22543550.463   -17898809.07143 -13905767.48042  22543553.056    22543546.524
  20842597.498   -24114815.66344 -18771869.12042  20842599.995    20842592.803
  24130848.027    -9865468.16643  -7644360.59142  24130850.295    24130843.793
  23871505.925   -11739888.66643  -9123312.09942  23871507.426    23871503.162
 03  3 26  3 19 30.0000000  0  7G31G 3G25G11G14G18G15
  23616929.299    -5312171.00343  -4129210.17342  23616931.175    23616927.035
  24279693.889    -7999872.43543  -6189950.18942  24279695.916    24279692.790
  22010028.956   -19729438.98143 -15241063.81742  22010031.331    22010025.406
  22528827.717   -17976177.39643 -13966054.43842  22528830.328    22528823.774
  20852351.990   -24063555.45044 -18731926.08142  20852354.455    20852347.268
  24144885.817    -9791698.78043  -7586877.95042  24144888.154    24144881.624
  23892514.619   -11629487.51843  -9037285.22242  23892516.091    23892511.786
 03  3 26  3 20  0.0000000  0  7G31G 3G25G11G14G18G15
  23630398.662    -5241389.15343  -4074055.49142  23630400.537    23630396.379
  24295764.555    -7915420.54543  -6124143.52542  24295766.611    24295763.456
  21995045.948   -19808175.01243 -15302416.51542  21995048.336    21995042.373
  22514171.780   -18053194.96443 -14026068.09242  22514174.342    22514167.791
  20862168.627   -24011968.54844 -18691728.47642  20862171.101    20862163.885
  24158945.625    -9717813.66143  -7529305.15742  24158947.930    24158941.498
  23913558.516   -11518901.07843  -8951114.00542  23913559.982    23913555.686
 03  3 26  3 20 30.0000000  0  7G31G 3G25G11G14G18G15
  23643913.969    -5170365.74343  -4018712.58042  23643915.940    23643911.690
  24311836.548    -7830961.75143  -6058331.50942  24311838.515    24311835.482
  21980126.922   -19886574.74043 -15363507.15442  21980129.319    21980123.338
  22499580.766   -18129871.23843 -14085815.79442  22499583.310    22499576.698
  20872044.976   -23960068.02344 -18651286.49342  20872047.460    20872040.227
  24173025.471    -9643823.54843  -7471650.50142  24173027.739    24173021.354
  23934635.179   -11408142.82743  -8864808.88842  23934636.597    23934632.293
 03  3 26  3 21  0.0000000  0  7G31G 3G25G11G14G18G15
  23657474.708    -5099103.66643  -3963183.70442  23657476.654    23657472.416
  24327909.269    -7746498.95143  -5992516.35542  24327911.333    24327908.229
  21965272.465   -19964635.29343 -15424333.50642  21965274.848    21965268.837
  22485055.110   -18206203.86643 -14145295.70642  22485057.651    22485051.006
  20881980.519   -23907856.26244 -18610601.98842  20881983.013    20881975.783
  24187125.184    -9569728.63743  -7413914.21842  24187127.459    24187121.117
  23955744.063   -11297214.83343  -8778371.49942  23955745.464    23955741.227
 03  3 26  3 21 30.0000000  0  7G31G 3G25G11G14G18G15
  23671077.244    -5027622.12843  -3907483.80942  23671079.138    23671074.908
  24343979.166    -7662050.73943  -5926712.57542  24343981.175    24343978.201
  21950479.877   -20042370.71843 -15484906.51042  21950482.270    21950476.216
  22470592.189   -18282206.73643 -14204518.67342  22470594.767    22470588.112
  20891971.795   -23855351.63344 -18569689.27142  20891974.299    20891967.054
  24201241.766    -9495545.30643  -7356109.06142  24201243.971    24201237.756
  23976881.807   -11186135.30343  -8691816.02542  23976883.167    23976878.922
 03  3 26  3 22  0.0000000  0  7G31G 3G25G11G14G18G15
  23684719.974    -4955929.29143  -3851619.26742  23684721.830    23684717.636
  24360044.822    -7577625.12843  -5860926.39242  24360046.895    24360043.856
  21935748.646   -20119783.62543 -15545228.20442  21935751.052    21935744.988
  22456191.538   -18357882.67443 -14263486.88742  22456194.095    22456187.421
  20902017.464   -23802561.21144 -18528553.86142  20902019.938    20902012.717
  24215374.262    -9421278.79243  -7298239.03342  24215376.369    24215370.174
  23998047.043   -11074911.56443  -8605148.19242  23998048.314    23998044.104
 03  3 26  3 22 30.0000000  0  7G31G 3G25G11G14G18G15
  23698402.582    -4884026.85943  -3795591.40842  23698404.392    23698400.163
  24376105.952    -7493223.58543  -5795158.98342  24376108.008    24376104.948
  21921079.581   -20196869.88143 -15605295.35942  21921081.967    21921075.910
  22441853.719   -18433228.00043 -14322197.48042  22441856.310    22441849.622
  20912117.384   -23749485.60044 -18487196.22642  20912119.874    20912112.653
  24229522.881    -9346927.41343  -7240302.89242  24229524.984    24229518.679
  24019239.533   -10963544.31043  -8518368.51242  24019240.833    24019236.674
 03  3 26  3 23  0.0000000  0  7G31G 3G25G11G14G18G15
  23712125.375    -4811913.11343  -3739398.89542  23712127.167    23712122.981
  24392162.820    -7408844.25143  -5729408.89142  24392164.890    24392161.822
  21906474.055   -20273622.21643 -15665102.31942  21906476.433    21906470.393
  22427580.171   -18508235.66843 -14380644.96542  22427582.811    22427576.095
  20922272.083   -23696122.25844 -18445614.38642  20922274.565    20922267.337
  24243688.433    -9272486.64343  -7182297.11442  24243690.591    24243684.277
  24040459.802   -10852031.03943  -8431475.08042  24040461.090    24040456.993
 03  3 26  3 23 30.0000000  0  7G31G 3G25G11G14G18G15
  23725894.288    -4739557.05143  -3683017.56242  23725896.100    23725891.897
  24408221.478    -7324455.82243  -5663651.69742  24408223.470    24408220.445
  21891938.985   -20350004.32443 -15724620.78842  21891941.359    21891935.339
  22413377.807   -18582869.23143 -14438800.93542  22413380.467    22413373.762
  20932487.630   -23642439.10244 -18403783.34042  20932490.106    20932482.905
  24257877.479    -9197922.48743  -7124195.17042  24257879.696    24257873.364
  24061713.949   -10740339.91043  -8344443.03742  24061715.300    24061711.209
 03  3 26  3 24  0.0000000  0  7G31G 3G25G11G14G18G15
  23739704.832    -4666982.34443  -3626465.84642  23739706.656    23739702.430
  24424277.457    -7240081.50343  -5597905.48542  24424279.471    24424276.316
  21877470.896   -20426034.40643 -15783864.95242  21877473.245    21877467.256
  22399243.191   -18657147.09143 -14496679.73642  22399245.849    22399239.124
  20942759.708   -23588458.89244 -18361720.82442  20942762.202    20942754.997
  24272086.167    -9123255.35743  -7066013.00742  24272088.443    24272082.031
  24082997.545   -10628493.55643  -8257290.05442  24082998.845    24082994.840
 03  3 26  3 24 30.0000000  0  7G31G 3G25G11G14G18G15
  23753553.638    -4594206.49243  -3569757.39742  23753555.437    23753551.217
  24440327.363    -7155738.56343  -5532183.73242  24440329.350    24440326.239
  21863067.519   -20501724.49743 -15842844.19042  21863069.878    21863063.857
  22385173.866   -18731081.72443 -14554291.08142  22385176.494    22385169.781
  20953085.138   -23534198.29244 -18319439.82242  20953087.609    20953080.427
  24286311.709    -9048499.60943  -7007761.77842  24286313.977    24286307.623
  24104307.601   -10516508.47143  -8170028.95942  24104308.859    24104304.881
 03  3 26  3 25  0.0000000  0  7G31G 3G25G11G14G18G15
  23767441.266    -4521226.42743  -3512889.82842  23767443.107    23767438.910
  24456371.934    -7071423.76943  -5466483.91042  24456373.933    24456370.877
  21848730.447   -20577066.10943 -15901551.88742  21848732.813    21848726.758
  22371171.483   -18804664.43043 -14611628.21542  22371174.101    22371167.378
  20963464.715   -23479653.16444 -18276937.11042  20963467.203    20963459.997
  24300555.302    -8973649.31843  -6949436.88342  24300557.465    24300551.219
  24125644.871   -10404380.62943  -8082656.62942  24125646.004    24125642.129
 03  3 26  3 25 30.0000000  0  7G31G 3G25G11G14G18G15
  23781364.652    -4448058.33143  -3455875.73442  23781366.587    23781362.362
  24472408.101    -6987152.98843  -5400818.36442  24472410.154    24472407.131
  21834457.626   -20652069.92743 -15959996.36342  21834459.994    21834453.926
  22357233.996   -18877906.10643 -14668699.58642  22357236.597    22357229.905
  20973895.582   -23424838.59444 -18234224.43642  20973898.056    20973890.848
  24314814.383    -8898717.60143  -6891048.54542  24314816.547    24314810.268
  24147006.335   -10292125.53243  -7995185.14442  24147007.407    24147003.499
 03  3 26  3 26  0.0000000  0  7G31G 3G25G11G14G18G15
  23795325.934    -4374691.08643  -3398706.46542  23795327.872    23795323.696
  24488438.076    -6902914.53343  -5335178.02342  24488440.208    24488437.155
  21820252.279   -20726719.10543 -16018164.49742  21820254.658    21820248.597
  22343364.612   -18950790.04843 -14725492.22142  22343367.215    22343360.499
  20984379.988   -23369742.43344 -18191292.34642  20984382.490    20984375.293
  24329091.634    -8823690.36943  -6832585.76342  24329093.729    24329087.426
  24168394.290   -10179730.94643  -7907604.95042  24168395.415    24168391.520
 03  3 26  3 26 30.0000000  0  7G31G 3G25G11G14G18G15
  23809322.423    -4301138.85443  -3341393.04942  23809324.466    23809320.214
  24504459.320    -6818722.26243  -5269573.65942  24504461.333    24504458.438
  21806112.723   -20801022.68443 -16076063.32942  21806115.092    21806109.035
  22329561.574   -19023325.39243 -14782013.21542  22329564.156    22329557.440
  20994915.498   -23314377.93844 -18148151.16442  20994917.968    20994910.785
  24343385.012    -8748578.59843  -6774057.11242  24343387.092    24343380.657
  24189806.342   -10067209.97643  -7819926.26342  24189807.418    24189803.541
 03  3 26  3 27  0.0000000  0  7G31G 3G25G11G14G18G15
  23823360.976    -4227365.85243  -3283907.60642  23823362.917    23823358.729
  24520478.730    -6734540.27243  -5203977.30742  24520480.654    24520477.738
  21792046.743   -20874939.67943 -16133660.93442  21792049.121    21792043.059
  22315832.626   -19095471.15343 -14838230.64142  22315835.239    22315828.515
  21005509.041   -23258708.29944 -18104772.21342  21005511.528    21005504.342
  24357701.910    -8673343.23843  -6715432.16842  24357703.936    24357697.483
  24211249.287    -9954526.32843  -7732120.85442  24211250.367    24211246.552
 03  3 26  3 27 30.0000000  0  7G31G 3G25G11G14G18G15
  23837434.934    -4153406.50243  -3226276.94542  23837436.889    23837432.771
  24536489.501    -6650402.86943  -5138415.70142  24536491.338    24536488.600
  21778048.926   -20948498.57643 -16190979.50342  21778051.287    21778045.195
  22302172.323   -19167256.21043 -14894166.99742  22302174.950    22302168.244
  21016154.302   -23202766.95544 -18061181.54042  21016156.791    21016149.581
  24372036.148    -8598016.04243  -6656735.65342  24372038.253    24372031.859
  24232716.889    -9841713.33643  -7644214.60642  24232717.981    24232714.129
 03  3 26  3 28  0.0000000  0  7G31G 3G25G11G14G18G15
  23851543.337    -4079266.44543  -3168505.48442  23851545.339    23851541.200
  24552490.894    -6566315.24443  -5072892.88142  24552492.634    24552489.997
  21764119.177   -21021699.70743 -16248019.29842  21764121.524    21764115.409
  22288580.589   -19238681.15043 -14949822.74542  22288583.214    22288576.518
  21026850.347   -23146558.66544 -18017382.86342  21026852.818    21026845.642
  24386387.410    -8522599.40543  -6597969.45842  24386389.541    24386383.232
  24254208.152    -9728775.53443  -7556211.12342  24254209.350    24254205.519
 03  3 26  3 28 30.0000000  0  7G31G 3G25G11G14G18G15
  23865691.550    -4004916.96243  -3110570.84442  23865693.512    23865689.496
  24568488.367    -6482248.24843  -5007386.13642  24568490.132    24568487.382
  21750263.901   -21094509.49943 -16304754.14742  21750266.256    21750260.106
  22275063.887   -19309711.68443 -15005171.16242  22275066.503    22275059.802
  21037602.915   -23090053.50944 -17973352.85842  21037605.372    21037598.160
  24400761.848    -8447061.62743  -6539108.86942  24400763.917    24400757.669
  24275728.785    -9615683.49743  -7468087.46242  24275730.077    24275726.212
 03  3 26  3 29  0.0000000  0  7G31G 3G25G11G14G18G15
  23879871.435    -3930400.97843  -3052506.45042  23879873.374    23879869.482
  24584473.733    -6398244.51243  -4941928.68242  24584475.608    24584472.799
  21736476.029   -21166965.17643 -16361213.07142  21736478.367    21736472.176
  22261615.032   -19380385.90843 -15060241.94142  22261617.621    22261610.905
  21048403.930   -23033293.58444 -17929124.33342  21048406.407    21048399.183
  24415151.731    -8371442.47843  -6480184.85542  24415153.747    24415147.464
  24297270.819    -9502479.28743  -7379876.38342  24297272.138    24297268.314
 03  3 26  3 29 30.0000000  0  7G31G 3G25G11G14G18G15
  23894089.057    -3855687.03843  -2994287.79442  23894090.991    23894087.091
  24600453.111    -6314272.09343  -4876495.64942  24600454.986    24600452.189
  21722762.556   -21239029.71443 -16417367.20542  21722764.900    21722758.684
  22248241.035   -19450666.57943 -15115006.05442  22248243.614    22248236.879
  21059259.689   -22976246.27644 -17884671.87542  21059262.164    21059254.931
  24429563.543    -8295707.53743  -6421170.61342  24429565.584    24429559.380
  24318840.348    -9389130.54643  -7291552.67842  24318841.771    24318837.880
 03  3 26  3 30  0.0000000  0  7G31G 3G25G11G14G18G15
  23908336.168    -3780818.11443  -2935948.38642  23908338.091    23908334.198
  24616418.482    -6230373.43943  -4811120.06642  24616420.434    24616417.589
  21709116.364   -21310740.69243 -16473245.84342  21709118.701    21709112.498
  22234934.729   -19520591.58043 -15169493.02442  22234937.294    22234930.541
  21070162.105   -22918953.64344 -17840028.26042  21070164.594    21070157.347
  24443989.851    -8219896.68143  -6362097.21142  24443991.914    24443985.686
  24340429.427    -9275679.12243  -7203148.96542  24340430.805    24340426.886
 03  3 26  3 30 30.0000000  0  7G31G 3G25G11G14G18G15
  23922616.441    -3705775.36143  -2877473.53842  23922618.321    23922614.335
  24632373.445    -6146529.54643  -4745787.16242  24632375.330    24632372.542
  21695542.009   -21382074.06543 -16528830.23542  21695544.358    21695538.190
  22221700.668   -19590136.81243 -15223684.07142  22221703.242    22221696.452
  21081115.008   -22861395.85844 -17795178.02742  21081117.481    21081110.199
  24458434.768    -8143988.11343  -6302947.70342  24458436.845    24458430.647
  24362041.764    -9162105.35143  -7114649.92942  24362043.191    24362039.262
 03  3 26  3 31  0.0000000  0  7G31G 3G25G11G14G18G15
  23936927.289    -3630571.29843  -2818872.97042  23936929.207    23936925.185
  24648315.624    -6062752.76343  -4680506.55242  24648317.596    24648314.602
  21682038.143   -21453037.14043 -16584126.09442  21682040.452    21682034.320
  22208537.544   -19659309.35043 -15277584.70642  22208540.086    22208533.318
  21092116.185   -22803584.25144 -17750130.01142  21092118.661    21092111.368
  24472896.496    -8067991.28743  -6243729.40442  24472898.596    24472892.377
  24383675.191    -9048420.91843  -7026064.65842  24383676.605    24383672.719
 03  3 26  3 31 30.0000000  0  7G31G 3G25G11G14G18G15
  23951269.897    -3555200.15243  -2760142.20842  23951271.798    23951267.851
  24664246.211    -5979036.62843  -4615273.20042  24664248.193    24664245.283
  21668606.854   -21523618.83743 -16639124.77042  21668609.160    21668603.026
  22195447.407   -19728098.34343 -15331186.47442  22195449.941    22195443.160
  21103166.916   -22745512.16044 -17704879.02242  21103169.381    21103162.099
  24487376.667    -7991897.38943  -6184435.49142  24487378.687    24487372.621
  24405331.001    -8934619.10243  -6937387.92842  24405332.408    24405328.447
 03  3 26  3 32  0.0000000  0  7G31G 3G25G11G14G18G15
  23965640.981    -3479679.91243  -2701295.27342  23965642.838    23965638.884
  24680161.979    -5895398.74943  -4550100.82142  24680164.054    24680161.015
  21655245.786   -21593831.50943 -16693835.88942  21655248.088    21655241.954
  22182427.833   -19796516.43643 -15384499.23342  22182430.385    22182423.585
  21114264.031   -22687196.47544 -17659438.21842  21114266.464    21114259.206
  24501872.438    -7915721.29443  -6125077.53942  24501874.565    24501868.479
  24427005.863    -8820717.08843  -6848633.10842  24427007.286    24427003.231
 03  3 26  3 32 30.0000000  0  7G31G 3G25G11G14G18G15
  23980044.844    -3403987.04643  -2642313.82642  23980046.740    23980042.790
  24696067.404    -5811815.22243  -4484970.79742  24696069.471    24696066.528
  21641960.400   -21663646.56843 -16748237.18142  21641962.702    21641956.504
  22169484.312   -19864534.98943 -15437500.66942  22169486.877    22169480.049
  21125412.164   -22628612.67844 -17613788.49642  21125414.599    21125407.332
  24516388.997    -7839436.63943  -6065634.97342  24516391.145    24516385.032
  24448704.457    -8706690.40043  -6759781.15042  24448705.780    24448701.732
 03  3 26  3 33  0.0000000  0  7G31G 3G25G11G14G18G15
  23994480.792    -3328125.68243  -2583201.07142  23994482.724    23994478.665
  24711961.862    -5728289.64443  -4419885.93442  24711963.886    24711961.005
  21628750.924   -21733062.72543 -16802327.64642  21628753.237    21628746.975
  22156617.032   -19932152.95443 -15490189.96242  22156619.588    22156612.757
  21136610.739   -22569763.69444 -17567932.13442  21136613.195    21136605.909
  24530926.031    -7763044.29343  -6006108.49742  24530928.036    24530922.066
  24470426.243    -8592542.04443  -6670834.38142  24470427.518    24470423.286
 03  3 26  3 33 30.0000000  0  7G31G 3G25G11G14G18G15
  24008944.241    -3252119.86043  -2523975.76642  24008946.160    24008942.172
  24727840.718    -5644845.79943  -4354864.76042  24727842.730    24727839.735
  21615613.803   -21802098.50743 -16856121.71142  21615616.140    21615609.844
  22143822.448   -19999388.87243 -15542581.55342  22143824.969    22143818.156
  21147855.330   -22510672.79244 -17521887.26342  21147857.798    21147850.534
  24545479.506    -7686565.22343  -5946514.44642  24545481.459    24545475.594
  24492166.618    -8478295.36843  -6581811.00542  24492167.985    24492163.732
